[[[{"header":{"parameterUnit":"kt","parameterCategory":2,"dx":1,"dy":1,"la1":29.587661999999998,"la2":31.0,"lo1":-88.76705300000003,"lo2":-86.6583820000003,"nx":115,"ny":88,"refTime":"2022-09-24T06:00:00:Z","depth":0,"parameterNumber":1,"parameterNumberName":"U-component_of_WINDS"},"data":[3.9478,3.8858,3.8758,3.8483,3.798,3.7473,3.7013,3.6546,3.5579,3.4967,3.439,3.3501,3.2814,3.2526,3.141,3.0681,3.0002,2.8988,2.7941,2.6941,2.6162,2.541,2.4653,2.3859,2.3076,2.2441,2.1924,2.1497,2.1375,2.0823,2.0301,2.0054,2.0024,1.9715,1.9368,1.9226,1.9015,1.8669,1.845,1.8272,1.766,1.7371,1.7194,1.6909,1.677,1.6232,1.5794,1.5356,1.4937,1.4406,1.38,1.3306,1.3007,1.2714,1.2601,1.2447,1.212,1.1921,1.1759,1.1561,1.1126,1.1091,1.0436,0.974,0.9177,0.8488,0.775,0.7145,0.6665,0.6251,0.6163,0.5932,0.5816,0.5635,0.5502,0.4903,0.438,0.4379,0.4422,0.4444,0.4575,0.5057,0.5594,0.6034,0.6263,0.6481,0.6701,0.7073,0.7029,0.7111,0.7196,0.7268,0.7347,0.7163,0.6698,0.6233,0.6056,0.6415,0.6779,0.7171,0.7694,0.8297,0.866,0.879,0.8796,0.8837,0.8691,0.8611,0.8437,0.8371,0.8371,0.811,0.7588,0.7128,0.654,3.9478,3.8858,3.8383,3.8055,3.7699,3.719,3.6595,3.5917,3.5387,3.4781,3.4009,3.3108,3.2588,3.2113,3.1334,3.0858,3.0163,2.9178,2.8317,2.7332,2.638,2.572,2.4965,2.4159,2.3589,2.2956,2.2167,2.1741,2.1344,2.0622,2.0129,1.9962,1.9715,1.9387,1.919,1.9114,1.8991,1.8598,1.8338,1.8149,1.7817,1.7476,1.6854,1.6392,1.6074,1.5683,1.5385,1.5049,1.475,1.4145,1.3463,1.3004,1.2611,1.2192,1.2055,1.1971,1.1678,1.1257,1.0991,1.0815,1.0215,0.9641,0.8991,0.8397,0.792,0.7156,0.6264,0.5632,0.5152,0.4833,0.4958,0.4948,0.4948,0.4856,0.4772,0.4547,0.4154,0.3883,0.382,0.3704,0.3969,0.4339,0.4956,0.5554,0.5883,0.6155,0.6449,0.6825,0.7103,0.706,0.7001,0.7025,0.6775,0.6408,0.6041,0.5756,0.5577,0.5936,0.6182,0.6954,0.7566,0.8047,0.8351,0.8657,0.8739,0.8697,0.8619,0.8502,0.8437,0.8371,0.8108,0.7651,0.7128,0.6542,0.5889,3.9131,3.8833,3.8308,3.7777,3.7265,3.6879,3.6254,3.5444,3.4962,3.4272,3.342,3.2787,3.2368,3.2147,3.1306,3.0765,3.0351,2.9367,2.8565,2.7785,2.6953,2.6162,2.541,2.4578,2.4009,2.3393,2.2501,2.1697,2.1117,2.0424,1.982,1.9622,1.938,1.9096,1.887,1.886,1.8775,1.857,1.8382,1.7973,1.736,1.6927,1.6345,1.5823,1.5488,1.5264,1.4966,1.4772,1.4361,1.3763,1.3403,1.2964,1.2463,1.1928,1.1853,1.1781,1.1372,1.0849,1.0492,0.9969,0.915,0.8585,0.792,0.7139,0.6618,0.5836,0.4911,0.4866,0.437,0.4355,0.4467,0.4462,0.4464,0.4439,0.4359,0.429,0.4023,0.3753,0.3601,0.3477,0.3671,0.3979,0.4415,0.5014,0.5286,0.5558,0.6046,0.6413,0.6733,0.6874,0.6745,0.6582,0.5877,0.5445,0.5275,0.5157,0.5097,0.5217,0.5395,0.6168,0.6912,0.7491,0.8067,0.8319,0.8456,0.854,0.8565,0.8437,0.8371,0.8176,0.7716,0.7196,0.6606,0.6017,0.5357,3.8808,3.8659,3.8257,3.7675,3.6933,3.6413,3.5786,3.5073,3.4482,3.3706,3.2903,3.2485,3.2258,3.2037,3.127,3.0822,3.0408,2.9586,2.8852,2.8115,2.7204,2.6367,2.5733,2.4816,2.4099,2.3513,2.2865,2.2107,2.1208,2.0388,1.9721,1.9633,1.9267,1.914,1.8984,1.9037,1.8836,1.8506,1.8301,1.7858,1.7093,1.6493,1.5934,1.5422,1.5049,1.4854,1.4772,1.4577,1.4129,1.3613,1.3515,1.3194,1.265,1.2109,1.1848,1.1679,1.0983,1.0345,0.9842,0.9133,0.8239,0.7569,0.6792,0.601,0.522,0.4411,0.4036,0.4069,0.4052,0.4126,0.4192,0.421,0.4179,0.4115,0.4048,0.3994,0.3939,0.3713,0.3527,0.3507,0.3479,0.3707,0.4034,0.4308,0.458,0.4963,0.5512,0.5899,0.6227,0.6338,0.6191,0.5805,0.5085,0.4796,0.4558,0.4499,0.4499,0.4619,0.4943,0.5526,0.6122,0.7009,0.7798,0.8046,0.8222,0.8402,0.8437,0.8241,0.8045,0.7849,0.7394,0.6436,0.5845,0.5082,0.4555,3.8608,3.8157,3.8106,3.7625,3.6804,3.5786,3.5153,3.4759,3.3949,3.3157,3.2485,3.2285,3.2113,3.1883,3.1242,3.0878,3.0512,2.9699,2.8957,2.8472,2.7448,2.6631,2.5897,2.4965,2.4309,2.3649,2.3046,2.2501,2.1436,2.0553,2.0077,2.0118,1.9628,1.9325,1.9319,1.9351,1.9041,1.8529,1.8153,1.7699,1.69,1.6186,1.5571,1.5124,1.4854,1.4652,1.4614,1.4481,1.4241,1.3792,1.3538,1.3385,1.2783,1.216,1.1458,1.1001,1.0376,0.9719,0.8965,0.8283,0.7356,0.6531,0.5703,0.5096,0.4396,0.357,0.3273,0.3243,0.3323,0.3388,0.3515,0.3531,0.3663,0.3698,0.369,0.3686,0.3685,0.3648,0.3496,0.3522,0.3489,0.3543,0.3816,0.3979,0.4199,0.444,0.4853,0.5321,0.5523,0.5617,0.5361,0.5015,0.4734,0.4558,0.426,0.4141,0.4021,0.4161,0.4557,0.508,0.5557,0.648,0.752,0.7635,0.7679,0.797,0.7977,0.7651,0.7322,0.7193,0.6688,0.573,0.4843,0.4074,0.3658,3.8283,3.8056,3.7599,3.7216,3.6753,3.5703,3.4727,3.3976,3.3163,3.2643,3.2265,3.214,3.1967,3.1772,3.1242,3.0906,3.0822,2.9832,2.9186,2.8651,2.7814,2.7012,2.625,2.547,2.4667,2.4099,2.3529,2.2865,2.2127,2.1113,2.0296,2.0355,2.0202,1.9882,1.9692,1.9612,1.9191,1.8549,1.7945,1.7269,1.6603,1.5897,1.5376,1.4929,1.4697,1.4614,1.4593,1.4892,1.4436,1.3838,1.3999,1.3723,1.2935,1.2551,1.1997,1.0832,0.9947,0.8845,0.8157,0.7396,0.6484,0.5659,0.4835,0.4141,0.339,0.2961,0.2698,0.2514,0.2577,0.2676,0.2787,0.2854,0.3088,0.3277,0.3322,0.3368,0.3425,0.3481,0.3511,0.3482,0.3489,0.3489,0.3543,0.3652,0.3826,0.4027,0.4358,0.4771,0.4912,0.4929,0.4639,0.4493,0.4378,0.432,0.4141,0.3962,0.3965,0.4041,0.4329,0.4567,0.4983,0.5691,0.6372,0.6756,0.7124,0.7061,0.6995,0.6797,0.6669,0.641,0.6025,0.4975,0.396,0.3179,0.2952,3.7904,3.7726,3.719,3.6701,3.6309,3.5228,3.4165,3.3259,3.2588,3.2203,3.214,3.1967,3.1883,3.18,3.1186,3.0962,3.054,3.0002,2.9462,2.8756,2.7901,2.7303,2.659,2.5752,2.504,2.4414,2.3814,2.3136,2.2491,2.2001,2.1245,2.0897,2.0865,2.0509,2.0227,1.99,1.9185,1.8571,1.8191,1.7196,1.6195,1.5786,1.5264,1.4846,1.4614,1.4733,1.4767,1.4989,1.4697,1.4153,1.4333,1.3918,1.3084,1.2752,1.2222,1.1015,0.9475,0.8007,0.7483,0.6398,0.5442,0.4835,0.3965,0.3098,0.2794,0.2536,0.2272,0.2217,0.2263,0.2386,0.2451,0.2678,0.2913,0.3163,0.337,0.3418,0.3473,0.3515,0.3523,0.3489,0.3489,0.349,0.3495,0.361,0.3645,0.3738,0.3904,0.4207,0.4395,0.4272,0.4077,0.408,0.4082,0.4081,0.3962,0.3902,0.3909,0.3928,0.4049,0.4288,0.4655,0.5037,0.5359,0.5857,0.6465,0.6405,0.6144,0.6016,0.5952,0.5758,0.507,0.4017,0.3059,0.2334,0.1947,3.7419,3.7008,3.6933,3.6286,3.5179,3.424,3.3238,3.2368,3.2285,3.2113,3.1911,3.1911,3.1828,3.1717,3.1186,3.0878,3.0653,2.9718,2.9319,2.8832,2.7919,2.7291,2.659,2.5811,2.51,2.4444,2.3829,2.3286,2.2691,2.2343,2.2352,2.2251,2.1747,2.1283,2.0912,2.0472,1.9729,1.8815,1.8267,1.727,1.6157,1.5757,1.5298,1.4913,1.4704,1.4876,1.5013,1.5109,1.4808,1.4628,1.4508,1.388,1.3229,1.2609,1.1922,1.0863,0.935,0.7616,0.6401,0.5966,0.5012,0.3946,0.3151,0.2961,0.2696,0.2387,0.2152,0.2047,0.1789,0.1951,0.2215,0.2495,0.2782,0.314,0.3405,0.346,0.3515,0.3481,0.3487,0.3489,0.3489,0.3502,0.351,0.3481,0.3571,0.3621,0.3805,0.4044,0.4088,0.39,0.3901,0.3902,0.3902,0.3902,0.3902,0.3902,0.3915,0.389,0.395,0.4069,0.4332,0.4649,0.4939,0.5283,0.5816,0.5885,0.5624,0.5429,0.524,0.4552,0.3852,0.2902,0.206,0.1458,0.1191,3.7407,3.6644,3.6048,3.5523,3.5069,3.4079,3.3102,3.2341,3.2113,3.1994,3.1883,3.1856,3.1772,3.1426,3.1083,3.085,3.0521,2.9775,2.9376,2.9004,2.7977,2.7331,2.6623,2.5825,2.5304,2.4607,2.398,2.3659,2.3626,2.3027,2.3042,2.3159,2.2709,2.2176,2.1637,2.1018,2.018,1.9213,1.8304,1.7445,1.6455,1.5837,1.5464,1.5074,1.4973,1.5099,1.529,1.526,1.5095,1.4752,1.4504,1.4115,1.3235,1.2411,1.1624,1.0609,0.9181,0.753,0.5969,0.5273,0.4314,0.3287,0.3025,0.2878,0.2795,0.2238,0.1987,0.1771,0.1311,0.1419,0.1773,0.235,0.274,0.3148,0.3361,0.3473,0.352,0.3482,0.3489,0.3489,0.3493,0.3522,0.3489,0.3516,0.3558,0.363,0.3755,0.3795,0.3894,0.3901,0.3902,0.3902,0.3902,0.3902,0.3902,0.3902,0.3932,0.3917,0.397,0.4087,0.4219,0.4086,0.4366,0.4713,0.4775,0.4775,0.4842,0.4723,0.4279,0.3645,0.2815,0.1976,0.1178,0.084,0.0635,3.7358,3.6364,3.5776,3.5297,3.4788,3.3713,3.2862,3.2285,3.2002,3.1856,3.1856,3.1856,3.1669,3.1315,3.0999,3.0662,3.0276,2.9699,2.9129,2.8763,2.8213,2.7548,2.7052,2.642,2.5847,2.5293,2.4662,2.443,2.4521,2.3962,2.3927,2.3945,2.3542,2.3126,2.2575,2.1442,2.0508,1.9496,1.8525,1.7566,1.6492,1.6073,1.5676,1.5199,1.5226,1.5289,1.5416,1.539,1.5125,1.4714,1.4306,1.3723,1.2705,1.2017,1.1041,0.9701,0.883,0.7309,0.5923,0.462,0.3737,0.3246,0.2911,0.2935,0.294,0.2228,0.1914,0.1787,0.1465,0.1526,0.1687,0.2269,0.2715,0.3124,0.3335,0.3392,0.3467,0.3482,0.3489,0.3489,0.3489,0.3513,0.3546,0.3514,0.3664,0.3747,0.3792,0.3892,0.3901,0.3902,0.3902,0.3902,0.3902,0.3902,0.3902,0.3902,0.3925,0.3814,0.3874,0.3859,0.3652,0.3444,0.3594,0.3534,0.3534,0.3599,0.3533,0.3408,0.3167,0.2806,0.2037,0.1242,0.0,0.0,0.0,3.7363,3.6194,3.6106,3.5437,3.4358,3.2938,3.2408,3.2338,3.2108,3.1936,3.1904,3.178,3.1585,3.1298,3.1138,3.0724,3.0145,2.9617,2.917,2.8708,2.8392,2.7945,2.7518,2.7095,2.6465,2.631,2.5527,2.4888,2.495,2.4618,2.4429,2.4353,2.4331,2.412,2.3739,2.2033,2.069,1.98,1.8713,1.767,1.6756,1.6426,1.596,1.5541,1.5439,1.5447,1.5422,1.5346,1.4904,1.4411,1.3993,1.3104,1.1991,1.13,1.0172,0.87,0.796,0.6919,0.5716,0.4318,0.3496,0.3048,0.2968,0.2996,0.2992,0.2633,0.2215,0.2094,0.1764,0.183,0.2164,0.2508,0.2808,0.3119,0.3222,0.3319,0.3372,0.338,0.3434,0.3489,0.3489,0.3497,0.3535,0.3595,0.3707,0.3838,0.3885,0.3902,0.3902,0.3902,0.3902,0.3902,0.3902,0.3902,0.3902,0.3902,0.3761,0.3717,0.3591,0.319,0.2972,0.2867,0.2679,0.2355,0.2486,0.2813,0.2552,0.216,0.1848,0.1534,0.0954,0.0,0.0,0.0,0.0,3.7738,3.6515,3.5682,3.5084,3.4669,3.4209,3.3587,3.2879,3.2733,3.2423,3.1848,3.1565,3.1315,3.1195,3.1253,3.1099,3.0588,3.0317,3.0072,2.95,2.8788,2.8175,2.7673,2.7228,2.6735,2.5998,2.5426,2.534,2.5489,2.5221,2.5087,2.5059,2.498,2.4656,2.399,2.2683,2.1284,2.0326,1.9315,1.8325,1.7253,1.6851,1.6369,1.5893,1.554,1.5513,1.5465,1.5005,1.4573,1.398,1.3233,1.233,1.1338,1.0307,0.9354,0.831,0.7356,0.6401,0.5496,0.4446,0.3523,0.3104,0.3024,0.3059,0.2953,0.2631,0.2432,0.2307,0.1966,0.1781,0.2368,0.2313,0.2459,0.2768,0.2922,0.2943,0.2998,0.3216,0.3325,0.3491,0.3502,0.3511,0.3556,0.3621,0.3715,0.3775,0.3878,0.3902,0.3902,0.3902,0.3902,0.3902,0.3842,0.3842,0.3848,0.3454,0.3181,0.3121,0.2788,0.244,0.2204,0.2346,0.2224,0.157,0.1505,0.2028,0.1899,0.1443,0.0925,0.0334,0.0273,0.0,0.0,0.0,0.0,3.7778,3.6706,3.5849,3.535,3.5159,3.4805,3.4211,3.364,3.358,3.3258,3.2865,3.2498,3.2181,3.1981,3.2044,3.1649,3.1042,3.0913,3.0327,2.9781,2.9242,2.8553,2.7965,2.7434,2.6909,2.6467,2.5976,2.5871,2.596,2.5769,2.5759,2.5519,2.5177,2.4897,2.4205,2.3044,2.1824,2.0816,1.9939,1.8917,1.7924,1.7283,1.6663,1.5969,1.5532,1.5597,1.5305,1.4614,1.4106,1.3454,1.2502,1.1505,1.0518,0.9484,0.8484,0.7494,0.6621,0.5769,0.503,0.4281,0.3531,0.3197,0.3078,0.3102,0.3032,0.2846,0.2651,0.2561,0.2423,0.2456,0.275,0.2383,0.2052,0.2299,0.2433,0.2448,0.2561,0.2834,0.3053,0.339,0.3456,0.3481,0.3536,0.3653,0.3717,0.3774,0.3872,0.3902,0.3902,0.3902,0.3902,0.3902,0.3542,0.3482,0.3334,0.2999,0.2532,0.2258,0.1974,0.1546,0.1107,0.1307,0.0982,0.0523,0.0262,0.0196,0.0197,0.0394,0.0067,-0.0679,-0.0828,-0.056,-0.0282,0.0,0.0,3.7581,3.6734,3.6506,3.6206,3.5782,3.4936,3.4604,3.4484,3.4534,3.4403,3.4162,3.4012,3.3513,3.3235,3.2656,3.2161,3.1504,3.0904,3.0282,2.9754,2.9291,2.8844,2.8283,2.7935,2.7719,2.7211,2.662,2.6279,2.6254,2.6055,2.5928,2.568,2.5289,2.4911,2.4359,2.35,2.2403,2.1874,2.0635,1.9515,1.8358,1.7601,1.6763,1.5877,1.5647,1.547,1.4585,1.4063,1.354,1.2858,1.1825,1.0757,0.9745,0.8764,0.7698,0.6774,0.5943,0.5286,0.459,0.3929,0.3491,0.3221,0.3102,0.3086,0.3096,0.3095,0.3102,0.3015,0.296,0.3105,0.3055,0.2841,0.2291,0.2211,0.1954,0.1907,0.1962,0.229,0.2842,0.3287,0.3481,0.3523,0.3575,0.3711,0.3779,0.3805,0.3901,0.3902,0.3902,0.3722,0.3722,0.3602,0.3182,0.2899,0.2808,0.2347,0.1809,0.1391,0.0962,0.0454,0.0,-0.0523,-0.0785,-0.1047,-0.0982,-0.1572,-0.1903,-0.1528,-0.1416,-0.1928,-0.1885,-0.1264,-0.0918,-0.0638,0.0,3.7697,3.7025,3.6929,3.6885,3.6781,3.6547,3.6033,3.548,3.5409,3.5036,3.4503,3.4192,3.3767,3.3215,3.31,3.2636,3.1966,3.1877,3.1212,3.0359,2.9764,2.901,2.8335,2.7704,2.741,2.6932,2.6629,2.6346,2.6226,2.6183,2.6048,2.5658,2.5319,2.5122,2.478,2.4016,2.3483,2.3203,2.1793,2.0122,1.8736,1.8111,1.7066,1.6174,1.5504,1.5042,1.4142,1.3553,1.2698,1.1972,1.1078,1.0148,0.9021,0.806,0.7062,0.6186,0.5438,0.4765,0.411,0.363,0.3312,0.3126,0.3091,0.3096,0.3152,0.3188,0.3259,0.3259,0.3312,0.3368,0.3259,0.2541,0.2147,0.1841,0.1471,0.1308,0.1308,0.1914,0.2522,0.2929,0.3243,0.3395,0.3639,0.3774,0.3812,0.3896,0.3902,0.3902,0.3662,0.3362,0.3302,0.3062,0.2647,0.218,0.1962,0.1553,0.1008,0.051,-0.0129,-0.0652,-0.1241,-0.1766,-0.2094,-0.2028,-0.1898,-0.2367,-0.2923,-0.2961,-0.3,-0.2839,-0.2596,-0.1975,-0.1486,-0.1134,0.0,3.7466,3.7123,3.7123,3.7123,3.7123,3.7123,3.6809,3.6438,3.6378,3.6084,3.5577,3.5228,3.481,3.4304,3.3515,3.3027,3.2411,3.1761,3.1169,3.0382,2.9454,2.8742,2.8146,2.7495,2.7073,2.677,2.6452,2.619,2.609,2.6117,2.5998,2.5597,2.5522,2.557,2.5314,2.4447,2.4416,2.4081,2.285,2.0912,1.9271,1.812,1.7058,1.5777,1.4999,1.4402,1.3701,1.3172,1.2283,1.15,1.0454,0.9591,0.849,0.7313,0.6426,0.557,0.491,0.422,0.3618,0.3286,0.3139,0.3092,0.3094,0.3157,0.3189,0.323,0.3318,0.332,0.337,0.3413,0.3286,0.2407,0.1943,0.1465,0.0981,0.0872,0.0982,0.1643,0.2158,0.2574,0.2946,0.3353,0.3716,0.3755,0.3769,0.3782,0.3782,0.3662,0.3302,0.3062,0.2822,0.2522,0.1992,0.1399,0.0987,0.0626,-0.0063,-0.0708,-0.137,-0.1633,-0.2289,-0.2748,-0.2944,-0.2944,-0.3075,-0.3308,-0.3697,-0.3873,-0.4048,-0.3686,-0.3313,-0.2968,-0.2619,-0.2127,-0.1207,3.7176,3.7123,3.7123,3.7123,3.7123,3.7123,3.7123,3.7083,3.7043,3.7111,3.6741,3.6525,3.6044,3.5359,3.4111,3.3266,3.2409,3.146,3.0535,2.988,2.8982,2.832,2.7846,2.7158,2.6891,2.6629,2.6382,2.6055,2.6104,2.636,2.6129,2.5714,2.5936,2.6094,2.5723,2.4989,2.4886,2.4908,2.3462,2.162,1.9817,1.8216,1.6804,1.558,1.46,1.3935,1.3508,1.2691,1.1947,1.1356,1.0166,0.909,0.808,0.6647,0.5793,0.502,0.432,0.3585,0.324,0.3094,0.3094,0.3094,0.3107,0.3183,0.327,0.332,0.331,0.332,0.3429,0.3521,0.3323,0.2432,0.1902,0.1418,0.082,0.0438,0.0549,0.1054,0.163,0.2104,0.2141,0.2773,0.3401,0.3533,0.3662,0.3662,0.3602,0.3242,0.2942,0.2761,0.2521,0.1866,0.1209,0.0368,-0.0124,-0.0631,-0.1281,-0.1952,-0.2288,-0.2486,-0.3141,-0.373,-0.3861,-0.4252,-0.4385,-0.4613,-0.4902,-0.5048,-0.504,-0.4817,-0.4372,-0.4034,-0.3684,-0.2695,-0.1704,3.7305,3.7123,3.7123,3.7123,3.7123,3.7123,3.7123,3.7123,3.7123,3.6949,3.6657,3.6234,3.5762,3.5136,3.4389,3.3356,3.1885,3.1185,3.0201,2.9418,2.8704,2.8051,2.758,2.7053,2.6759,2.661,2.6375,2.634,2.6441,2.6637,2.644,2.6191,2.6101,2.6214,2.6138,2.5516,2.5292,2.4841,2.3677,2.2225,2.0701,1.8811,1.6998,1.5706,1.4874,1.3996,1.3345,1.24,1.1529,1.0646,0.9722,0.8714,0.7736,0.6683,0.5539,0.4344,0.3624,0.3289,0.3143,0.3144,0.3103,0.3106,0.3189,0.3265,0.33,0.3345,0.3338,0.3436,0.3487,0.3519,0.3355,0.2447,0.1853,0.153,0.0772,0.0,0.0,0.0564,0.1142,0.1452,0.1359,0.179,0.2394,0.2641,0.2761,0.2821,0.2821,0.2521,0.2281,0.2161,0.1682,0.1025,0.0243,-0.0617,-0.1443,-0.191,-0.2649,-0.3332,-0.3531,-0.3728,-0.4187,-0.4646,-0.5235,-0.5691,-0.5829,-0.5884,-0.6114,-0.6284,-0.582,-0.5466,-0.5365,-0.4819,-0.4038,-0.3119,-0.2419,3.737,3.7156,3.7123,3.7123,3.7123,3.7123,3.7123,3.7111,3.6897,3.6722,3.6429,3.6005,3.5466,3.5,3.4575,3.3651,3.2395,3.1506,3.0578,2.9664,2.9051,2.8507,2.8006,2.7655,2.7246,2.6902,2.6769,2.6789,2.6588,2.6796,2.6685,2.6504,2.6688,2.6686,2.6423,2.5935,2.5498,2.4755,2.3574,2.2238,2.1147,1.9499,1.7557,1.6034,1.4721,1.3869,1.3162,1.2273,1.1153,1.0263,0.9362,0.8252,0.707,0.5994,0.5001,0.4072,0.3436,0.3094,0.3094,0.3223,0.3184,0.324,0.3287,0.3329,0.3364,0.339,0.3436,0.3485,0.3481,0.3489,0.3489,0.2451,0.1861,0.1543,0.0722,0.0,0.0,0.0,0.0757,0.1242,0.1133,0.1257,0.1681,0.1801,0.1921,0.1981,0.1981,0.1801,0.1561,0.1141,0.06,-0.006,-0.073,-0.1796,-0.2848,-0.3467,-0.4232,-0.4637,-0.4903,-0.5099,-0.5427,-0.5493,-0.6081,-0.6937,-0.7205,-0.7199,-0.7306,-0.7129,-0.647,-0.5921,-0.5657,-0.5244,-0.4392,-0.3693,-0.3283,3.7706,3.7567,3.7534,3.7534,3.7587,3.7554,3.7635,3.7489,3.73,3.695,3.6844,3.6222,3.5737,3.5192,3.4789,3.3957,3.2825,3.1648,3.0826,3.012,2.9374,2.891,2.843,2.8115,2.7918,2.7665,2.7556,2.7171,2.683,2.6846,2.6925,2.6802,2.7101,2.7051,2.6667,2.6237,2.5606,2.4698,2.3419,2.2233,2.1125,1.9727,1.8144,1.6316,1.4529,1.3723,1.3341,1.2243,1.0977,1.0116,0.9015,0.7594,0.6222,0.5212,0.4492,0.3811,0.3328,0.3143,0.3145,0.3273,0.329,0.3308,0.3348,0.3403,0.3488,0.3516,0.3488,0.3527,0.3486,0.3489,0.3434,0.2452,0.1868,0.1446,0.0,0.0,0.0,0.0,0.0355,0.0716,0.0838,0.09,0.102,0.1201,0.1141,0.1141,0.1141,0.096,0.06,0.012,-0.036,-0.1026,-0.1765,-0.2989,-0.42,-0.4832,-0.5415,-0.5816,-0.5883,-0.6014,-0.634,-0.6405,-0.7067,-0.8131,-0.8591,-0.8436,-0.8215,-0.7984,-0.746,-0.6842,-0.6224,-0.5598,-0.4973,-0.4348,-0.394,3.9166,3.9258,3.9258,3.9278,3.9258,3.9217,3.9157,3.9129,3.8865,3.8323,3.8193,3.7442,3.6548,3.6035,3.5382,3.4393,3.3144,3.1716,3.0723,3.0179,2.9345,2.8941,2.8736,2.8517,2.8337,2.8394,2.8285,2.7897,2.7373,2.7272,2.722,2.727,2.7413,2.7175,2.6712,2.6233,2.5701,2.4648,2.3366,2.2192,2.1138,1.98,1.8361,1.6596,1.4815,1.3915,1.3513,1.2143,1.0721,1.008,0.8669,0.691,0.5462,0.4719,0.4419,0.347,0.3353,0.3265,0.327,0.3287,0.3352,0.3303,0.3407,0.3498,0.3518,0.3497,0.3524,0.3485,0.3489,0.3489,0.3434,0.2512,0.1927,0.1562,0.068,0.0,0.0,0.0,0.0,0.0,0.0,0.0,0.0,0.0,0.0,0.024,0.024,0.006,-0.042,-0.09,-0.126,-0.1807,-0.2872,-0.4055,-0.4994,-0.5632,-0.6385,-0.6601,-0.6536,-0.6865,-0.7256,-0.7588,-0.8186,-0.9258,-0.9745,-0.9599,-0.9325,-0.8917,-0.8393,-0.7826,-0.7153,-0.6377,-0.5692,-0.5008,-0.4771,3.9989,3.9639,3.9605,3.9605,3.9605,3.9605,3.9605,3.9556,3.9108,3.8778,3.8482,3.7526,3.6833,3.6316,3.5739,3.4995,3.3893,3.2718,3.1618,3.0594,2.9956,2.9462,2.9348,2.9212,2.9049,2.8908,2.8721,2.8273,2.781,2.751,2.7452,2.7426,2.7697,2.7438,2.6799,2.6857,2.6095,2.4857,2.3589,2.2338,2.1167,1.9934,1.8572,1.6922,1.51,1.4015,1.3822,1.1978,1.062,0.9645,0.8635,0.7221,0.5669,0.5089,0.4652,0.3889,0.356,0.3311,0.3324,0.3339,0.3413,0.3414,0.3468,0.3492,0.3511,0.3524,0.3489,0.3489,0.3489,0.3489,0.3437,0.2687,0.2116,0.1752,0.0976,0.035,0.0,0.0,0.0,0.0,0.0,0.0,0.0,0.0,0.0,0.0,-0.012,-0.048,-0.102,-0.174,-0.21,-0.2831,-0.3917,-0.4973,-0.585,-0.6644,-0.7419,-0.7713,-0.7779,-0.817,-0.8891,-0.9291,-0.9502,-0.9878,-1.038,-1.0293,-1.027,-0.98,-0.9302,-0.8628,-0.7934,-0.7155,-0.6401,-0.5746,-0.545,4.0745,4.0243,4.0222,4.0243,4.0207,4.0243,4.0192,4.0091,3.9529,3.9326,3.8888,3.7827,3.714,3.6741,3.6172,3.5399,3.4476,3.3828,3.2959,3.1457,3.0839,3.0356,3.0099,2.9895,2.9709,2.9304,2.8898,2.8572,2.8255,2.7963,2.7743,2.7856,2.8213,2.7972,2.7357,2.7397,2.6785,2.5287,2.4059,2.2799,2.1541,2.0375,1.899,1.7336,1.5653,1.4596,1.3773,1.2018,1.0598,0.9713,0.8792,0.7677,0.6298,0.5554,0.5051,0.4484,0.4025,0.3723,0.357,0.3661,0.3635,0.3531,0.3512,0.3489,0.3489,0.3489,0.3489,0.3489,0.3489,0.3489,0.3439,0.3044,0.2528,0.1997,0.1391,0.0766,0.0,0.0,0.0,0.0,0.0,0.0,0.0,0.0,0.0,0.0,-0.06,-0.102,-0.174,-0.246,-0.3119,-0.3777,-0.5007,-0.6425,-0.7263,-0.8071,-0.877,-0.9279,-0.9478,-0.9869,-1.0978,-1.1575,-1.1437,-1.1371,-1.1275,-1.1205,-1.1245,-1.0775,-1.0166,-0.9405,-0.8714,-0.7934,-0.7253,-0.6562,-0.6127,4.2068,4.2072,4.2072,4.2108,4.1991,4.2088,4.1651,4.1479,4.0974,4.0586,4.0065,3.9054,3.8134,3.7858,3.6681,3.5635,3.4431,3.4019,3.2959,3.1867,3.1066,3.0615,3.0497,3.0257,2.9933,2.9635,2.9359,2.9158,2.9012,2.8881,2.8837,2.8955,2.9021,2.8765,2.8325,2.7863,2.7125,2.6053,2.4814,2.3482,2.2301,2.0925,1.9506,1.8015,1.6902,1.5856,1.4183,1.2328,1.1112,1.0723,0.9185,0.7995,0.6964,0.6214,0.5667,0.5152,0.4984,0.4697,0.4336,0.4219,0.402,0.3691,0.3589,0.3489,0.3543,0.3598,0.3543,0.3489,0.3489,0.3489,0.3441,0.304,0.2696,0.2459,0.1628,0.1062,0.0896,0.09,0.066,0.0,0.0,0.0,0.0,0.0,-0.018,-0.054,-0.096,-0.1501,-0.2281,-0.3119,-0.3957,-0.4683,-0.6055,-0.7629,-0.8552,-0.9374,-1.006,-1.0847,-1.1108,-1.1564,-1.2675,-1.3123,-1.3189,-1.3193,-1.281,-1.2575,-1.2365,-1.1763,-1.1008,-1.0267,-0.9492,-0.8782,-0.8092,-0.7492,-0.7083,4.2868,4.2686,4.2464,4.2353,4.2353,4.2151,4.1945,4.1705,4.1164,4.0751,4.0356,3.922,3.8458,3.7996,3.6894,3.5654,3.4484,3.4004,3.3117,3.1987,3.1497,3.1276,3.1092,3.0959,3.083,3.0781,3.0571,3.0317,3.0183,2.9925,2.9917,2.9953,3.004,2.9744,2.9269,2.8821,2.8112,2.7038,2.5683,2.4265,2.3013,2.1651,2.0248,1.8885,1.7986,1.7023,1.5421,1.3205,1.1945,1.1616,1.0431,0.9218,0.8374,0.7524,0.6794,0.6258,0.586,0.5506,0.4961,0.4852,0.4743,0.458,0.4525,0.4308,0.4034,0.3925,0.3761,0.3598,0.3489,0.3489,0.3439,0.3291,0.3067,0.2798,0.2343,0.1965,0.1559,0.1261,0.066,0.0,0.0,0.0,0.0,0.0,0.0,-0.084,-0.1261,-0.1981,-0.2821,-0.3777,-0.4679,-0.5558,-0.6743,-0.8158,-0.9277,-1.0287,-1.1141,-1.2211,-1.2671,-1.2996,-1.375,-1.4226,-1.4351,-1.44,-1.4187,-1.3955,-1.3688,-1.3256,-1.2315,-1.133,-1.0341,-0.9648,-0.9132,-0.8579,-0.8323,4.3327,4.2887,4.2538,4.2353,4.2316,4.1982,4.1742,4.1556,4.0939,4.0563,4.0242,3.9201,3.8458,3.7996,3.6877,3.5654,3.4579,3.4004,3.3173,3.2192,3.2331,3.2453,3.2232,3.1944,3.1882,3.1929,3.1501,3.1324,3.1348,3.1043,3.0934,3.097,3.1072,3.0841,3.0339,2.9899,2.9155,2.7945,2.6678,2.5407,2.4012,2.2816,2.1494,2.0116,1.9089,1.7987,1.6679,1.4643,1.3543,1.3521,1.1992,1.0658,0.9938,0.8865,0.8051,0.7668,0.7131,0.6535,0.6051,0.5833,0.5615,0.5506,0.5236,0.5072,0.4525,0.4525,0.4362,0.409,0.3925,0.3925,0.3764,0.3726,0.3506,0.3085,0.3219,0.3039,0.2337,0.1621,0.096,0.036,0.0,0.0,0.0,0.0,0.0,-0.1081,-0.1681,-0.2221,-0.3241,-0.4258,-0.5155,-0.611,-0.7416,-0.8818,-1.0023,-1.1132,-1.2314,-1.3378,-1.3971,-1.4166,-1.4807,-1.526,-1.5385,-1.5397,-1.5147,-1.492,-1.4735,-1.4492,-1.3659,-1.2745,-1.1753,-1.0771,-1.0277,-0.967,-0.9357,4.3348,4.2923,4.2518,4.239,4.2316,4.1945,4.1593,4.1239,4.0789,4.0412,3.9997,3.918,3.8549,3.7937,3.7083,3.5908,3.4573,3.4205,3.3513,3.3136,3.3612,3.4014,3.3602,3.2955,3.2659,3.2561,3.2144,3.1966,3.2092,3.1987,3.2086,3.2082,3.2087,3.1903,3.1386,3.0887,2.996,2.8835,2.8001,2.6877,2.5461,2.433,2.3244,2.2199,2.0651,1.9174,1.7956,1.6991,1.6428,1.5952,1.3875,1.2281,1.1208,1.0069,0.9527,0.9418,0.8875,0.8278,0.7683,0.7193,0.6756,0.6263,0.5833,0.5181,0.5399,0.5397,0.5288,0.507,0.507,0.4856,0.4437,0.4363,0.427,0.3832,0.4202,0.3968,0.2995,0.2281,0.1561,0.096,0.042,0.0,0.0,0.0,0.0,-0.1381,-0.1861,-0.2461,-0.3481,-0.4559,-0.5517,-0.6789,-0.8245,-0.9339,-1.0036,-1.1269,-1.2979,-1.4036,-1.4686,-1.527,-1.6009,-1.6224,-1.6342,-1.62,-1.595,-1.574,-1.5549,-1.5248,-1.4641,-1.38,-1.2953,-1.2177,-1.1416,-1.0699,-1.0393,4.3693,4.3291,4.2944,4.2612,4.2316,4.1667,4.1331,4.1107,4.0544,4.0186,4.0035,3.9683,3.9303,3.8746,3.8039,3.7123,3.6244,3.5492,3.4851,3.444,3.4631,3.4544,3.4309,3.3859,3.3519,3.328,3.3085,3.3034,3.3036,3.305,3.3058,3.3058,3.2886,3.2639,3.2424,3.1717,3.1119,3.0502,2.937,2.8376,2.7398,2.602,2.4877,2.4049,2.2467,2.1113,2.018,2.024,1.9619,1.8162,1.7184,1.568,1.4015,1.2561,1.1587,1.1204,1.0662,0.991,0.8987,0.878,0.8332,0.7891,0.7568,0.7299,0.6921,0.6813,0.6432,0.5939,0.578,0.5527,0.5138,0.5071,0.5257,0.5446,0.5476,0.5002,0.4189,0.318,0.222,0.1261,0.078,0.042,0.0,0.0,0.0,-0.1141,-0.1681,-0.2341,-0.3301,-0.4739,-0.5397,-0.6395,-0.8368,-0.9659,-1.022,-1.1734,-1.3538,-1.4491,-1.5335,-1.6113,-1.6567,-1.6707,-1.6845,-1.6659,-1.6795,-1.6591,-1.6408,-1.61,-1.5627,-1.4852,-1.4011,-1.338,-1.285,-1.2035,-1.1833,4.4094,4.3657,4.3181,4.2796,4.2464,4.1593,4.1239,4.1146,4.0681,4.0338,4.0279,4.035,4.0108,3.9574,3.8825,3.8119,3.7505,3.6916,3.6513,3.6127,3.5509,3.5282,3.5127,3.4913,3.4504,3.412,3.3783,3.3633,3.3633,3.3633,3.3647,3.3601,3.3342,3.3212,3.3233,3.2692,3.2189,3.1943,3.1048,3.0184,2.9336,2.8043,2.6959,2.6164,2.4552,2.3486,2.3212,2.3433,2.2434,2.0242,1.993,1.8799,1.6619,1.4897,1.3844,1.3414,1.2819,1.1873,1.0993,1.0627,1.0263,0.9756,0.9382,0.9093,0.8712,0.8441,0.7952,0.7351,0.7008,0.672,0.6358,0.6192,0.6429,0.7179,0.673,0.6169,0.5457,0.4317,0.2939,0.162,0.1081,0.072,0.0,0.0,0.0,-0.096,-0.1561,-0.2161,-0.3061,-0.4619,-0.5754,-0.607,-0.8301,-1.0079,-1.0851,-1.208,-1.3637,-1.463,-1.5659,-1.6627,-1.6692,-1.6728,-1.6956,-1.7061,-1.7374,-1.7412,-1.7308,-1.6963,-1.6541,-1.5842,-1.5138,-1.4654,-1.4243,-1.3953,-1.372,4.4493,4.4021,4.3254,4.2981,4.2759,4.1742,4.1239,4.1303,4.1178,4.1037,4.0834,4.1066,4.0931,4.0298,3.9302,3.8422,3.8168,3.8045,3.7906,3.7717,3.6873,3.6428,3.6278,3.5847,3.5383,3.4931,3.4101,3.3647,3.3647,3.3647,3.3647,3.3647,3.363,3.3726,3.3821,3.3771,3.3429,3.2975,3.2935,3.2356,3.0998,3.0242,2.9346,2.8285,2.6841,2.6126,2.6474,2.6073,2.4818,2.2806,2.2009,2.0555,1.8641,1.7029,1.6122,1.5986,1.5225,1.45,1.3751,1.3027,1.2317,1.1745,1.0998,1.0715,1.0509,1.0065,0.9683,0.938,0.9079,0.8659,0.8205,0.7985,0.8058,0.8421,0.8074,0.7428,0.6715,0.5634,0.4137,0.246,0.144,0.078,0.0,0.0,0.0,-0.084,-0.1501,-0.2161,-0.2821,-0.4499,-0.5634,-0.6326,-0.8103,-0.9941,-1.1194,-1.2418,-1.3598,-1.476,-1.5854,-1.6627,-1.6627,-1.6767,-1.6913,-1.7525,-1.7847,-1.8241,-1.8072,-1.8221,-1.7665,-1.7174,-1.6405,-1.5772,-1.5381,-1.5023,-1.5012,4.5359,4.4457,4.3693,4.3201,4.285,4.1982,4.1758,4.1946,4.1737,4.1709,4.1898,4.1977,4.1897,4.1597,4.0548,3.9988,3.9816,3.9238,3.8681,3.8075,3.7403,3.6748,3.6164,3.5669,3.5127,3.4615,3.392,3.3647,3.3647,3.3647,3.3647,3.3689,3.4087,3.4292,3.4477,3.4855,3.5036,3.4672,3.4172,3.3688,3.309,3.1892,3.0787,3.0164,2.9904,2.9383,2.8391,2.8182,2.7082,2.5134,2.4606,2.3611,2.1649,1.9855,1.8922,1.8761,1.7438,1.6347,1.572,1.4981,1.4376,1.3803,1.3509,1.3139,1.2753,1.2585,1.203,1.1419,1.1083,1.0657,1.0034,1.0389,1.0721,1.0468,0.9941,0.8982,0.755,0.6949,0.5814,0.4137,0.2639,0.15,0.0,0.03,0.0,-0.024,-0.1261,-0.1921,-0.2521,-0.4198,-0.5814,-0.607,-0.8236,-0.9734,-1.0564,-1.231,-1.3815,-1.463,-1.5535,-1.6178,-1.6497,-1.6627,-1.6986,-1.7765,-1.8315,-1.8703,-1.9025,-1.9351,-1.9063,-1.8578,-1.7876,-1.7174,-1.664,-1.6124,-1.6184,4.5896,4.5071,4.413,4.351,4.3148,4.2678,4.2419,4.2414,4.2665,4.2823,4.2787,4.2811,4.2699,4.2506,4.1666,4.112,4.0728,3.9868,3.8975,3.8103,3.7537,3.6822,3.5969,3.5443,3.4901,3.4402,3.3888,3.3647,3.3661,3.3888,3.3988,3.4073,3.4659,3.5053,3.5365,3.5797,3.607,3.5994,3.5481,3.4906,3.4381,3.3266,3.2442,3.212,3.2248,3.1627,3.0123,3.0071,2.9174,2.7144,2.7039,2.6265,2.4551,2.3187,2.228,2.1637,2.0298,1.9098,1.8175,1.7469,1.6723,1.6028,1.5839,1.5483,1.4882,1.4548,1.4146,1.3423,1.3063,1.2868,1.2641,1.3311,1.3514,1.2689,1.191,1.0892,0.94,0.8325,0.7428,0.5932,0.3957,0.2219,0.12,0.042,0.0,0.0,-0.1141,-0.1801,-0.234,-0.4137,-0.5814,-0.6261,-0.8167,-1.0079,-1.0082,-1.2119,-1.3837,-1.4496,-1.5215,-1.5919,-1.6497,-1.6692,-1.7209,-1.7921,-1.8328,-1.8733,-1.9735,-1.9974,-1.9974,-1.9553,-1.9413,-1.8783,-1.8227,-1.8324,-1.8006,4.6253,4.5753,4.4696,4.3948,4.3536,4.3635,4.3259,4.2628,4.3906,4.4022,4.3386,4.3424,4.3346,4.2916,4.2398,4.1721,4.0815,4.0,3.9107,3.8164,3.7642,3.6866,3.5924,3.5443,3.4931,3.4402,3.3874,3.3647,3.3689,3.4243,3.4584,3.4716,3.5299,3.5911,3.6366,3.6551,3.6643,3.6756,3.66,3.617,3.5174,3.4548,3.4228,3.4087,3.3741,3.2879,3.1886,3.1743,3.0954,2.9331,2.9226,2.8507,2.7038,2.6679,2.5963,2.4583,2.3576,2.243,2.1207,2.0298,1.9356,1.8291,1.7939,1.7483,1.6807,1.6301,1.5896,1.5624,1.4979,1.5101,1.6119,1.6229,1.5712,1.4589,1.3871,1.2919,1.1616,0.9941,0.8567,0.7428,0.5513,0.3478,0.15,0.048,0.0,0.0,-0.1141,-0.1981,-0.234,-0.4198,-0.5577,-0.633,-0.8036,-1.0079,-1.0293,-1.1927,-1.3478,-1.4301,-1.495,-1.5789,-1.6308,-1.6874,-1.7454,-1.8016,-1.8473,-1.913,-2.0076,-2.0534,-2.0674,-2.061,-2.047,-2.0114,-1.9629,-2.0114,-1.9968,4.6665,4.6239,4.5646,4.4674,4.3593,4.3977,4.3849,4.3546,4.4481,4.474,4.4437,4.4171,4.3837,4.3365,4.2909,4.226,4.1347,4.0745,3.978,3.8559,3.8087,3.7211,3.6014,3.5428,3.4931,3.4417,3.3888,3.3647,3.3718,3.4286,3.4811,3.5356,3.5939,3.6401,3.66,3.7056,3.7305,3.7259,3.6882,3.6577,3.6258,3.5671,3.5161,3.4752,3.4241,3.3677,3.2982,3.2982,3.2351,3.1058,3.1006,3.0533,2.962,2.9177,2.842,2.7434,2.591,2.4544,2.3353,2.2855,2.2119,2.101,2.0827,2.0239,1.9315,1.8907,1.8382,1.7733,1.7984,1.8445,1.8843,1.814,1.7306,1.6472,1.5884,1.4816,1.3097,1.2029,1.0594,0.8567,0.6952,0.5275,0.3358,0.1739,0.054,0.0,-0.1081,-0.1981,-0.2281,-0.4078,-0.5814,-0.5942,-0.8236,-0.9872,-1.0227,-1.1735,-1.2951,-1.3776,-1.4496,-1.521,-1.5854,-1.6497,-1.7112,-1.8205,-1.8894,-1.9674,-2.0541,-2.1449,-2.1945,-2.1811,-2.1392,-2.0826,-2.061,-2.0464,-2.0435,4.6948,4.6453,4.6204,4.5309,4.4147,4.439,4.4414,4.4276,4.4862,4.5127,4.5163,4.4734,4.4179,4.3537,4.3322,4.2607,4.1583,4.1051,4.0175,3.9002,3.8326,3.745,3.6224,3.5473,3.4931,3.4417,3.4146,3.4016,3.413,3.4655,3.5342,3.5968,3.6594,3.6907,3.6999,3.7327,3.7512,3.7512,3.7222,3.7084,3.6969,3.618,3.562,3.5263,3.4599,3.4023,3.3779,3.3728,3.342,3.2803,3.27,3.2538,3.2165,3.1747,3.1183,3.0499,2.914,2.756,2.5736,2.499,2.4159,2.2929,2.2871,2.2426,2.1303,2.0972,2.0913,2.0736,2.1031,2.109,2.0729,1.9912,1.8968,1.843,1.8016,1.7064,1.5108,1.4163,1.274,1.0419,0.8629,0.6774,0.4916,0.3238,0.1799,0.048,-0.102,-0.1921,-0.21,-0.4198,-0.5634,-0.6197,-0.8234,-0.9868,-1.023,-1.1547,-1.2756,-1.3516,-1.4106,-1.4825,-1.5664,-1.6308,-1.7112,-1.8255,-1.8726,-1.9476,-2.078,-2.1373,-2.1659,-2.1525,-2.1106,-2.0972,-2.0826,-2.0826,-2.068,4.7253,4.6594,4.6559,4.5882,4.4853,4.4876,4.4814,4.4749,4.5004,4.5273,4.5494,4.5087,4.4366,4.369,4.3537,4.2891,4.1757,4.1077,4.0351,3.9471,3.8548,3.7568,3.6582,3.5654,3.4977,3.4566,3.4596,3.4621,3.457,3.5299,3.5954,3.6523,3.7213,3.7498,3.7498,3.7512,3.7512,3.7512,3.7512,3.7512,3.7475,3.6383,3.5759,3.5759,3.479,3.4241,3.4177,3.4241,3.4228,3.4279,3.4228,3.4292,3.4382,3.4241,3.3933,3.3485,3.2667,3.1178,2.8666,2.7231,2.6017,2.4709,2.4503,2.4151,2.3391,2.2847,2.3206,2.4198,2.3756,2.2969,2.2324,2.1678,2.1023,2.0494,2.0265,1.9492,1.7708,1.6359,1.4827,1.2923,1.0415,0.8148,0.6413,0.4796,0.3237,0.162,-0.024,-0.1621,-0.204,-0.4078,-0.5636,-0.6278,-0.8052,-0.9688,-1.0267,-1.1502,-1.257,-1.3317,-1.4041,-1.4695,-1.5345,-1.6139,-1.6959,-1.7799,-1.8339,-1.8829,-1.9751,-2.0322,-2.0362,-2.0559,-2.0595,-2.0574,-2.1112,-2.1188,-2.0972,4.7803,4.7323,4.7041,4.6417,4.5553,4.5099,4.4484,4.3948,4.4729,4.5148,4.5159,4.4704,4.434,4.4099,4.3708,4.3254,4.2563,4.1399,4.0509,3.9972,3.8725,3.7747,3.7074,3.6209,3.5533,3.505,3.5148,3.4972,3.4773,3.5769,3.6395,3.6565,3.7213,3.7512,3.7512,3.7512,3.7512,3.7512,3.7512,3.7512,3.7475,3.6369,3.5759,3.5708,3.4726,3.4241,3.4241,3.4241,3.4381,3.4766,3.4817,3.5161,3.5898,3.5613,3.5348,3.5129,3.4268,3.3378,3.2569,3.1033,2.9386,2.7732,2.7096,2.6589,2.6046,2.6169,2.6512,2.6721,2.5761,2.5008,2.4716,2.3789,2.3028,2.2844,2.2089,2.1141,2.0141,1.8548,1.6785,1.4822,1.2374,1.0057,0.8145,0.6052,0.4317,0.3118,0.1079,-0.078,-0.192,-0.3717,-0.5244,-0.6095,-0.7432,-0.8918,-1.0182,-1.1114,-1.1932,-1.2736,-1.3386,-1.4036,-1.4755,-1.547,-1.6306,-1.7183,-1.78,-1.8278,-1.8767,-1.9339,-1.9768,-1.9934,-1.9895,-2.0167,-2.0468,-2.0586,-2.0528,4.8234,4.7838,4.7464,4.6948,4.6354,4.5628,4.4892,4.4256,4.4353,4.4395,4.4355,4.4354,4.4232,4.4079,4.3926,4.3537,4.2909,4.1878,4.1094,4.0438,3.9284,3.8354,3.7642,3.6658,3.5999,3.5533,3.5656,3.5739,3.5806,3.6525,3.706,3.7362,3.7442,3.7512,3.7512,3.7512,3.7512,3.7512,3.7512,3.7512,3.7512,3.6383,3.5759,3.5759,3.4739,3.4241,3.4241,3.4241,3.4586,3.5314,3.5606,3.6217,3.7267,3.7012,3.6706,3.6492,3.5592,3.483,3.4359,3.3184,3.18,3.0065,2.9368,2.9286,3.0056,2.9643,2.9214,2.8911,2.7432,2.6544,2.6544,2.5677,2.5016,2.5075,2.4198,2.3379,2.2609,2.1023,1.9086,1.7194,1.4816,1.2378,1.0176,0.7966,0.6111,0.4435,0.2997,0.0959,-0.12,-0.2878,-0.4339,-0.5507,-0.7077,-0.8502,-0.9645,-1.0489,-1.1285,-1.1955,-1.2667,-1.3386,-1.4036,-1.4755,-1.5558,-1.6399,-1.6781,-1.7274,-1.7834,-1.8277,-1.853,-1.8733,-1.8818,-1.8851,-1.9175,-1.9463,-1.9318,4.8651,4.8257,4.792,4.7499,4.6971,4.6346,4.5579,4.4801,4.4065,4.3633,4.3587,4.4035,4.4044,4.3664,4.4079,4.3817,4.2961,4.2423,4.1765,4.099,3.9928,3.9063,3.8237,3.724,3.6523,3.606,3.6269,3.6574,3.6979,3.7287,3.767,3.8051,3.7822,3.7613,3.7526,3.7512,3.7512,3.7512,3.7512,3.7512,3.7512,3.6383,3.5759,3.5708,3.4739,3.4241,3.4228,3.415,3.457,3.5573,3.6047,3.6912,3.8114,3.8159,3.7961,3.7575,3.6979,3.616,3.5227,3.4757,3.3844,3.2293,3.1536,3.2098,3.4121,3.2689,3.1447,3.1006,2.9384,2.8151,2.7955,2.7463,2.7013,2.6916,2.6412,2.5811,2.5087,2.3506,2.1736,1.9853,1.7371,1.4881,1.2438,1.0233,0.8086,0.5932,0.4495,0.2937,0.036,-0.1499,-0.2895,-0.471,-0.6517,-0.7999,-0.901,-0.9785,-1.0446,-1.1166,-1.1955,-1.2675,-1.3321,-1.4036,-1.4751,-1.5578,-1.579,-1.6068,-1.6685,-1.6896,-1.6891,-1.6994,-1.701,-1.7088,-1.7311,-1.779,-1.7658,4.895,4.8662,4.8593,4.799,4.7019,4.69,4.6041,4.4711,4.4544,0.0,0.0,4.3653,4.3547,4.3331,4.3645,4.3567,4.308,4.2473,4.2069,4.1895,4.0236,3.9356,3.9196,3.8237,3.7329,3.6509,3.7033,3.6985,3.6359,3.742,3.7825,3.7548,3.7943,3.7952,3.7512,3.7512,3.7512,3.7512,3.7512,3.7512,3.7461,3.6383,3.5759,3.5759,3.4739,3.4241,3.4228,3.3773,3.4027,3.5075,3.5118,3.5959,3.7826,3.8278,3.8551,3.8916,3.8792,3.8447,3.7845,3.7333,3.6521,3.5398,3.4038,3.4175,3.626,3.4558,3.3395,3.3447,3.2108,3.0923,3.0121,2.94,2.8888,2.8454,2.8217,2.7812,2.7073,2.5859,2.4273,2.2382,1.995,1.7431,1.493,1.2493,1.0173,0.8145,0.6114,0.4016,0.2517,0.1498,-0.0241,-0.3359,-0.5017,-0.6359,-0.792,-0.8677,-0.9211,-1.0381,-1.1166,-1.1955,-1.2671,-1.3321,-1.4049,-1.4699,-1.4816,-1.4905,-1.4994,-1.5162,-1.5121,-1.5338,-1.5371,-1.5438,-1.5681,-1.5759,-1.5557,4.9294,4.8985,4.887,4.8466,0.0,4.7288,4.6329,4.5072,4.5129,4.4757,4.4118,4.3742,4.3478,4.3351,4.3394,4.3439,4.342,4.2892,4.2511,4.2156,4.1242,4.0499,3.984,3.9151,3.8398,3.7642,3.7721,3.7612,3.7278,3.7606,3.7793,3.7703,3.7764,3.7735,3.7512,3.7512,3.7512,3.7512,3.7512,3.7512,3.7461,3.6383,3.5759,3.5759,3.4739,0.0,0.0,0.0,0.0,0.0,0.0,0.0,0.0,3.7663,0.0,3.782,3.7481,3.729,3.7234,3.7017,3.7055,3.7325,3.6462,3.6438,3.7628,3.6849,3.5982,3.5261,3.438,3.3427,3.2393,3.1721,3.1107,3.0571,3.023,2.9704,2.9047,2.7707,2.6088,2.4275,2.2061,1.9664,1.722,1.4853,1.2612,1.0352,0.8145,0.6052,0.4254,0.3655,0.2281,-0.0968,-0.3068,-0.5049,-0.6386,-0.6991,-0.7767,-0.9003,-0.9696,-1.0319,-1.1368,-1.1824,-1.2341,-1.339,-1.3585,-1.385,-1.437,-1.457,-1.4588,-1.4746,-1.4774,-1.4486,-1.3102,-1.2869,-1.2991,4.9014,4.8662,4.8403,4.8256,4.8119,4.7191,4.6291,4.5482,4.5301,4.4944,4.4508,4.3611,4.3181,4.3235,4.3037,4.3164,4.3567,4.3205,4.2722,4.2243,4.2043,4.138,4.0398,3.9949,3.9444,3.8958,3.8531,3.8347,3.8376,3.7861,3.7767,3.7966,3.7599,3.7441,3.7499,0.0,0.0,0.0,3.7455,3.7512,3.7461,3.6383,3.5759,3.5759,3.479,0.0,3.4059,3.3926,3.4129,3.4621,3.5394,0.0,0.0,0.0,0.0,0.0,0.0,0.0,0.0,0.0,0.0,0.0,3.764,3.7721,3.8296,3.8677,3.8291,3.6994,3.6235,3.5419,3.4371,3.374,3.3148,3.2542,3.2146,3.1675,3.088,2.9565,2.7958,2.6163,2.4079,2.1813,1.9375,1.7242,1.4981,1.2428,1.0394,0.8325,0.6231,0.5573,0.4254,0.1738,-0.109,-0.3375,-0.4485,-0.5373,-0.6253,-0.7412,-0.7876,-0.8589,-0.9631,-1.004,-1.0782,-1.1694,-1.2085,-1.2609,-1.3525,-1.3785,-1.3655,-1.3785,-1.3785,-1.3065,-1.0789,-1.049,-1.0847,4.6991,4.6926,4.6714,4.6366,4.6062,4.5908,4.5773,4.5593,4.4594,4.4108,4.394,4.2615,4.2063,4.2191,4.2269,4.257,4.2978,4.2651,4.2447,4.2336,4.1552,4.1075,4.0898,4.0739,4.0421,4.0016,3.9532,3.9052,3.8617,3.8327,3.7986,3.7616,3.7711,3.7705,3.7368,3.6791,3.6563,3.6651,3.7241,3.7512,3.7512,3.6383,3.5759,3.5708,3.4739,3.3994,3.3563,3.341,3.334,3.3314,3.3627,3.4386,3.5634,3.5356,3.5281,0.0,3.496,0.0,0.0,0.0,0.0,0.0,0.0,0.0,0.0,3.8827,3.9172,3.8763,3.7497,3.6368,3.5474,3.4884,3.4148,3.3279,3.3945,3.3868,3.2297,3.1852,3.0811,2.8584,2.6312,2.3945,2.1488,1.937,1.7127,1.472,1.2612,1.0914,0.9752,0.7955,0.5742,0.3056,0.132,-0.0605,-0.2698,-0.386,-0.4588,-0.5413,-0.636,-0.7444,-0.7574,-0.8548,-0.9466,-0.9727,-1.0244,-1.0779,-1.0981,-1.1043,-1.1046,-1.1111,-1.0971,-1.0573,-0.9665,-0.9823,-1.0595,4.6965,4.6613,4.6541,4.5394,4.3592,4.3616,4.4085,4.4782,4.428,4.4092,4.4227,4.3387,4.2676,4.2158,4.162,4.1637,4.2085,4.2019,4.1812,4.164,4.1702,4.1393,4.0673,4.041,4.0057,3.9693,3.9184,3.8528,3.7877,3.8148,3.781,3.6925,3.7401,3.7365,3.6761,3.5965,3.5864,3.6399,3.677,3.702,3.7056,3.6244,3.5606,3.5314,3.4334,3.3693,3.3445,3.3218,3.2921,3.2594,3.3372,3.3804,3.376,3.3783,3.3496,0.0,0.0,0.0,0.0,0.0,0.0,0.0,0.0,0.0,0.0,0.0,3.8533,3.9028,3.8296,3.7324,3.6243,3.5666,3.5089,3.4514,3.4885,3.479,3.3703,3.2786,3.1777,3.0463,2.7983,2.5701,2.3914,2.1642,1.9308,1.7119,1.5836,1.4473,1.2551,1.0569,0.8176,0.5499,0.3953,0.2343,0.006,-0.1471,-0.26,-0.3346,-0.4261,-0.5061,-0.5505,-0.636,-0.7086,-0.7538,-0.8162,-0.8787,-0.9244,-0.9291,-0.9276,-0.9137,-0.8381,-0.7568,-0.7174,-0.7607,-0.8309,4.622,4.573,4.5493,4.3992,4.1724,4.1724,4.2337,4.334,4.3272,4.3288,4.3378,4.306,4.2334,4.1376,4.054,4.0555,4.1233,4.0995,4.0822,4.0757,4.1251,4.1073,4.0284,3.996,3.9734,3.9539,3.9045,3.8368,3.7697,3.7982,3.7631,3.6602,3.6777,3.6537,3.5784,3.5038,3.5094,3.5868,3.601,3.6233,3.647,3.5704,3.5086,3.4609,3.3658,3.3221,3.3164,3.2946,3.2626,3.2241,3.3022,3.3088,3.2217,3.2022,0.0,0.0,0.0,0.0,0.0,0.0,0.0,0.0,0.0,3.2689,3.4576,0.0,3.6959,0.0,3.8059,3.7617,3.6528,3.6181,0.0,0.0,3.5163,3.4924,3.428,3.2948,3.1968,3.1482,2.925,2.7157,2.5862,2.3763,2.1691,1.999,1.9082,1.7639,1.4994,1.2948,1.068,0.8027,0.6472,0.5006,0.3101,0.1449,0.0061,-0.1036,-0.1728,-0.2431,-0.3117,-0.3688,-0.4387,-0.5141,-0.5817,-0.6491,-0.72,-0.7384,-0.71,-0.6304,-0.525,-0.4334,-0.4526,-0.5074,-0.5761,4.3295,4.3194,4.2201,4.1484,4.0917,4.0917,4.0957,4.1068,4.0812,4.055,4.0201,3.9939,3.9453,3.8789,3.8721,0.0,4.0839,3.9488,3.9205,3.9721,3.9215,3.9298,3.9844,3.9858,3.9982,4.0326,3.9931,3.9521,3.901,3.8178,3.7522,3.7045,3.5808,3.4852,3.4232,3.3883,3.3985,3.4548,3.4707,3.5039,3.5615,3.4697,3.3886,3.339,3.2823,3.2549,3.2527,3.2282,3.2273,3.2575,3.1804,3.1522,3.1795,0.0,0.0,0.0,0.0,0.0,0.0,0.0,0.0,0.0,0.0,0.0,0.0,0.0,0.0,3.5252,3.6151,0.0,3.6222,3.6453,0.0,0.0,0.0,3.4193,3.3138,3.2215,3.1596,3.1356,0.0,0.0,2.67,2.5331,2.4193,2.3549,2.1456,1.9233,1.7125,1.4785,1.2347,1.0101,0.877,0.7391,0.5633,0.4692,0.3656,0.1978,0.0972,0.0306,-0.0184,-0.0928,-0.1689,-0.231,-0.3071,-0.3827,-0.4455,-0.4385,-0.3694,-0.0802,-0.087,-0.1693,-0.2194,-0.2952,-0.3653,4.1291,3.9691,3.8587,3.829,3.8572,3.842,3.8732,3.9283,3.9019,3.8809,3.8653,3.8409,3.804,3.7669,3.7513,0.0,0.0,0.0,3.7415,3.7438,3.8129,3.812,3.7669,3.8116,3.8196,3.7983,3.7812,3.7433,3.6748,3.6786,3.5973,3.4455,0.0,3.2929,3.2802,3.2422,3.2694,3.3563,3.4198,3.4668,3.4954,3.4366,3.3592,3.2816,3.2536,3.2292,3.1897,3.2041,3.1693,3.095,3.0627,3.0161,0.0,0.0,0.0,0.0,0.0,0.0,0.0,0.0,0.0,0.0,0.0,2.8201,2.9236,0.0,0.0,0.0,3.3939,3.479,3.5296,3.5119,0.0,0.0,0.0,0.0,0.0,0.0,0.0,3.1782,3.0299,2.8925,2.812,2.7003,2.6012,2.5191,2.3345,2.1362,1.9274,0.0,1.5549,1.2978,1.1584,1.0314,0.8826,0.7597,0.6348,0.5124,0.4157,0.341,0.3176,0.2245,0.1483,0.1128,0.0359,-0.0481,-0.0722,0.0651,0.2163,0.2644,0.2143,0.1384,0.0782,-0.0183,-0.1051,3.8439,0.0,0.0,0.0,0.0,3.5785,3.6158,3.6822,3.6656,3.656,3.644,3.62,0.0,0.0,0.0,0.0,0.0,0.0,3.5403,3.5788,3.6516,3.6541,3.6019,3.6276,3.6247,3.5881,3.5848,3.5443,3.4808,3.4355,3.3183,3.1334,0.0,0.0,0.0,0.0,3.1701,3.2495,3.3607,3.4072,3.386,3.3622,3.3082,3.2187,3.2015,3.1757,3.1422,3.1398,3.088,2.9888,2.9496,0.0,0.0,0.0,0.0,0.0,0.0,0.0,0.0,0.0,0.0,0.0,0.0,0.0,0.0,0.0,0.0,0.0,0.0,0.0,3.3815,3.3742,3.3544,0.0,0.0,0.0,0.0,0.0,0.0,0.0,0.0,0.0,2.8812,2.8133,2.7187,0.0,0.0,2.3176,2.1148,1.9903,1.833,1.5847,1.4609,0.0,1.1897,1.0581,0.9535,0.868,0.7513,0.6575,0.6151,0.5467,0.4789,0.4453,0.3698,0.3473,0.42,0.5941,0.6742,0.5937,0.5315,0.4641,0.3848,0.287,0.2029,0.0,0.0,0.0,0.0,3.3339,0.0,0.0,0.0,3.3349,3.3209,0.0,3.2683,0.0,0.0,0.0,0.0,3.3371,3.2449,0.0,0.0,3.3979,3.4152,3.547,3.4718,3.4471,3.4839,3.4545,3.4208,3.3617,3.0684,0.0,0.0,0.0,0.0,0.0,0.0,3.1216,3.1209,3.2716,3.3046,3.2229,3.2287,3.2097,3.1512,3.0942,3.079,3.1249,3.0361,2.9939,3.0043,2.8303,0.0,0.0,0.0,0.0,0.0,0.0,0.0,0.0,0.0,0.0,0.0,0.0,0.0,0.0,0.0,0.0,0.0,0.0,0.0,0.0,3.2657,0.0,0.0,0.0,0.0,0.0,0.0,0.0,0.0,0.0,2.8928,2.8419,2.8236,2.7655,2.6224,0.0,0.0,0.0,0.0,2.024,1.8396,1.7772,1.6679,1.4295,1.4033,1.3667,1.243,0.0,0.0,0.8357,0.8492,0.8371,0.7297,0.7071,0.7792,1.0234,1.0512,1.0166,0.9281,0.8875,0.8208,0.6716,0.5848,0.5259,0.0,0.0,0.0,0.0,0.0,0.0,0.0,0.0,0.0,2.9095,2.8901,2.8847,0.0,0.0,0.0,0.0,0.0,0.0,0.0,0.0,3.1763,3.1854,3.2367,3.25,3.241,3.212,3.2039,3.0908,0.0,0.0,0.0,0.0,0.0,0.0,0.0,0.0,2.9531,3.0833,3.1966,3.2388,3.2103,3.2218,3.2016,3.1478,3.0604,2.9913,2.9535,2.96,2.8962,0.0,0.0,0.0,0.0,0.0,0.0,0.0,0.0,0.0,0.0,0.0,0.0,0.0,0.0,0.0,0.0,0.0,0.0,0.0,0.0,0.0,0.0,0.0,3.148,0.0,0.0,0.0,0.0,0.0,0.0,0.0,0.0,0.0,2.704,2.6933,2.692,2.6908,2.6223,2.5436,2.444,0.0,0.0,0.0,0.0,0.0,0.0,0.0,1.4644,1.4694,1.3557,1.2442,1.2073,1.1604,1.1258,1.0804,0.0,0.0,1.311,1.3185,1.2611,1.1454,1.0917,1.042,0.9411,0.836,0.7489,0.0,0.0,0.0,0.0,0.0,0.0,0.0,0.0,0.0,2.6182,2.609,0.0,0.0,0.0,0.0,0.0,0.0,0.0,0.0,0.0,0.0,0.0,2.9815,2.9995,0.0,0.0,0.0,0.0,0.0,0.0,0.0,0.0,0.0,0.0,0.0,0.0,2.864,3.0028,3.1202,3.1666,3.1505,3.1813,3.1628,3.1004,3.0274,2.9461,2.8422,0.0,0.0,0.0,0.0,0.0,0.0,0.0,0.0,0.0,0.0,0.0,0.0,0.0,0.0,0.0,0.0,0.0,0.0,0.0,0.0,0.0,0.0,0.0,0.0,0.0,3.018,0.0,0.0,0.0,0.0,0.0,0.0,0.0,0.0,0.0,0.0,2.5895,2.6179,2.6534,2.6292,2.5808,2.514,2.4566,2.3685,0.0,0.0,0.0,0.0,0.0,0.0,0.0,0.0,0.0,0.0,0.0,0.0,0.0,0.0,1.3799,1.4968,1.503,1.4496,1.3235,0.0,0.0,0.0,0.0,0.0,0.0,0.0,0.0,0.0,0.0,0.0,0.0,0.0,0.0,0.0,2.451,0.0,0.0,2.4048,0.0,0.0,0.0,0.0,0.0,0.0,0.0,0.0,0.0,0.0,0.0,0.0,0.0,0.0,0.0,0.0,0.0,0.0,0.0,0.0,0.0,0.0,2.8581,2.8827,3.0325,3.0823,3.0338,3.0963,3.0875,2.9949,2.9879,2.9278,2.8042,0.0,0.0,0.0,0.0,0.0,0.0,0.0,0.0,0.0,0.0,0.0,0.0,0.0,0.0,0.0,0.0,0.0,0.0,0.0,0.0,0.0,0.0,0.0,0.0,0.0,0.0,2.8672,2.8163,2.7407,0.0,0.0,0.0,0.0,0.0,0.0,0.0,0.0,0.0,2.504,2.5544,2.5758,2.4853,2.513,2.4808,2.3207,2.2912,2.2107,2.0019,1.9617,1.9147,0.0,0.0,0.0,0.0,0.0,0.0,0.0,0.0,0.0,0.0,0.0,0.0,0.0,0.0,0.0,0.0,0.0,0.0,0.0,0.0,0.0,0.0,0.0,0.0,0.0,0.0,0.0,0.0,0.0,0.0,0.0,0.0,0.0,0.0,0.0,0.0,0.0,0.0,0.0,0.0,0.0,0.0,0.0,0.0,0.0,0.0,0.0,0.0,0.0,0.0,0.0,0.0,0.0,0.0,2.771,2.9071,2.9964,3.0232,2.9754,3.0409,3.0285,2.9408,2.861,2.7918,0.0,0.0,0.0,0.0,0.0,0.0,0.0,0.0,0.0,0.0,0.0,0.0,0.0,0.0,0.0,0.0,0.0,0.0,0.0,0.0,0.0,0.0,0.0,0.0,0.0,0.0,0.0,0.0,2.7181,2.708,2.5963,0.0,0.0,0.0,0.0,0.0,0.0,0.0,0.0,0.0,0.0,2.5873,2.5779,2.5307,2.4651,2.378,2.3011,2.2262,2.1518,2.0098,1.9171,1.9365,0.0,0.0,0.0,0.0,0.0,0.0,0.0,0.0,0.0,0.0,0.0,0.0,0.0,0.0,0.0,0.0,0.0,0.0,0.0,0.0,0.0,0.0,0.0,0.0,0.0,0.0,0.0,0.0,0.0,0.0,0.0,0.0,0.0,0.0,0.0,0.0,0.0,0.0,0.0,0.0,0.0,0.0,0.0,0.0,0.0,0.0,0.0,0.0,0.0,0.0,0.0,0.0,0.0,2.7172,2.8399,2.9314,2.9571,2.924,2.9796,2.9681,2.8792,2.7853,2.7093,0.0,0.0,0.0,0.0,0.0,0.0,0.0,0.0,0.0,0.0,0.0,0.0,0.0,0.0,0.0,0.0,0.0,0.0,0.0,0.0,0.0,0.0,0.0,0.0,0.0,0.0,0.0,0.0,2.6052,2.6174,2.5592,0.0,0.0,0.0,0.0,0.0,0.0,0.0,0.0,0.0,0.0,2.5221,2.5122,2.4902,0.0,0.0,2.2623,2.2006,2.1332,2.0143,1.9254,1.9295,1.8656,0.0,0.0,0.0,0.0,0.0,0.0,0.0,0.0,0.0,0.0,0.0,0.0,0.0,0.0,0.0,0.0,0.0,0.0,0.0,0.0,0.0,0.0,0.0,0.0,0.0,0.0,0.0,0.0,0.0,0.0,0.0,0.0,0.0,0.0,0.0,0.0,0.0,0.0,0.0,0.0,0.0,0.0,0.0,0.0,0.0,0.0,0.0,0.0,0.0,0.0,0.0,0.0,2.701,2.7321,2.8543,2.9006,2.8585,2.9171,2.9022,2.8164,2.7593,2.6503,0.0,0.0,0.0,0.0,0.0,0.0,0.0,0.0,0.0,0.0,0.0,0.0,0.0,0.0,0.0,0.0,0.0,0.0,0.0,0.0,0.0,0.0,0.0,0.0,0.0,0.0,0.0,0.0,0.0,0.0,0.0,0.0,0.0,0.0,0.0,0.0,0.0,0.0,0.0,0.0,0.0,2.4003,2.3417,2.4132,2.4102,0.0,2.1932,2.1495,2.0195,1.9926,1.9507,1.8285,0.0,0.0,0.0,0.0,0.0,0.0,0.0,0.0,0.0,0.0,0.0,0.0,0.0,0.0,0.0,0.0,0.0,0.0,0.0,0.0,0.0,0.0,0.0,0.0,0.0,0.0,0.0,0.0,0.0,0.0,0.0,0.0,0.0,0.0,0.0,0.0,0.0,0.0,0.0,0.0,0.0,0.0,0.0,0.0,0.0,0.0,0.0,0.0,0.0,0.0,0.0,0.0,0.0,0.0,2.7946,2.9051,2.9225,2.845,2.8694,2.8433,2.7621,2.6619,0.0,0.0,0.0,0.0,0.0,0.0,0.0,0.0,0.0,0.0,0.0,0.0,0.0,0.0,0.0,0.0,0.0,0.0,0.0,0.0,0.0,0.0,0.0,0.0,0.0,0.0,0.0,2.1507,0.0,0.0,0.0,0.0,0.0,0.0,0.0,0.0,0.0,0.0,0.0,0.0,0.0,0.0,2.3532,2.333,2.3197,2.2857,0.0,0.0,2.1838,2.1485,2.0839,2.0319,0.0,0.0,0.0,0.0,0.0,0.0,0.0,0.0,0.0,0.0,0.0,0.0,0.0,0.0,0.0,0.0,0.0,0.0,0.0,0.0,0.0,0.0,0.0,0.0,0.0,0.0,0.0,0.0,0.0,0.0,0.0,0.0,0.0,0.0,0.0,0.0,0.0,0.0,0.0,0.0,0.0,0.0,0.0,0.0,0.0,0.0,0.0,0.0,0.0,0.0,0.0,0.0,0.0,0.0,2.6762,2.7275,2.8451,2.872,2.801,2.8325,2.8098,2.7009,2.6152,2.5009,0.0,0.0,0.0,0.0,0.0,0.0,0.0,0.0,0.0,0.0,0.0,0.0,0.0,0.0,0.0,0.0,0.0,0.0,0.0,0.0,0.0,0.0,0.0,0.0,0.0,0.0,0.0,0.0,0.0,0.0,0.0,0.0,0.0,0.0,0.0,0.0,0.0,0.0,0.0,0.0,0.0,0.0,2.2374,2.2354,0.0,0.0,0.0,2.1548,2.134,0.0,0.0,0.0,0.0,0.0,0.0,0.0,0.0,0.0,0.0,0.0,0.0,0.0,0.0,0.0,0.0,0.0,0.0,0.0,0.0,0.0,0.0,0.0,0.0,0.0,0.0,0.0,0.0,0.0,0.0,0.0,0.0,0.0,0.0,0.0,0.0,0.0,0.0,0.0,0.0,0.0,0.0,0.0,0.0,0.0,0.0,0.0,0.0,0.0,0.0,0.0,0.0,0.0,0.0,0.0,0.0,0.0,2.6255,2.7561,2.7982,2.7595,2.8172,2.7857,2.6568,2.5944,2.4779,0.0,0.0,0.0,0.0,0.0,0.0,0.0,0.0,0.0,0.0,0.0,0.0,0.0,0.0,0.0,0.0,0.0,0.0,0.0,0.0,0.0,0.0,0.0,0.0,0.0,0.0,0.0,0.0,0.0,0.0,0.0,0.0,0.0,0.0,0.0,0.0,0.0,0.0,0.0,0.0,0.0,2.1023,2.0896,2.1346,2.1612,0.0,0.0,2.1046,2.0578,2.05,0.0,0.0,0.0,0.0,0.0,0.0,0.0,0.0,0.0,0.0,0.0,0.0,0.0,0.0,0.0,0.0,0.0,0.0,0.0,0.0,0.0,0.0,0.0,0.0,0.0,0.0,0.0,0.0,0.0,0.0,0.0,0.0,0.0,0.0,0.0,0.0,0.0,0.0,0.0,0.0,0.0,0.0,0.0,0.0,0.0,0.0,0.0,0.0,0.0,0.0,0.0,0.0,0.0,0.0,0.0,0.0,2.7253,2.7987,2.8328,2.8302,2.8074,2.768,2.7044,2.5853,2.4419,0.0,0.0,0.0,0.0,0.0,0.0,0.0,0.0,0.0,0.0,0.0,0.0,0.0,0.0,0.0,0.0,0.0,0.0,0.0,0.0,0.0,0.0,0.0,0.0,0.0,0.0,0.0,0.0,0.0,0.0,0.0,0.0,0.0,0.0,0.0,0.0,0.0,0.0,0.0,0.0,0.0,2.0356,2.0218,2.029,0.0,0.0,0.0,0.0,2.1201,2.1042,0.0,0.0,0.0,0.0,0.0,0.0,0.0,0.0,0.0,0.0,0.0,0.0,0.0,0.0,0.0,0.0,0.0,0.0,0.0,0.0,0.0,0.0,0.0,0.0,0.0,0.0,0.0,0.0,0.0,0.0,0.0,0.0,0.0,0.0,0.0,0.0,0.0,0.0,0.0,0.0,0.0,0.0,0.0,0.0,0.0,0.0,0.0,0.0,0.0,0.0,0.0,0.0,0.0,0.0,0.0,0.0,2.6929,2.7692,2.8021,2.7838,2.7671,2.7184,2.6324,2.5246,2.3913,0.0,0.0,0.0,0.0,0.0,0.0,0.0,0.0,0.0,0.0,0.0,0.0,0.0,0.0,0.0,0.0,0.0,0.0,0.0,0.0,0.0,0.0,0.0,0.0,0.0,0.0,0.0,0.0,0.0,0.0,0.0,0.0,0.0,0.0,0.0,0.0,0.0,0.0,0.0,0.0,1.9684,1.989,1.9902,0.0,0.0,0.0,0.0,0.0,0.0,2.1349,2.0809,0.0,0.0,0.0,0.0,0.0,0.0,0.0,0.0,0.0,0.0,0.0,0.0,0.0,0.0,0.0,0.0,0.0,0.0,0.0,0.0,0.0,0.0,0.0,0.0,0.0,0.0,0.0,0.0,0.0,0.0,0.0,0.0,0.0,0.0,0.0,0.0,0.0,0.0,0.0,0.0,0.0,0.0,0.0,0.0,0.0,0.0,0.0,0.0,0.0,0.0,0.0,0.0,0.0,0.0,0.0,2.6093,2.7076,2.7432,2.7149,2.7298,2.674,2.5419,2.469,2.3416,2.1473,0.0,0.0,0.0,0.0,0.0,0.0,0.0,0.0,0.0,0.0,0.0,0.0,0.0,0.0,0.0,0.0,0.0,0.0,0.0,0.0,0.0,0.0,0.0,0.0,0.0,0.0,0.0,0.0,0.0,0.0,0.0,0.0,0.0,0.0,0.0,0.0,0.0,0.0,0.0,1.9403,1.944,0.0,0.0,0.0,0.0,0.0,0.0,0.0,0.0,2.066,0.0,0.0,0.0,0.0,0.0,0.0,0.0,0.0,0.0,0.0,0.0,0.0,0.0,0.0,0.0,0.0,0.0,0.0,0.0,0.0,0.0,0.0,0.0,0.0,0.0,0.0,0.0,0.0,0.0,0.0,0.0,0.0,0.0,0.0,0.0,0.0,0.0,0.0,0.0,0.0,0.0,0.0,0.0,0.0,0.0,0.0,0.0,0.0,0.0,0.0,0.0,0.0,0.0,0.0,0.0,0.0,2.6305,2.6949,2.7635,2.7271,2.6711,2.5936,2.485,2.2941,2.0058,0.0,0.0,0.0,0.0,0.0,0.0,0.0,0.0,0.0,0.0,0.0,0.0,0.0,0.0,0.0,0.0,0.0,0.0,0.0,0.0,0.0,0.0,0.0,0.0,0.0,0.0,0.0,0.0,0.0,0.0,0.0,0.0,0.0,0.0,0.0,0.0,0.0,0.0,1.9472,1.932,0.0,0.0,0.0,0.0,0.0,0.0,0.0,0.0,2.0242,0.0,0.0,0.0,0.0,0.0,0.0,0.0,0.0,0.0,0.0,0.0,0.0,0.0,0.0,0.0,0.0,0.0,0.0,0.0,0.0,0.0,0.0,0.0,0.0,0.0,0.0,0.0,0.0,0.0,0.0,0.0,0.0,0.0,0.0,0.0,0.0,0.0,0.0,0.0,0.0,0.0,0.0,0.0,0.0,0.0,0.0,0.0,0.0,0.0,0.0,0.0,0.0,0.0,0.0,0.0,0.0,0.0,0.0,2.7134,2.7453,2.6939,2.6239,2.5433,2.4013,2.2204,0.0,0.0,0.0,0.0,0.0,0.0,0.0,0.0,0.0,0.0,0.0,0.0,0.0,0.0,0.0,0.0,0.0,0.0,0.0,0.0,0.0,0.0,0.0,0.0,0.0,0.0,0.0,0.0,0.0,0.0,0.0,0.0,0.0,0.0,0.0,0.0,0.0,0.0,0.0,0.0,0.0,0.0,0.0,0.0,0.0,0.0,0.0,0.0,0.0,0.0,0.0,0.0,0.0,0.0,0.0,0.0,0.0,0.0,0.0,0.0,0.0,0.0,0.0,0.0,0.0,0.0,0.0,0.0,0.0,0.0,0.0,0.0,0.0,0.0,0.0,0.0,0.0,0.0,0.0,0.0,0.0,0.0,0.0,0.0,0.0,0.0,0.0,0.0,0.0,0.0,0.0,0.0,0.0,0.0,0.0,0.0,0.0,0.0,0.0,0.0,0.0,0.0,0.0,0.0,0.0,0.0,0.0,0.0,2.7234,2.7112,2.6693,2.5951,2.4986,2.3177,2.1377,0.0,0.0,0.0,0.0,0.0,0.0,0.0,0.0,0.0,0.0,0.0,0.0,0.0,0.0,0.0,0.0,0.0,0.0,0.0,0.0,0.0,0.0,0.0,0.0,0.0,0.0,0.0,0.0,0.0,0.0,0.0,0.0,0.0,0.0,0.0,0.0,0.0,0.0,0.0,0.0,0.0,0.0,0.0,0.0,0.0,0.0,0.0,0.0,2.0718,0.0,0.0,0.0,0.0,0.0,0.0,0.0,0.0,0.0,0.0,0.0,0.0,0.0,0.0,0.0,0.0,0.0,0.0,0.0,0.0,0.0,0.0,0.0,0.0,0.0,0.0,0.0,0.0,0.0,0.0,0.0,0.0,0.0,0.0,0.0,0.0,0.0,0.0,0.0,0.0,0.0,0.0,0.0,0.0,0.0,0.0,0.0,0.0,0.0,0.0,0.0,0.0,0.0,0.0,0.0,0.0,0.0,0.0,0.0,2.6845,2.6855,2.7047,2.6514,2.5212,2.3022,2.0539,0.0,0.0,0.0,0.0,0.0,0.0,0.0,0.0,0.0,0.0,0.0,0.0,0.0,0.0,0.0,0.0,0.0,0.0,0.0,0.0,0.0,0.0,0.0,0.0,0.0,0.0,0.0,0.0,0.0,0.0,0.0,0.0,0.0,0.0,0.0,0.0,0.0,0.0,0.0,0.0,0.0,0.0,0.0,0.0,0.0,0.0,0.0,0.0,0.0,0.0,0.0,0.0,0.0,0.0,0.0,0.0,0.0,0.0,0.0,0.0,0.0,0.0,0.0,0.0,0.0,0.0,0.0,0.0,0.0,0.0,0.0,0.0,0.0,0.0,0.0,0.0,0.0,0.0,0.0,0.0,0.0,0.0,0.0,0.0,0.0,0.0,0.0,0.0,0.0,0.0,0.0,0.0,0.0,0.0,0.0,0.0,0.0,0.0,0.0,0.0,0.0,0.0,0.0,0.0,0.0,0.0,0.0,0.0,2.668,2.736,2.6681,2.6021,2.539,2.2876,2.0558,0.0,0.0,0.0,0.0,0.0,0.0,0.0,0.0,0.0,0.0,0.0,0.0,0.0,0.0,0.0,0.0,0.0,0.0,0.0,0.0,0.0,0.0,0.0,0.0,0.0,0.0,0.0,0.0,0.0,0.0,0.0,0.0,0.0,0.0,0.0,0.0,0.0,0.0,0.0,0.0,0.0,0.0,0.0,0.0,0.0,0.0,0.0,0.0,0.0,0.0,0.0,0.0,0.0,0.0,0.0,0.0,0.0,0.0,0.0,0.0,0.0,0.0,0.0,0.0,0.0,0.0,0.0,0.0,0.0,0.0,0.0,0.0,0.0,0.0,0.0,0.0,0.0,0.0,0.0,0.0,0.0,0.0,0.0,0.0,0.0,0.0,0.0,0.0,0.0,0.0,0.0,0.0,0.0,0.0,0.0,0.0,0.0,0.0,0.0,0.0,0.0,0.0,0.0,0.0,0.0,0.0,0.0,0.0,0.0,2.7433,2.61,2.5147,2.4669,2.2444,2.0345,0.0,0.0,0.0,0.0,0.0,0.0,0.0,0.0,0.0,0.0,0.0,0.0,0.0,0.0,0.0,0.0,0.0,0.0,0.0,0.0,0.0,0.0,0.0,0.0,0.0,0.0,0.0,0.0,0.0,0.0,0.0,0.0,0.0,0.0,0.0,0.0,0.0,0.0,0.0,0.0,0.0,0.0,0.0,0.0,0.0,0.0,0.0,0.0,0.0,0.0,0.0,0.0,0.0,0.0,0.0,0.0,0.0,0.0,0.0,0.0,0.0,0.0,0.0,0.0,0.0,0.0,0.0,0.0,0.0,0.0,0.0,0.0,0.0,0.0,0.0,0.0,0.0,0.0,0.0,0.0,0.0,0.0,0.0,0.0,0.0,0.0,0.0,0.0,0.0,0.0,0.0,0.0,0.0,0.0,0.0,0.0,0.0,0.0,0.0,0.0,0.0,0.0,0.0,0.0,0.0,0.0,0.0,0.0,0.0,2.6887,2.5356,2.3995,2.2798,2.1529,1.9537,0.0,0.0,0.0,0.0,0.0,0.0,0.0,0.0,0.0,0.0,0.0,0.0,0.0,0.0,0.0,0.0,0.0,0.0,0.0,0.0,0.0,0.0,0.0,0.0,0.0,0.0,0.0,0.0,0.0,0.0,0.0,0.0,0.0,0.0,0.0,0.0,0.0,0.0,0.0,0.0,0.0,0.0,0.0,0.0,0.0,0.0,0.0,0.0,0.0,0.0,0.0,0.0,0.0,0.0,0.0,0.0,0.0,0.0,0.0,0.0,0.0,0.0,0.0,0.0,0.0,0.0,0.0,0.0,0.0,0.0,0.0,0.0,0.0,0.0,0.0,0.0,0.0,0.0,0.0,0.0,0.0,0.0,0.0,0.0,0.0,0.0,0.0,0.0,0.0,0.0,0.0,0.0,0.0,0.0,0.0,0.0,0.0,0.0,0.0,0.0,0.0,0.0,0.0,0.0,0.0,0.0,0.0,0.0,0.0,2.5461,2.4965,2.45,2.405,2.1777,1.9622,1.7676,0.0,0.0,0.0,0.0,0.0,0.0,0.0,0.0,0.0,0.0,0.0,0.0,0.0,0.0,0.0,0.0,0.0,0.0,0.0,0.0,0.0,0.0,0.0,0.0,0.0,0.0,0.0,0.0,0.0,0.0,0.0,0.0,0.0,0.0,0.0,0.0,0.0,0.0,0.0,0.0,0.0,0.0,0.0,0.0,0.0,0.0,0.0,0.0,0.0,0.0,0.0,0.0,0.0,0.0,0.0,0.0,0.0,0.0,0.0,0.0,0.0,0.0,0.0,0.0,0.0,0.0,0.0,0.0,0.0,0.0,0.0,0.0,0.0,0.0,0.0,0.0,0.0,0.0,0.0,0.0,0.0,0.0,0.0,0.0,0.0,0.0,0.0,0.0,0.0,0.0,0.0,0.0,0.0,0.0,0.0,0.0,0.0,0.0,0.0,0.0,0.0,0.0,0.0,0.0,0.0,0.0,0.0,0.0,2.3526,2.3739,2.3716,2.3386,2.1126,1.9075,0.0,0.0,0.0,0.0,0.0,0.0,0.0,0.0,0.0,0.0,0.0,0.0,0.0,0.0,0.0,0.0,0.0,0.0,0.0,0.0,0.0,0.0,0.0,0.0,0.0,0.0,0.0,0.0,0.0,0.0,0.0,0.0,0.0,0.0,0.0,0.0,0.0,0.0,0.0,0.0,0.0,0.0,0.0,0.0,0.0,0.0,0.0,0.0,0.0,0.0,0.0,0.0,0.0,0.0,0.0,0.0,0.0,0.0,0.0,0.0,0.0,0.0,0.0,0.0,0.0,0.0,0.0,0.0,0.0,0.0,0.0,0.0,0.0,0.0,0.0,0.0,0.0,0.0,0.0,0.0,0.0,0.0,0.0,0.0,0.0,0.0,0.0,0.0,0.0,0.0,0.0,0.0,0.0,0.0,0.0,0.0,0.0,0.0,0.0,0.0,0.0,0.0,0.0,0.0,0.0,0.0,0.0,0.0,2.0942,2.1096,2.1478,2.1326,2.0284,1.9308,1.7669,0.0,0.0,0.0,0.0,0.0,0.0,0.0,0.0,0.0,0.0,0.0,0.0,0.0,0.0,0.0,0.0,0.0,0.0,0.0,0.0,0.0,0.0,0.0,0.0,0.0,0.0,0.0,0.0,0.0,0.0,0.0,0.0,0.0,0.0,0.0,0.0,0.0,0.0,0.0,0.0,0.0,0.0,0.0,0.0,0.0,0.0,0.0,0.0,0.0,0.0,0.0,0.0,0.0,0.0,0.0,0.0,0.0,0.0,0.0,0.0,0.0,0.0,0.0,0.0,0.0,0.0,0.0,0.0,0.0,0.0,0.0,0.0,0.0,0.0,0.0,0.0,0.0,0.0,0.0,0.0,0.0,0.0,0.0,0.0,0.0,0.0,0.0,0.0,0.0,0.0,0.0,0.0,0.0,0.0,0.0,0.0,0.0,0.0,0.0,0.0,0.0,0.0,0.0,0.0,0.0,0.0,0.0,0.0,0.0,2.0889,0.0,2.113,0.0,1.9145,1.7428,0.0,0.0,0.0,0.0,0.0,0.0,0.0,0.0,0.0,0.0,0.0,0.0,0.0,0.0,0.0,0.0,0.0,0.0,0.0,0.0,0.0,0.0,0.0,0.0,0.0,0.0,0.0,0.0,0.0,0.0,0.0,0.0,0.0,0.0,0.0,0.0,0.0,0.0,0.0,0.0,0.0,0.0,0.0,0.0,0.0,0.0,0.0,0.0,0.0,0.0,0.0,0.0,0.0,0.0,0.0,0.0,0.0,0.0,0.0,0.0,0.0,0.0,0.0,0.0,0.0,0.0,0.0,0.0,0.0,0.0,0.0,0.0,0.0,0.0,0.0,0.0,0.0,0.0,0.0,0.0,0.0,0.0,0.0,0.0,0.0,0.0,0.0,0.0,0.0,0.0,0.0,0.0,0.0,0.0,0.0,0.0,0.0,0.0,0.0,0.0,0.0,0.0,0.0,0.0,0.0,0.0,0.0,0.0,0.0,2.0896,2.0818,2.0659,2.0293,1.8508,1.694,0.0,0.0,0.0,0.0,0.0,0.0,0.0,0.0,0.0,0.0,0.0,0.0,0.0,0.0,0.0,0.0,0.0,0.0,0.0,0.0,0.0,0.0,0.0,0.0,0.0,0.0,0.0,0.0,0.0,0.0,0.0,0.0,0.0,0.0,0.0,0.0,0.0,0.0,0.0,0.0,0.0,0.0,0.0,0.0,0.0,0.0,0.0,0.0,0.0,0.0,0.0,0.0,0.0,0.0,0.0,0.0,0.0,0.0,0.0,0.0,0.0,0.0,0.0,0.0,0.0,0.0,0.0,0.0,0.0,0.0,0.0,0.0,0.0,0.0,0.0,0.0,0.0,0.0,0.0,0.0,0.0,0.0,0.0,0.0,0.0,0.0,0.0,0.0,0.0,0.0,0.0,0.0,0.0,0.0,0.0,0.0,0.0,0.0,0.0,0.0,0.0,0.0,0.0,0.0,0.0,0.0,0.0,0.0,0.0,2.0972,2.0646,1.9824,1.8645,1.7519,1.6253,0.0,0.0,0.0,0.0,0.0,0.0,0.0,0.0,0.0,0.0,0.0,0.0,0.0,0.0,0.0,0.0,0.0,0.0,0.0,0.0,0.0,0.0,0.0,0.0,0.0,0.0,0.0,0.0,0.0,0.0,0.0,0.0,0.0,0.0,0.0,0.0,0.0,0.0,0.0,0.0,0.0,0.0,0.0,0.0,0.0,0.0,0.0,0.0,0.0,0.0,0.0,0.0,0.0,0.0,0.0,0.0,0.0,0.0,0.0,0.0,0.0,0.0,0.0,0.0,0.0,0.0,0.0,0.0,0.0,0.0,0.0,0.0,0.0,0.0,0.0,0.0,0.0,0.0,0.0,0.0,0.0,0.0,0.0,0.0,0.0,0.0,0.0,0.0,0.0,0.0,0.0,0.0,0.0,0.0,0.0,0.0,0.0,0.0,0.0,0.0,0.0,0.0,0.0,0.0,0.0,0.0,0.0,0.0,0.0,0.0,2.0879,2.0489,1.9714,1.8166,1.6639,1.5221,0.0,0.0,0.0,0.0,0.0,0.0,0.0,0.0,0.0,0.0,0.0,0.0,0.0,0.0,0.0,0.0,0.0,0.0,0.0,0.0,0.0,0.0,0.0,0.0,0.0,0.0,0.0,0.0,0.0,0.0,0.0,0.0,0.0,0.0,0.0,0.0,0.0,0.0,0.0,0.0,0.0,0.0,0.0,0.0,0.0,0.0,0.0,0.0,0.0,0.0,0.0,0.0,0.0,0.0,0.0,0.0,0.0,0.0,0.0,0.0,0.0,0.0,0.0,0.0,0.0,0.0,0.0,0.0,0.0,0.0,0.0,0.0,0.0,0.0,0.0,0.0,0.0,0.0,0.0,0.0,0.0,0.0,0.0,0.0,0.0,0.0,0.0,0.0,0.0,0.0,0.0,0.0,0.0,0.0,0.0,0.0,0.0,0.0,0.0,0.0,0.0,0.0,0.0,0.0,0.0,0.0,0.0,0.0,0.0,0.0,2.0679,2.0239,1.8893,1.7307,0.0,0.0,0.0,0.0,0.0,0.0,0.0,0.0,0.0,0.0,0.0,0.0,0.0,0.0,0.0,0.0,0.0,0.0,0.0,0.0,0.0,0.0,0.0,0.0,0.0,0.0,0.0,0.0,0.0,0.0,0.0,0.0,0.0,0.0,0.0,0.0,0.0,0.0,0.0,0.0,0.0,0.0,0.0,0.0,0.0,0.0,0.0,0.0,0.0,0.0,0.0,0.0,0.0,0.0,0.0,0.0,0.0,0.0,0.0,0.0,0.0,0.0,0.0,0.0,0.0,0.0,0.0,0.0,0.0,0.0,0.0,0.0,0.0,0.0,0.0,0.0,0.0,0.0,0.0,0.0,0.0,0.0,0.0,0.0,0.0,0.0,0.0,0.0,0.0,0.0,0.0,0.0,0.0,0.0,0.0,0.0,0.0,0.0,0.0,0.0,0.0,0.0,0.0,0.0,0.0,0.0,0.0,0.0,0.0,0.0,0.0,2.0646,2.0251,1.9627,0.0,1.575,0.0,0.0,0.0,0.0,0.0,0.0,0.0,0.0,0.0,0.0,0.0,0.0,0.0,0.0,0.0,0.0,0.0,0.0,0.0,0.0,0.0,0.0,0.0,0.0,0.0,0.0,0.0,0.0,0.0,0.0,0.0,0.0,0.0,0.0,0.0,0.0,0.0,0.0,0.0,0.0,0.0,0.0,0.0,0.0,0.0,0.0,0.0,0.0,0.0,0.0,0.0,0.0,0.0,0.0,0.0,0.0,0.0,0.0,0.0,0.0,0.0,0.0,0.0,0.0,0.0,0.0,0.0,0.0,0.0,0.0,0.0,0.0,0.0,0.0,0.0,0.0,0.0,0.0,0.0,0.0,0.0,0.0,0.0,0.0,0.0,0.0,0.0,0.0,0.0,0.0,0.0,0.0,0.0,0.0,0.0,0.0,0.0,0.0,0.0,0.0,0.0,0.0,0.0,0.0,0.0,0.0,0.0,0.0,0.0,0.0,0.0,0.0,1.9946,1.9043,1.7615,0.0,0.0,0.0,0.0,0.0,0.0,0.0,0.0,0.0,0.0,0.0,0.0,0.0,0.0,0.0,0.0,0.0,0.0,0.0,0.0,0.0,0.0,0.0,0.0,0.0,0.0,0.0,0.0,0.0,0.0,0.0,0.0,0.0,0.0,0.0,0.0,0.0,0.0,0.0,0.0,0.0,0.0,0.0,0.0,0.0,0.0,0.0,0.0,0.0,0.0,0.0,0.0,0.0,0.0,0.0,0.0,0.0,0.0,0.0,0.0,0.0,0.0,0.0,0.0,0.0,0.0,0.0,0.0,0.0,0.0,0.0,0.0,0.0,0.0,0.0,0.0,0.0,0.0,0.0,0.0,0.0,0.0,0.0,0.0,0.0,0.0,0.0,0.0,0.0,0.0,0.0,0.0,0.0,0.0,0.0,0.0,0.0,0.0,0.0,0.0,0.0,0.0,0.0,0.0,0.0,0.0,0.0,0.0,0.0,0.0,2.0761,2.0501,2.0055,1.9442,1.8532,0.0,0.0,0.0,0.0,0.0,0.0,0.0,0.0,0.0,0.0,0.0,0.0,0.0,0.0,0.0,0.0,0.0,0.0,0.0,0.0,0.0,0.0,0.0,0.0,0.0,0.0,0.0,0.0,0.0,0.0,0.0,0.0,0.0,0.0,0.0,0.0,0.0,0.0,0.0,0.0,0.0,0.0,0.0,0.0,0.0,0.0,0.0,0.0,0.0,0.0,0.0,0.0,0.0,0.0,0.0,0.0,0.0,0.0,0.0,0.0,0.0,0.0,0.0,0.0,0.0,0.0,0.0,0.0,0.0,0.0,0.0,0.0,0.0,0.0,0.0,0.0,0.0,0.0,0.0,0.0,0.0,0.0,0.0,0.0,0.0,0.0,0.0,0.0,0.0,0.0,0.0,0.0,0.0,0.0,0.0,0.0,0.0,0.0,0.0,0.0,0.0,0.0,0.0,0.0,0.0,0.0,0.0,0.0,0.0,0.0,0.0,0.0,0.0,0.0,1.8862,0.0,0.0,0.0,0.0,0.0,0.0,0.0,0.0,0.0,0.0,0.0,0.0,0.0,0.0,0.0,0.0,0.0,0.0,0.0,0.0,0.0,0.0,0.0,0.0,0.0,0.0,0.0,0.0,0.0,0.0,0.0,0.0,0.0,0.0,0.0,0.0,0.0,0.0,0.0,0.0,0.0,0.0,0.0,0.0,0.0,0.0,0.0,0.0,0.0,0.0,0.0,0.0,0.0,0.0,0.0,0.0,0.0,0.0,0.0,0.0,0.0,0.0,0.0,0.0,0.0,0.0,0.0,0.0,0.0,0.0,0.0,0.0,0.0,0.0,0.0,0.0,0.0,0.0,0.0,0.0,0.0,0.0,0.0,0.0,0.0,0.0,0.0,0.0,0.0,0.0,0.0,0.0,0.0,0.0,0.0,0.0,0.0,0.0,0.0,0.0,0.0,0.0,0.0,0.0,0.0,0.0,0.0,0.0,0.0,0.0,0.0,0.0,0.0,0.0,0.0,0.0,0.0,0.0,0.0,0.0,0.0,0.0,0.0,0.0,0.0,0.0,0.0,0.0,0.0,0.0,0.0,0.0,0.0,0.0,0.0,0.0,0.0,0.0,0.0,0.0,0.0,0.0,0.0,0.0,0.0,0.0,0.0,0.0,0.0,0.0,0.0,0.0,0.0,0.0,0.0,0.0,0.0,0.0,0.0,0.0,0.0,0.0,0.0,0.0,0.0,0.0,0.0,0.0,0.0,0.0,0.0,0.0,0.0,0.0,0.0,0.0,0.0,0.0,0.0,0.0,0.0,0.0,0.0,0.0,0.0,0.0,0.0,0.0,0.0,0.0,0.0,0.0,0.0,0.0,0.0,0.0,0.0,0.0,0.0,0.0,0.0,0.0,0.0,0.0,0.0,0.0,0.0,0.0,0.0,0.0,0.0,0.0,0.0,0.0,0.0,0.0,0.0,0.0,0.0,0.0,0.0,0.0,0.0,0.0,0.0,0.0,0.0,0.0,0.0,0.0,0.0,0.0,0.0,0.0,0.0,0.0,0.0,0.0,0.0,0.0,0.0,0.0,0.0,0.0,0.0,0.0,0.0,0.0,0.0,0.0,0.0,0.0,0.0,0.0,0.0,0.0,0.0,0.0,0.0,0.0,0.0,0.0,0.0,0.0,0.0,0.0,0.0,0.0,0.0,0.0,0.0,0.0,0.0,0.0,0.0,0.0,0.0,0.0,0.0,0.0,0.0,0.0,0.0,0.0,0.0,0.0,0.0,0.0,0.0,0.0,0.0,0.0,0.0,0.0,0.0,0.0,0.0,0.0,0.0,0.0,0.0,0.0,0.0,0.0,0.0,0.0,0.0,0.0,0.0,0.0,0.0,0.0,0.0,0.0,0.0,0.0,0.0,0.0,0.0,0.0,0.0,0.0,0.0,0.0,0.0,0.0,0.0,0.0,0.0,0.0,0.0,0.0,0.0,0.0,0.0,0.0,0.0,0.0,0.0,0.0,0.0,0.0,0.0,0.0,0.0,0.0,0.0,0.0,0.0,0.0,0.0,0.0,0.0,0.0,0.0,0.0,0.0,0.0,0.0,0.0,0.0,0.0,0.0,0.0,0.0,0.0,0.0,0.0,0.0,0.0,0.0,0.0,0.0,0.0,0.0,0.0,0.0,0.0,0.0,0.0,0.0,0.0,0.0,0.0,0.0,0.0,0.0,0.0,0.0,0.0,0.0,0.0,0.0,0.0,0.0,0.0,0.0,0.0,0.0,0.0,0.0,0.0,0.0,0.0,0.0,0.0,0.0,0.0,0.0,0.0,0.0,0.0,0.0,0.0,0.0,0.0,0.0,0.0,0.0,0.0,0.0,0.0,0.0,0.0,0.0,0.0,0.0,0.0,0.0,0.0,0.0,0.0,0.0,0.0,0.0,0.0,0.0,0.0,0.0,0.0,0.0,0.0,0.0,0.0,0.0,0.0,0.0,0.0,0.0,0.0,0.0,0.0,0.0,0.0,0.0,0.0,0.0,0.0,0.0,0.0,0.0,0.0,0.0,0.0,0.0,0.0,0.0,0.0,0.0,0.0,0.0,0.0,0.0,0.0,0.0,0.0,0.0,0.0,0.0,0.0,0.0,0.0,0.0,0.0,0.0,0.0,0.0,0.0,0.0,0.0,0.0,0.0,0.0,0.0,0.0,0.0,0.0,0.0,0.0,0.0,0.0,0.0,0.0,0.0,0.0,0.0,0.0,0.0,0.0,0.0,0.0,0.0,0.0,0.0,0.0,0.0,0.0,0.0,0.0,0.0,0.0,0.0,0.0,0.0,0.0,0.0,0.0,0.0,0.0,0.0,0.0,0.0,0.0,0.0,0.0,0.0,0.0,0.0,0.0,0.0,0.0,0.0,0.0,0.0,0.0,0.0,0.0,0.0,0.0,0.0,0.0,0.0,0.0,0.0,0.0,0.0,0.0,0.0,0.0,0.0,0.0,0.0,0.0,0.0,0.0,0.0,0.0,0.0,0.0,0.0,0.0,0.0,0.0,0.0,0.0,0.0,0.0,0.0,0.0,0.0,0.0,0.0,0.0,0.0,0.0,0.0,0.0,0.0,0.0,0.0,0.0,0.0,0.0,0.0,0.0,0.0,0.0,0.0,0.0,0.0,0.0,0.0,0.0,0.0,0.0,0.0,0.0,0.0,0.0,0.0,0.0,0.0,0.0,0.0,0.0,0.0,0.0,0.0,0.0,0.0,0.0,0.0,0.0,0.0,0.0,0.0,0.0,0.0,0.0,0.0,0.0,0.0,0.0,0.0,0.0,0.0,0.0,0.0,0.0,0.0,0.0,0.0,0.0,0.0,0.0,0.0,0.0,0.0,0.0,0.0,0.0,0.0,0.0,0.0,0.0,0.0,0.0,0.0,0.0,0.0,0.0,0.0,0.0,0.0,0.0,0.0,0.0,0.0,0.0,0.0,0.0,0.0,0.0,0.0,0.0,0.0,0.0,0.0,0.0,0.0,0.0,0.0,0.0,0.0,0.0,0.0,0.0,0.0,0.0,0.0,0.0,0.0,0.0,0.0,0.0,0.0,0.0,0.0,0.0,0.0,0.0,0.0,0.0,0.0,0.0,0.0,0.0,0.0,0.0,0.0,0.0,0.0,0.0,0.0,0.0,0.0,0.0,0.0,0.0,0.0,0.0,0.0,0.0,0.0,0.0,0.0,0.0,0.0,0.0,0.0,0.0,0.0,0.0,0.0,0.0,0.0,0.0,0.0,0.0,0.0,0.0,0.0,0.0,0.0,0.0,0.0,0.0,0.0,0.0,0.0,0.0,0.0,0.0,0.0,0.0,0.0,0.0,0.0,0.0,0.0,0.0,0.0,0.0,0.0,0.0,0.0,0.0,0.0,0.0,0.0,0.0,0.0,0.0,0.0,0.0,0.0,0.0,0.0,0.0,0.0,0.0,0.0,0.0,0.0,0.0,0.0,0.0,0.0,0.0,0.0,0.0,0.0,0.0,0.0,0.0,0.0,0.0,0.0,0.0,0.0,0.0,0.0,0.0,0.0,0.0,0.0,0.0,0.0,0.0,0.0,0.0,0.0,0.0,0.0,0.0,0.0,0.0,0.0,0.0,0.0,0.0,0.0,0.0,0.0,0.0,0.0,0.0,0.0,0.0,0.0,0.0,0.0,0.0,0.0,0.0,0.0,0.0,0.0,0.0,0.0,0.0,0.0,0.0,0.0,0.0,0.0,0.0,0.0,0.0,0.0,0.0,0.0,0.0,0.0,0.0,0.0,0.0,0.0,0.0,0.0,0.0,0.0,0.0,0.0,0.0,0.0,0.0,0.0,0.0,0.0,0.0,0.0,0.0,0.0,0.0,0.0,0.0,0.0,0.0,0.0,0.0,0.0,0.0,0.0,0.0,0.0,0.0,0.0,0.0,0.0,0.0,0.0,0.0,0.0,0.0,0.0,0.0,0.0,0.0,0.0,0.0,0.0,0.0,0.0,0.0,0.0,0.0,0.0,0.0,0.0,0.0,0.0,0.0,0.0,0.0,0.0,0.0,0.0,0.0,0.0,0.0,0.0,0.0,0.0,0.0,0.0,0.0,0.0,0.0,0.0,0.0,0.0,0.0,0.0,0.0,0.0,0.0,0.0,0.0,0.0,0.0,0.0,0.0,0.0,0.0,0.0,0.0,0.0,0.0,0.0,0.0,0.0,0.0,0.0,0.0,0.0,0.0,0.0,0.0,0.0,0.0,0.0,0.0,0.0,0.0,0.0,0.0,0.0,0.0,0.0,0.0,0.0,0.0,0.0,0.0,0.0,0.0,0.0,0.0,0.0,0.0,0.0,0.0,0.0,0.0,0.0,0.0,0.0]}],[{"header":{"parameterUnit":"kt","parameterCategory":2,"dx":1,"dy":1,"la1":29.587661999999998,"la2":31.0,"lo1":-88.76705300000003,"lo2":-86.6583820000003,"nx":115,"ny":88,"refTime":"2022-09-24T06:00:00:Z","depth":0,"parameterNumber":2,"parameterNumberName":"V-component_of_WINDS"},"data":[4.5214,4.5698,4.5783,4.6015,4.6382,4.6743,4.7109,4.752,4.8248,4.874,4.9056,4.9667,5.0169,5.0447,5.1194,5.1634,5.19,5.243,5.3038,5.3595,5.3938,5.4338,5.4727,5.5037,5.5369,5.563,5.5836,5.6001,5.6048,5.6255,5.6446,5.6534,5.6545,5.6653,5.6853,5.7462,5.7772,5.8323,5.9189,6.0713,6.1842,6.3853,6.6336,6.7192,6.7892,6.8101,6.8243,6.8382,6.8435,6.851,6.8596,6.8655,6.8712,6.8806,6.9251,6.9703,7.0532,7.2451,7.4246,7.5661,7.703,7.8914,7.9272,7.9322,7.9389,7.9504,8.0952,8.2189,8.3525,8.5384,8.7446,8.9022,8.9486,8.9726,8.9962,9.0719,9.2228,9.3293,9.4203,9.5798,9.7464,9.8543,9.9465,9.9553,9.9729,9.9715,9.9739,10.036,10.0515,10.1689,10.2901,10.4761,10.6735,10.8383,10.9516,10.9772,10.982,10.9799,10.9853,11.0323,11.0897,11.1653,11.3186,11.489,11.6641,11.8047,11.8705,11.9396,11.9712,11.9717,11.9717,11.9735,11.9769,11.9759,11.9793,4.5214,4.5698,4.6048,4.637,4.6659,4.7017,4.753,4.8044,4.8483,4.8873,4.9367,5.0021,5.0362,5.0711,5.1196,5.1484,5.1851,5.2368,5.2838,5.3354,5.3789,5.415,5.4544,5.4906,5.5153,5.542,5.5739,5.5907,5.606,5.637,5.6548,5.6567,5.6653,5.6807,5.7354,5.8179,5.9217,5.9779,6.105,6.2649,6.4519,6.638,6.7284,6.7789,6.8099,6.8268,6.8336,6.8411,6.8476,6.8565,6.8663,6.8906,6.9095,6.9363,6.9926,7.1057,7.1952,7.3671,7.5515,7.6653,7.7922,7.8875,7.9296,7.9475,7.9524,8.0283,8.188,8.3144,8.424,8.5932,8.8169,8.9728,8.9728,8.9847,9.0118,9.0548,9.2809,9.4873,9.5901,9.6969,9.8289,9.9375,9.9765,9.9733,9.9752,9.9736,10.006,10.0758,10.1576,10.2568,10.4208,10.63,10.7876,10.8659,10.9554,10.9836,10.9845,10.9826,10.9927,11.0717,11.1705,11.3308,11.4923,11.6499,11.7597,11.878,11.9509,11.9708,11.9712,11.9717,11.9697,11.9727,11.9759,11.9831,11.9865,4.5464,4.572,4.6111,4.6547,4.7006,4.731,4.7838,4.8394,4.879,4.9231,4.9722,5.0187,5.0503,5.0644,5.1213,5.1584,5.1784,5.2305,5.2748,5.3163,5.3547,5.3938,5.4338,5.472,5.4971,5.5278,5.5605,5.5884,5.6105,5.6402,5.6657,5.6686,5.6889,5.7385,5.8618,5.9139,6.0002,6.1217,6.2937,6.4672,6.6528,6.7266,6.7918,6.8197,6.8274,6.8324,6.839,6.8394,6.8481,6.8604,6.8752,6.9107,7.0009,7.0333,7.1308,7.259,7.3884,7.5114,7.6468,7.7686,7.8781,7.9188,7.9524,7.9598,7.9643,8.0922,8.2505,8.4067,8.5159,8.6718,8.8955,8.983,8.9868,9.0363,9.0747,9.1397,9.3309,9.5524,9.7049,9.8042,9.8946,9.9884,9.9866,9.9838,9.9824,9.9809,9.9742,10.0366,10.1867,10.3152,10.5557,10.7621,10.8727,10.9623,10.9822,10.9865,10.9868,10.9863,10.9816,11.0764,11.2013,11.4297,11.6275,11.7133,11.8151,11.9324,11.9665,11.9712,11.9717,11.9731,11.9723,11.9793,11.9789,11.982,12.1182,4.5741,4.5817,4.6153,4.6629,4.7219,4.7669,4.8142,4.8664,4.9131,4.962,5.0066,5.0383,5.0574,5.0714,5.1279,5.155,5.1751,5.2226,5.2591,5.2946,5.3462,5.3838,5.4102,5.4612,5.4932,5.5226,5.5457,5.5764,5.6071,5.6495,5.6772,5.7324,5.7688,5.869,6.0096,6.1074,6.1851,6.298,6.462,6.6357,6.7459,6.7882,6.8171,6.8328,6.8411,6.8415,6.8394,6.8397,6.849,6.8827,6.8924,6.9913,7.1287,7.1881,7.3002,7.4528,7.5747,7.6641,7.7702,7.863,7.9225,7.952,7.9629,7.9691,8.0318,8.1621,8.3085,8.4718,8.6315,8.7908,8.9311,8.969,9.0071,9.0835,9.156,9.2626,9.373,9.5829,9.7926,9.8876,9.9637,9.9895,9.9882,9.9909,9.9897,9.9916,9.9963,10.0968,10.2736,10.4555,10.696,10.8502,10.9603,10.9844,10.9892,10.9932,10.9932,10.9927,11.0445,11.1254,11.2135,11.4594,11.7016,11.7837,11.851,11.922,11.9712,11.9726,11.9739,11.9752,11.9819,12.0293,12.0323,12.0928,12.2772,4.591,4.6236,4.6278,4.667,4.732,4.8142,4.8606,4.8842,4.9454,5.0035,5.0383,5.0556,5.0711,5.09,5.1296,5.1517,5.1734,5.2161,5.2577,5.2712,5.3295,5.3708,5.4066,5.4544,5.484,5.5127,5.5382,5.5605,5.6025,5.6759,5.7693,5.8844,5.9089,6.0146,6.1742,6.2805,6.3772,6.4752,6.6159,6.7224,6.7782,6.8073,6.8294,6.8394,6.8415,6.8381,6.8389,6.8495,6.8467,6.914,6.9848,7.0921,7.2034,7.2912,7.4716,7.6166,7.6867,7.7756,7.8687,7.922,7.9578,7.965,7.9676,7.9755,8.0519,8.1776,8.3308,8.4905,8.6992,8.8699,8.9454,8.9871,9.0702,9.1574,9.2639,9.3817,9.5108,9.6896,9.8573,9.9294,9.9903,9.9901,9.9891,9.9884,9.9913,10.0435,10.1024,10.2597,10.4297,10.6079,10.7917,10.9378,10.9808,10.9892,10.9942,10.9984,10.9989,11.0516,11.1336,11.2149,11.3115,11.5233,11.7681,11.8473,11.9155,11.9592,11.9706,11.9727,11.971,11.9756,12.0089,12.0671,12.1583,12.2409,12.417,4.6132,4.6319,4.6691,4.6997,4.736,4.825,4.8911,4.9436,4.9985,5.0326,5.0524,5.0694,5.0848,5.097,5.1296,5.15,5.155,5.2129,5.245,5.2701,5.3147,5.3517,5.3895,5.431,5.4679,5.4932,5.5179,5.5457,5.6082,5.7039,5.822,5.9324,6.0378,6.1762,6.3176,6.4274,6.5311,6.6325,6.712,6.7689,6.8011,6.818,6.8299,6.8398,6.841,6.8389,6.8471,6.9688,6.9978,7.0369,7.1808,7.2711,7.3126,7.4502,7.6284,7.7685,7.8186,7.8777,7.9271,7.9537,7.9616,7.9679,7.9771,7.9848,8.0682,8.2218,8.3823,8.5348,8.7473,8.9179,8.9631,9.0199,9.1293,9.2388,9.3678,9.4968,9.6562,9.8155,9.899,9.9713,9.9903,9.9903,9.9901,9.9897,10.0156,10.1098,10.2377,10.4068,10.5886,10.752,10.8977,10.9781,10.9899,10.994,10.9984,11.0029,11.0105,11.052,11.1725,11.3083,11.413,11.5845,11.7901,11.8982,11.9684,11.9725,11.9729,11.9703,11.9748,11.98,11.9972,12.154,12.3021,12.3993,12.5859,4.6444,4.6588,4.7017,4.74,4.7749,4.8599,4.9306,5.0012,5.0362,5.0609,5.0694,5.0848,5.09,5.0952,5.133,5.1466,5.1718,5.2031,5.2339,5.2687,5.3102,5.3369,5.3771,5.4219,5.4551,5.4834,5.5097,5.5427,5.6019,5.7597,5.8769,6.0262,6.1798,6.3355,6.452,6.5218,6.6223,6.7107,6.7447,6.7864,6.811,6.8206,6.8324,6.8377,6.8389,6.8945,6.9288,7.0327,7.1242,7.1971,7.3522,7.4413,7.468,7.62,7.744,7.9002,7.9316,7.9516,7.9528,7.9623,7.9694,7.9771,7.9819,7.9972,8.1274,8.2992,8.4975,8.6457,8.8241,8.9263,8.9869,9.0888,9.2059,9.3494,9.5006,9.6372,9.7928,9.9104,9.9332,9.9903,9.9903,9.9941,10.0092,10.024,10.1227,10.2249,10.3687,10.5613,10.7391,10.8726,10.9873,10.9949,11.0025,10.9987,11.0029,11.0031,11.0221,11.0752,11.2419,11.3892,11.5284,11.6826,11.8293,11.922,11.9607,11.9724,11.9738,11.9782,11.9824,11.9871,12.0662,12.2715,12.4604,12.5872,12.7512,4.6884,4.7209,4.7219,4.7719,4.8587,4.93,4.998,5.0503,5.0556,5.0711,5.0883,5.0883,5.0935,5.1004,5.133,5.1517,5.1651,5.2194,5.242,5.2689,5.3135,5.3418,5.3771,5.4191,5.4524,5.4821,5.5132,5.5446,5.5898,5.7547,6.0183,6.2402,6.3382,6.466,6.5698,6.6313,6.6736,6.7275,6.7583,6.7845,6.8119,6.8251,6.8472,6.8868,6.8991,6.9614,7.0633,7.1466,7.2382,7.3541,7.5074,7.581,7.6736,7.7955,7.8601,7.9176,7.9369,7.9554,7.9661,7.9695,7.9798,8.0314,8.0197,8.1003,8.2341,8.4136,8.5737,8.7259,8.8632,8.9426,9.0217,9.1463,9.2708,9.433,9.5993,9.7548,9.9104,9.9675,9.9865,9.9903,9.9903,10.0282,10.051,10.127,10.2255,10.3697,10.5666,10.7405,10.8581,10.9955,10.9993,11.0031,11.0031,11.0031,11.0031,11.0031,11.0373,11.1399,11.3107,11.4736,11.674,11.8323,11.9072,11.9513,11.9716,11.9789,11.9801,11.9848,12.0009,12.0911,12.1733,12.3696,12.5915,12.729,12.8394,4.8149,4.754,4.7946,4.8336,4.8714,4.9411,5.0071,5.0521,5.0711,5.0831,5.09,5.0918,5.097,5.1095,5.1349,5.1533,5.1685,5.2162,5.2388,5.2594,5.3105,5.3568,5.3839,5.4142,5.4889,5.4706,5.5067,5.5907,5.695,5.7808,6.0126,6.288,6.4575,6.5563,6.6102,6.666,6.6918,6.7281,6.7573,6.7761,6.8047,6.8428,6.8863,6.961,7.0253,7.0847,7.232,7.3568,7.4609,7.5452,7.6621,7.7813,7.8044,7.8641,7.8953,7.9249,7.9427,7.9562,7.9732,7.9782,8.0638,8.1408,8.1532,8.2411,8.3971,8.5469,8.6729,8.7759,8.902,8.9702,9.0265,9.1657,9.3013,9.4596,9.626,9.7928,9.9256,9.9713,9.9903,9.9903,10.0016,10.0851,10.1498,10.2295,10.3509,10.5596,10.7529,10.8667,10.9803,10.9993,11.0031,11.0031,11.0031,11.0031,11.0031,11.0031,11.0866,11.2158,11.3676,11.5229,11.7162,11.8876,11.9436,11.9955,11.9876,11.9876,11.9912,12.022,12.0655,12.1473,12.2862,12.4929,12.7028,12.8321,12.9347,4.9858,4.8753,4.9186,4.9484,4.9797,4.9982,5.0183,5.0556,5.0781,5.0918,5.0918,5.0918,5.0989,5.1163,5.14,5.1601,5.1785,5.2161,5.2482,5.277,5.3838,5.4139,5.4855,5.5625,5.6228,5.6313,5.6633,5.7642,5.8387,5.9683,6.133,6.2788,6.4681,6.5877,6.6149,6.6485,6.6818,6.716,6.7513,6.7769,6.8038,6.8763,6.9633,7.0748,7.1441,7.2515,7.4117,7.5014,7.6036,7.7044,7.7662,7.8577,7.8824,7.8932,7.919,7.9365,7.9428,7.9545,7.9698,8.0583,8.1503,8.2625,8.336,8.4043,8.5524,8.6913,8.7718,8.8556,8.9511,9.0269,9.095,9.2418,9.3888,9.5432,9.7021,9.869,9.9296,9.9713,9.9903,9.9903,9.9903,10.0586,10.1534,10.2219,10.4911,10.7301,10.8591,10.9728,10.9993,11.0031,11.0031,11.0031,11.0031,11.0031,11.0031,11.0031,11.0676,11.2731,11.4515,11.5959,11.7447,11.9124,11.9766,11.9957,11.9957,11.9955,11.9919,12.0113,12.0955,12.2483,12.4511,12.6533,12.8096,12.9273,13.0032,5.202,5.1036,5.0912,5.138,5.1971,5.1085,5.0748,5.0883,5.1073,5.1047,5.0933,5.092,5.1041,5.1262,5.1759,5.2094,5.2344,5.2818,5.3239,5.3921,5.52,5.5895,5.6656,5.7531,5.8241,5.9268,5.9238,5.9262,6.0141,6.122,6.2316,6.3649,6.4753,6.5601,6.578,6.6331,6.6762,6.7111,6.7619,6.8017,6.8638,6.9928,7.0892,7.1956,7.2832,7.4266,7.5589,7.6495,7.7124,7.799,7.8606,7.8836,7.9051,7.9153,7.9268,7.9443,7.9482,7.9579,7.9865,8.155,8.3185,8.4646,8.4991,8.5788,8.7042,8.7737,8.828,8.9271,8.9847,9.0681,9.2269,9.3818,9.5328,9.6876,9.843,9.9718,9.9679,9.9906,9.9904,9.9903,9.9903,10.013,10.1231,10.2938,10.6163,10.821,10.9538,11.0031,11.0031,11.0031,11.0031,11.0031,11.0031,11.0031,11.0031,11.0031,11.1176,11.3532,11.5474,11.6929,11.8415,11.9443,11.979,11.991,11.9946,11.9938,11.9944,11.999,12.102,12.224,12.4979,12.7489,12.9007,13.0032,13.0032,5.3896,5.2758,5.1857,5.2446,5.3899,5.3697,5.3103,5.2427,5.2384,5.1951,5.0967,5.1009,5.1163,5.1725,5.2531,5.3326,5.3927,5.4905,5.5602,5.6293,5.6959,5.7687,5.8182,5.8894,5.9785,5.9613,5.99,6.0801,6.1726,6.2327,6.3281,6.4231,6.5075,6.5401,6.5689,6.6112,6.6615,6.7271,6.82,6.9297,6.9846,7.1388,7.2707,7.4172,7.4712,7.6035,7.7091,7.7646,7.8153,7.8531,7.8814,7.8961,7.9109,7.9289,7.9407,7.9484,7.9578,7.9661,8.049,8.2265,8.4932,8.6202,8.6585,8.7609,8.8715,8.9294,8.9148,8.9987,9.0109,9.0682,9.234,9.4202,9.5908,9.757,9.9199,9.9882,9.9919,9.9912,9.9908,9.9978,10.0282,10.0548,10.1838,10.3697,10.6391,10.8098,10.9348,11.0031,11.0031,11.0031,11.0031,11.0031,11.0033,11.0033,11.0185,11.1072,11.2143,11.4424,11.6141,11.7706,11.8812,11.9455,11.9913,11.9961,11.9962,11.9954,12.007,12.0266,12.1145,12.2401,12.4945,12.783,12.9197,13.0032,13.0032,5.5942,5.4741,5.4034,5.4499,5.5657,5.5163,5.455,5.3966,5.387,5.3354,5.2659,5.2709,5.2903,5.3423,5.4401,5.5026,5.5501,5.6787,5.7188,5.7901,5.8812,5.9445,6.0142,6.0636,6.1245,6.1602,6.1852,6.2554,6.3257,6.358,6.4362,6.4784,6.5162,6.5391,6.561,6.5987,6.6919,6.7955,6.968,7.0908,7.1556,7.3041,7.4586,7.5941,7.6341,7.7529,7.8284,7.8609,7.874,7.8815,7.8934,7.9047,7.9223,7.9391,7.9886,8.0595,8.0748,8.1232,8.2232,8.4327,8.6262,8.7452,8.814,8.8823,8.9624,8.9934,8.9977,9.0284,9.063,9.1882,9.3355,9.496,9.6449,9.8,9.9098,9.9706,9.9893,9.9885,9.9917,10.021,10.055,10.127,10.2864,10.4607,10.6429,10.806,10.9158,11.0031,11.0031,11.0031,11.0031,11.0031,11.0043,11.0045,11.1113,11.2186,11.3223,11.4976,11.6728,11.8101,11.9359,11.985,11.9967,11.9932,11.9933,12.0009,12.0199,12.054,12.2059,12.4412,12.6575,12.8285,12.9083,12.9956,13.0032,5.7939,5.6768,5.696,5.7107,5.7194,5.5977,5.5513,5.5319,5.5333,5.519,5.4804,5.5165,5.5159,5.5725,5.6066,5.6701,5.6982,5.7439,5.8326,5.9192,5.9973,6.1072,6.1793,6.2742,6.3749,6.4009,6.397,6.4234,6.4777,6.4488,6.4785,6.5088,6.5241,6.5427,6.5918,6.6591,6.7568,6.9375,7.1376,7.2516,7.3287,7.4566,7.5808,7.6542,7.7558,7.8445,7.8691,7.8748,7.8801,7.8953,7.9422,7.9688,8.0086,8.0429,8.1339,8.2068,8.2399,8.3433,8.4919,8.6738,8.7631,8.8097,8.8823,8.9774,9.0077,9.0039,9.0229,9.0574,9.1943,9.3306,9.4903,9.6429,9.7659,9.8876,9.9527,9.9907,9.9906,9.9937,10.0189,10.0403,10.127,10.2485,10.4002,10.6277,10.8212,10.8971,10.9993,11.0031,11.0031,11.0037,11.0037,11.0041,11.0054,11.0708,11.1887,11.3227,11.4376,11.5939,11.7576,11.8832,11.9744,11.9818,11.9931,11.9967,11.9967,12.0075,12.0298,12.1784,12.3608,12.6259,12.7968,12.8773,12.9535,12.9955,13.0032,5.8677,5.861,5.8671,5.8743,5.8719,5.8417,5.7664,5.6711,5.6666,5.6138,5.5486,5.5456,5.5715,5.6178,5.7476,5.8351,5.8721,6.019,6.1092,6.1732,6.2401,6.2838,6.327,6.3715,6.4378,6.4621,6.4787,6.4903,6.4911,6.501,6.5187,6.5137,6.5636,6.6199,6.7057,6.7818,6.8807,7.0623,7.2697,7.3964,7.4797,7.6356,7.718,7.776,7.8167,7.8528,7.8695,7.8876,7.9056,7.9515,8.0411,8.1184,8.1546,8.2295,8.334,8.3866,8.4374,8.5556,8.7566,8.8689,8.9272,8.9506,8.9925,9.0077,9.0265,9.129,9.1895,9.1895,9.3375,9.4968,9.634,9.7045,9.8383,9.9263,9.9915,9.9917,9.9955,10.0249,10.0501,10.1288,10.2494,10.3705,10.5862,10.806,10.9161,10.9841,11.0031,11.0031,11.0039,11.0049,11.0051,11.0058,11.0296,11.1028,11.2399,11.3924,11.5449,11.6895,11.8453,11.959,11.9775,11.992,11.9953,11.9954,11.9956,12.0518,12.1759,12.3353,12.4985,12.6925,12.8601,12.9334,12.972,12.9913,13.007,5.9095,5.9266,5.9266,5.9266,5.9266,5.9266,5.8835,5.8172,5.8075,5.7677,5.7143,5.7136,5.7436,5.8092,5.9163,6.0044,6.0637,6.175,6.2687,6.2988,6.3344,6.3712,6.406,6.4383,6.4562,6.4729,6.486,6.4925,6.5293,6.5568,6.6105,6.6465,6.7144,6.7938,6.8964,6.9397,7.0534,7.1971,7.3446,7.4928,7.6229,7.733,7.8154,7.8422,7.8536,7.915,7.9736,8.0056,8.0389,8.1502,8.2179,8.2972,8.3397,8.4118,8.5219,8.5697,8.646,8.7865,8.9602,8.9881,8.9886,8.9963,9.0001,9.0417,9.1328,9.2504,9.3564,9.3602,9.5006,9.622,9.7136,9.8036,9.8919,9.9497,9.9883,9.9884,9.9997,10.0406,10.1459,10.2589,10.3832,10.5947,10.81,10.9239,10.9656,11.0035,11.0035,11.0039,11.0051,11.0058,11.0064,11.0071,11.0652,11.1496,11.3095,11.473,11.6327,11.8033,11.9622,11.9732,11.9912,11.994,11.9935,11.9935,11.9932,12.1255,12.3219,12.4543,12.5753,12.7473,12.923,12.9543,12.9778,12.9977,13.0179,5.9278,5.9266,5.9266,5.9266,5.9266,5.9266,5.9266,5.9201,5.9137,5.9318,5.9012,5.9458,5.9618,6.0027,6.0832,6.1428,6.1927,6.2584,6.3041,6.3354,6.3686,6.3983,6.4233,6.4567,6.472,6.4787,6.4889,6.5102,6.6268,6.735,6.7847,6.8208,6.9139,7.0376,7.0674,7.1058,7.2019,7.3376,7.4129,7.5398,7.7147,7.8126,7.8636,7.9003,7.9499,8.0312,8.154,8.1863,8.2397,8.3783,8.4318,8.4709,8.4887,8.5049,8.6215,8.7557,8.8925,8.9983,8.9958,9.0001,9.0001,9.0001,9.0381,9.1138,9.2198,9.3602,9.478,9.5084,9.6676,9.7774,9.8237,9.906,9.9642,9.9953,10.0264,10.0494,10.0645,10.1666,10.3026,10.4232,10.6054,10.8166,10.9364,10.974,11.0039,11.0039,11.0041,11.0053,11.0061,11.0028,11.0033,11.035,11.0853,11.2416,11.4011,11.5717,11.7421,11.9272,11.9836,11.9908,11.9968,11.9951,11.9947,11.9896,11.9929,12.0757,12.3063,12.4995,12.6515,12.7929,12.9237,12.9704,12.9866,13.0004,13.0173,5.9196,5.9266,5.9266,5.9266,5.9266,5.9266,5.9266,5.9266,5.9266,5.9419,5.96,5.9858,6.0185,6.0553,6.0937,6.1595,6.2326,6.2891,6.3496,6.3904,6.4187,6.4226,6.4388,6.4612,6.5103,6.5451,6.5383,6.6337,6.8214,6.9278,6.9557,6.9935,6.9928,7.0818,7.218,7.2684,7.3846,7.492,7.5813,7.6251,7.7426,7.8922,8.0186,8.0565,8.1996,8.2805,8.3374,8.3597,8.4028,8.4795,8.5746,8.6542,8.6787,8.7979,8.8971,8.9417,8.9754,8.9956,9.0,9.0038,9.0267,9.0343,9.1328,9.2047,9.3033,9.4323,9.5577,9.6865,9.8307,9.9218,9.9185,9.9668,9.9908,10.018,10.1137,10.2014,10.2317,10.3341,10.4703,10.6446,10.8345,10.9402,10.9733,11.0031,11.0028,11.0026,11.0026,11.0033,11.0039,11.0041,11.0125,11.0513,11.1429,11.306,11.5027,11.6729,11.8461,11.9773,11.9843,11.9875,11.9898,11.9919,11.9895,11.9836,11.9982,12.1119,12.3085,12.5129,12.6938,12.8397,12.9352,12.9867,12.9856,12.9957,13.0427,5.9156,5.9246,5.9266,5.9266,5.9266,5.9266,5.9266,5.9318,5.9407,5.956,5.9739,5.9996,6.036,6.0851,6.166,6.3289,6.4621,6.5228,6.5668,6.6044,6.6317,6.6552,6.6888,6.7075,6.7119,6.7217,6.7311,6.8446,6.9947,7.0843,7.1372,7.1601,7.2342,7.3071,7.3974,7.4267,7.4979,7.5627,7.6362,7.7077,7.8407,7.9497,8.1076,8.201,8.322,8.4289,8.4902,8.5304,8.5802,8.6716,8.7696,8.8227,8.8596,8.9208,8.9801,8.9886,8.9951,9.0001,9.0001,9.0871,9.1176,9.1364,9.2692,9.3868,9.4854,9.5575,9.6865,9.8269,9.9675,9.9903,9.9903,9.9857,10.0326,10.1053,10.1821,10.2735,10.376,10.5203,10.6795,10.8461,10.9373,10.9751,11.005,11.0048,11.0046,11.0045,11.0045,11.0048,11.0051,11.0056,11.0061,11.0594,11.1465,11.3541,11.6026,11.768,11.9327,11.9692,11.9795,11.9787,11.9811,11.9808,11.9779,11.9847,12.1048,12.2075,12.3894,12.554,12.7438,12.9137,12.9567,12.9851,12.9844,13.017,13.0826,5.9617,5.9974,5.9994,5.9994,6.0006,6.0026,6.0155,6.0067,6.0497,6.0445,6.0643,6.0884,6.1433,6.1965,6.3494,6.523,6.6654,6.7389,6.7936,6.8252,6.8576,6.8732,6.885,6.8938,6.9755,7.0345,7.0632,7.0782,7.1641,7.2284,7.3105,7.3514,7.4334,7.4958,7.5176,7.5528,7.5704,7.6724,7.7203,7.8342,7.9709,8.081,8.1841,8.3695,8.4833,8.5736,8.668,8.711,8.7814,8.9217,8.9526,8.9619,8.9687,9.0056,9.0437,9.0696,9.1019,9.1443,9.1481,9.2274,9.2768,9.3261,9.4399,9.5955,9.6863,9.7622,9.8345,9.9445,9.9827,9.9903,9.9904,9.9895,10.0705,10.1965,10.2811,10.3646,10.5279,10.6873,10.8467,10.9415,10.9755,11.0059,11.0058,11.0056,11.0056,11.0056,11.0056,11.0058,11.0061,11.0062,11.0024,11.0665,11.1567,11.4161,11.6631,11.805,11.9545,11.9716,11.9751,11.9745,11.9728,11.9724,11.9839,12.0038,12.0958,12.2567,12.4294,12.6021,12.7688,12.9206,12.9579,12.9836,13.0203,13.0643,13.1302,6.1478,6.2902,6.2902,6.2934,6.2902,6.2837,6.274,6.2848,6.3189,6.3076,6.3642,6.4043,6.3946,6.4758,6.5506,6.6244,6.7302,6.8112,6.9106,6.9304,6.9661,6.9871,6.9914,7.025,7.1141,7.3728,7.3566,7.3755,7.4073,7.4676,7.4533,7.4798,7.519,7.5559,7.5563,7.565,7.6674,7.8174,7.8725,7.9853,8.1551,8.2276,8.3465,8.5381,8.6787,8.7858,8.8113,8.8504,8.8917,8.9336,8.9522,8.9675,9.0117,9.0995,9.1999,9.2153,9.3107,9.349,9.3642,9.4135,9.4513,9.4591,9.6069,9.7129,9.7698,9.8611,9.9369,9.9789,9.9903,9.9903,9.9904,10.0084,10.0932,10.2305,10.3872,10.5279,10.6949,10.862,10.9417,11.0062,11.0062,11.0062,11.0062,11.0062,11.0062,11.0062,11.0062,11.0062,11.0062,11.0021,11.0017,11.0427,11.2,11.4319,11.5839,11.7255,11.9345,11.9714,11.9717,11.9737,11.9714,11.9769,11.9882,12.0147,12.1289,12.2824,12.4558,12.6529,12.8049,12.9112,12.9721,12.98,13.0364,13.1114,13.249,6.2619,6.3513,6.3535,6.3535,6.3535,6.3535,6.3535,6.361,6.3975,6.422,6.4442,6.4916,6.5268,6.5601,6.6951,6.7856,6.854,6.9865,7.091,7.1316,7.1546,7.1791,7.1961,7.2303,7.2696,7.4099,7.4578,7.4749,7.5004,7.5074,7.5297,7.5226,7.6097,7.6554,7.674,7.7724,7.8704,7.9899,8.0441,8.1585,8.3346,8.404,8.509,8.7058,8.8163,8.8803,8.8834,8.9101,8.9311,8.988,9.1241,9.2392,9.2691,9.3219,9.366,9.377,9.4543,9.4818,9.5198,9.5615,9.622,9.6258,9.7776,9.8459,9.899,9.9369,9.9903,9.9903,9.9903,9.9903,9.998,10.0535,10.2068,10.3593,10.5274,10.6949,10.8506,10.9531,11.0062,11.0062,11.0062,11.0062,11.0062,11.0062,11.0062,11.0062,11.0062,11.0061,11.0058,11.0011,11.0004,11.0406,11.2158,11.3902,11.5229,11.7011,11.9171,11.9685,11.9681,11.9655,11.9641,11.9725,11.9899,12.1278,12.2494,12.3873,12.5246,12.7187,12.8976,12.9479,12.9714,12.9759,13.0293,13.1615,13.3148,6.3803,6.448,6.4447,6.448,6.4502,6.448,6.4556,6.4708,6.5142,6.553,6.5527,6.6101,6.6489,6.6797,6.857,6.9569,7.02,7.1524,7.2847,7.3549,7.3769,7.3969,7.4033,7.3993,7.4231,7.4392,7.4551,7.492,7.5446,7.5797,7.5838,7.6403,7.7646,7.8177,7.8475,7.9426,8.0635,8.1594,8.2044,8.3269,8.5014,8.5691,8.6553,8.7906,8.8491,8.871,8.8841,8.9402,8.9964,9.098,9.2904,9.426,9.4515,9.5056,9.5388,9.553,9.5779,9.6095,9.6215,9.7237,9.796,9.804,9.9028,9.9903,9.9903,9.9903,9.9903,9.9903,9.9903,9.9903,10.0056,10.1436,10.297,10.4576,10.6295,10.8009,10.9531,11.0024,11.0062,11.0062,11.0062,11.0062,11.0062,11.0062,11.0062,11.0062,11.0061,11.0058,11.0011,10.9997,10.9942,10.9884,11.1887,11.4248,11.5643,11.7264,11.8889,11.9574,11.9596,11.9565,11.9468,11.9526,12.015,12.1567,12.3444,12.4937,12.6153,12.7985,12.9177,12.9425,12.9702,12.9714,13.0248,13.2109,13.365,6.5796,6.7411,6.7411,6.7388,6.7282,6.7355,6.7225,6.7688,6.7773,6.805,6.8358,6.9115,6.9151,6.9907,7.0275,7.1278,7.1783,7.2232,7.2847,7.3289,7.3633,7.4026,7.4198,7.442,7.4673,7.4874,7.4533,7.559,7.6702,7.7117,7.7903,7.875,7.9332,7.9708,7.9986,8.0349,8.1362,8.2946,8.3602,8.4853,8.623,8.716,8.7761,8.8544,8.8763,8.9072,8.9546,9.0586,9.2159,9.3657,9.4316,9.4958,9.5115,9.6422,9.6989,9.7283,9.8167,9.8903,9.9299,9.9114,9.9541,9.9477,9.9671,9.9903,9.9901,9.9899,9.9901,9.9903,9.9903,9.9903,10.0094,10.1323,10.2965,10.4832,10.6595,10.8197,10.9565,11.0059,11.006,11.0062,11.0062,11.0062,11.0062,11.0062,11.0062,11.0061,11.0058,11.0052,11.0039,10.9942,10.9877,11.0001,11.2025,11.4478,11.5936,11.7472,11.8711,11.948,11.9456,11.9413,11.9338,11.9824,12.0428,12.1688,12.3828,12.557,12.6964,12.8012,12.907,12.955,12.9647,12.9659,12.997,13.1946,13.3755,6.6726,6.7653,6.7792,6.7862,6.7862,6.8032,6.8114,6.8306,6.8678,6.8924,6.9112,6.9676,7.0099,7.0437,7.1063,7.1608,7.2095,7.2406,7.2775,7.3237,7.3532,7.4244,7.5062,7.5322,7.5949,7.6787,7.7116,7.7584,7.8246,7.8468,7.8836,7.9715,8.0615,8.117,8.1382,8.2387,8.3714,8.4466,8.5165,8.5856,8.7025,8.8273,8.9034,8.9566,9.068,9.129,9.1536,9.2496,9.3892,9.5463,9.6707,9.7402,9.7555,9.8347,9.8705,9.8778,9.9373,9.985,9.9878,9.9884,9.9889,9.9897,9.9899,9.9909,9.9882,9.9886,9.9893,9.9899,9.9903,9.9903,10.0056,10.0517,10.2195,10.4672,10.7379,10.9171,10.9899,11.0055,11.006,11.0062,11.0062,11.0062,11.0062,11.0062,11.0062,11.0059,11.0055,11.0045,11.0026,10.9884,10.9925,11.0682,11.2252,11.3985,11.5461,11.7586,11.911,11.931,11.93,11.9265,11.9525,12.0195,12.1251,12.2813,12.4519,12.615,12.7554,12.8821,12.9372,12.95,12.9582,12.9826,13.0587,13.1994,13.3684,6.7199,6.7481,6.7746,6.7862,6.7885,6.8091,6.8284,6.8397,6.8812,6.9035,6.9178,6.973,7.0099,7.0437,7.1029,7.1608,7.2091,7.2406,7.2791,7.3271,7.3915,7.5311,7.6396,7.6764,7.7447,7.8412,7.8585,7.9268,7.9708,7.9827,8.0195,8.0547,8.2012,8.2626,8.2933,8.4141,8.5124,8.5529,8.6251,8.699,8.77,8.943,9.0615,9.097,9.2277,9.3078,9.3399,9.3778,9.4863,9.6975,9.8553,9.9317,9.9239,9.9455,9.9524,9.9517,9.9633,9.9712,9.9818,9.9831,9.9844,9.985,9.9902,9.9911,9.9899,9.9899,9.9906,9.9918,9.9886,9.9886,9.9969,10.0426,10.1991,10.4702,10.7281,10.9223,10.9848,11.005,11.0058,11.0062,11.0062,11.0062,11.0062,11.0062,11.0062,11.0057,11.005,11.004,11.0015,10.9904,10.9828,11.0805,11.2209,11.3631,11.5284,11.7623,11.9032,11.9147,11.9155,11.9132,11.9513,11.9954,12.1469,12.3725,12.5056,12.6651,12.8086,12.9069,12.9275,12.9406,12.9462,12.9624,13.0578,13.2071,13.3806,6.723,6.7457,6.7714,6.7838,6.7885,6.8114,6.8375,6.8633,6.8901,6.9123,6.9276,6.9872,7.0266,7.0512,7.1521,7.2118,7.2179,7.2731,7.322,7.4099,7.5716,7.7074,7.7627,7.811,7.8604,7.8974,7.9062,7.9871,8.121,8.1333,8.211,8.317,8.3453,8.393,8.4084,8.443,8.5046,8.5714,8.7147,8.8255,8.8792,9.08,9.1945,9.2243,9.2912,9.3461,9.3741,9.396,9.5293,9.7952,9.8727,9.913,9.9333,9.9455,9.9508,9.9519,9.9569,9.962,9.9706,9.9742,9.9735,9.9729,9.9831,9.9905,9.9894,9.9856,9.9862,9.9873,9.9873,9.996,10.0359,10.1198,10.295,10.4829,10.6943,10.8547,10.9794,11.0039,11.0051,11.0058,11.0062,11.0062,11.0062,11.0062,11.0062,11.0054,11.0047,11.0035,11.0007,10.993,10.9848,11.0994,11.2608,11.3894,11.4712,11.7038,11.9114,11.9147,11.9069,11.8996,11.909,11.9214,12.0079,12.3048,12.5377,12.7049,12.8373,12.8829,12.9129,12.926,12.9347,12.9423,13.0483,13.2258,13.392,6.6961,6.7222,6.7489,6.7699,6.7885,6.8329,6.8533,6.8668,6.9002,6.9167,6.9517,7.0678,7.1454,7.2016,7.3463,7.4355,7.4829,7.5147,7.5488,7.601,7.7215,7.7587,7.7857,7.9046,8.0302,8.1346,8.1631,8.2019,8.2673,8.2709,8.2991,8.3522,8.3754,8.3931,8.4056,8.5257,8.6083,8.6585,8.8417,8.9657,9.0318,9.2067,9.3247,9.3621,9.495,9.5727,9.5967,9.5993,9.6702,9.7991,9.8398,9.8649,9.8938,9.9171,9.929,9.9295,9.9355,9.9509,9.9597,9.973,9.9616,9.9575,9.9639,9.9697,9.9762,9.9769,9.9794,9.9787,9.9872,10.0229,10.12,10.2078,10.3551,10.6126,10.7873,10.9112,10.9679,10.9978,11.0002,11.0055,11.006,11.0062,11.0062,11.0062,11.0062,11.0056,11.005,11.0037,11.0013,10.9922,10.9854,11.0485,11.2599,11.3982,11.4657,11.6535,11.8823,11.9093,11.8987,11.8884,11.8822,11.8879,11.9857,12.291,12.5458,12.7094,12.8419,12.8802,12.9013,12.9105,12.9237,12.9342,12.9739,13.1762,13.3571,6.6698,6.6985,6.7293,6.7583,6.7792,6.8375,6.8633,6.8733,6.9582,6.9956,7.0384,7.1958,7.2918,7.3554,7.498,7.5936,7.6368,7.7833,7.8526,7.8704,7.8943,7.9128,7.9363,8.0534,8.1907,8.3012,8.3355,8.3375,8.3375,8.3375,8.341,8.3428,8.3573,8.3911,8.4637,8.5864,8.7107,8.7763,8.9692,9.0867,9.1304,9.3177,9.4405,9.4747,9.6235,9.7126,9.7153,9.7139,9.7414,9.7854,9.7957,9.8141,9.8649,9.9308,9.969,9.9787,10.0325,10.0785,10.0885,10.0581,10.0275,10.0173,9.9713,9.9549,9.9583,9.9606,9.9647,9.9655,10.0212,10.0841,10.212,10.3081,10.512,10.7735,10.9058,10.9699,10.9851,10.9864,10.9947,11.0012,11.0057,11.006,11.0062,11.0062,11.0062,11.0058,11.0051,11.0041,11.002,10.9927,10.9798,11.0085,11.2528,11.4479,11.5324,11.6767,11.8544,11.9152,11.8945,11.8775,11.8766,11.9029,12.0646,12.2855,12.5111,12.6907,12.8224,12.8845,12.8899,12.9025,12.911,12.9242,12.9403,13.0694,13.2627,6.6432,6.6746,6.7246,6.7466,6.7606,6.8284,6.8633,6.9081,7.061,7.1438,7.1991,7.3516,7.4415,7.4803,7.5802,7.6124,7.6973,7.9651,8.106,8.1232,8.1618,8.1818,8.1843,8.2198,8.2605,8.2921,8.3225,8.341,8.341,8.341,8.341,8.341,8.3499,8.4401,8.5997,8.6424,8.737,8.9083,9.0796,9.1849,9.2477,9.4123,9.5241,9.568,9.6174,9.645,9.6276,9.6464,9.6834,9.7327,9.7511,9.775,9.848,10.0082,10.1078,10.1291,10.2637,10.3585,10.3573,10.2403,10.1688,10.1603,10.0426,9.9846,9.9982,9.9952,9.9989,10.0285,10.1228,10.2179,10.2826,10.5128,10.7635,10.9283,10.9461,10.9659,10.9781,10.9804,10.9871,10.9997,11.0015,11.0022,11.0062,11.0062,11.0062,11.0059,11.0052,11.0041,11.0026,10.9932,10.9804,11.0337,11.2352,11.4339,11.5596,11.6922,11.8205,11.9136,11.8919,11.8775,11.8775,11.8832,12.0345,12.2751,12.5006,12.6292,12.7582,12.8634,12.875,12.8817,12.8955,12.9034,12.9349,12.9964,13.1761,6.5844,6.6456,6.6961,6.7325,6.7504,6.8091,6.8985,7.0157,7.0943,7.197,7.3307,7.5051,7.5877,7.6215,7.7892,7.8693,7.8993,8.0339,8.1324,8.1651,8.1836,8.2174,8.2433,8.2648,8.288,8.3054,8.3299,8.341,8.341,8.341,8.341,8.3515,8.4501,8.5278,8.6145,8.8201,8.9517,9.0472,9.2162,9.3188,9.3442,9.4459,9.5105,9.5304,9.5386,9.5548,9.5847,9.5909,9.6225,9.6752,9.6888,9.7643,9.9185,10.1262,10.2406,10.2474,10.317,10.3579,10.3638,10.3325,10.3104,10.3106,10.2609,10.2389,10.2476,10.2497,10.2602,10.271,10.3281,10.4127,10.541,10.7283,10.8852,10.9335,10.9498,10.9543,10.9689,10.9691,10.9795,10.9871,10.9955,11.0014,11.0062,11.0062,11.0062,11.0062,11.0055,11.0046,11.0033,10.9906,10.9795,11.0085,11.2495,11.4128,11.4969,11.7124,11.8944,11.9152,11.9,11.8876,11.8793,11.8775,11.9913,12.2525,12.4401,12.561,12.6829,12.8047,12.8512,12.8622,12.8721,12.8817,12.9116,12.9564,13.0628,6.5471,6.6041,6.6674,6.708,6.7404,6.8465,6.9561,7.085,7.207,7.343,7.4767,7.6542,7.7429,7.7578,7.9193,7.9947,8.0148,8.0622,8.1142,8.1596,8.1775,8.2099,8.2601,8.2745,8.2975,8.3183,8.3353,8.341,8.3445,8.4008,8.4255,8.4466,8.5785,8.6895,8.767,8.9583,9.0986,9.1669,9.2886,9.3671,9.3825,9.4266,9.4553,9.4622,9.4659,9.4868,9.5357,9.5373,9.5611,9.6247,9.6276,9.6963,9.8468,10.0435,10.2078,10.3458,10.4425,10.496,10.5085,10.4743,10.448,10.4512,10.4042,10.3597,10.3838,10.3924,10.3941,10.4152,10.4503,10.5752,10.7308,10.8413,10.9077,10.9252,10.9301,10.9369,10.9508,10.9595,10.9659,10.975,10.9877,10.9964,11.0018,11.0062,11.0062,11.0062,11.0056,11.0048,10.9999,10.9871,10.9795,11.0264,11.2386,11.4479,11.4517,11.7144,11.9133,11.9131,11.9079,11.8911,11.8793,11.8766,12.0073,12.2655,12.3555,12.4876,12.7297,12.8374,12.8374,12.8438,12.846,12.8553,12.8672,12.885,12.9661,6.5219,6.5571,6.6342,6.6794,6.7199,6.9074,7.0248,7.1209,7.3983,7.5676,7.6392,7.7938,7.8806,7.9041,7.9321,7.9721,8.0104,8.0556,8.1078,8.161,8.1768,8.2079,8.262,8.2745,8.2921,8.3183,8.3318,8.341,8.3515,8.4889,8.5734,8.5926,8.7369,8.8883,9.0009,9.0467,9.1412,9.2716,9.3063,9.3312,9.3611,9.3804,9.3881,9.3972,9.4137,9.4482,9.4782,9.487,9.509,9.5564,9.5596,9.5852,9.6474,9.807,10.0616,10.3891,10.6069,10.7248,10.7226,10.6281,10.5723,10.5759,10.4741,10.3778,10.4275,10.4393,10.4417,10.4151,10.5742,10.7028,10.8261,10.8591,10.8782,10.8976,10.9032,10.9149,10.9371,10.9498,10.9614,10.9659,10.9772,10.9893,10.9976,11.0023,11.0062,11.0062,11.0056,11.0045,10.9999,10.9906,10.9845,11.0413,11.2281,11.4479,11.4765,11.7164,11.8868,11.9154,11.9074,11.8928,11.8858,11.9124,12.0843,12.2373,12.3149,12.4739,12.7205,12.8285,12.8263,12.8312,12.8334,12.8352,12.8465,12.8352,12.8797,6.4972,6.5276,6.5646,6.6311,6.7208,6.8947,7.0687,7.2473,7.4303,7.6048,7.7453,7.8172,7.8578,7.8839,7.9131,7.948,7.9959,8.0182,8.0665,8.1298,8.1562,8.2007,8.2581,8.271,8.2921,8.3218,8.3353,8.341,8.3586,8.4994,8.6297,8.751,8.8953,8.9954,9.0447,9.1573,9.2333,9.2801,9.3034,9.3154,9.3238,9.3382,9.3576,9.3728,9.3916,9.412,9.4446,9.4446,9.4624,9.5056,9.5073,9.5744,9.7262,9.7911,9.9318,10.172,10.392,10.5265,10.5613,10.6382,10.6925,10.7149,10.6836,10.6602,10.6811,10.6884,10.6976,10.7047,10.7467,10.7697,10.8245,10.8403,10.8501,10.8592,10.8718,10.8869,10.9127,10.9288,10.9399,10.9614,10.9728,10.9822,10.9897,10.9935,11.0023,11.0024,11.0057,11.0045,11.0039,10.9911,10.9795,10.994,11.2495,11.4269,11.4733,11.7183,11.885,11.9178,11.9131,11.9042,11.8919,11.8793,11.9857,12.2729,12.3201,12.4655,12.7438,12.8174,12.8129,12.819,12.8261,12.8315,12.8312,12.8297,12.857,6.4767,6.5124,6.5301,6.5925,6.6936,6.8682,7.0647,7.2697,7.4295,7.604,7.7735,7.8071,7.8386,7.8745,7.8863,7.9295,7.9879,8.0026,8.0469,8.1086,8.1492,8.194,8.2448,8.2691,8.2921,8.3218,8.3986,8.4325,8.4607,8.591,8.7475,8.9024,9.0572,9.1347,9.1432,9.2242,9.2699,9.2699,9.2857,9.2953,9.2958,9.3187,9.3402,9.3537,9.3785,9.3955,9.4083,9.4102,9.4212,9.4428,9.4464,9.5001,9.613,9.6988,9.7968,9.9176,10.1205,10.263,10.322,10.434,10.5431,10.6444,10.6456,10.6939,10.771,10.7891,10.7903,10.7937,10.788,10.7868,10.7899,10.8092,10.8261,10.8316,10.8385,10.8501,10.8791,10.8956,10.917,10.9454,10.9647,10.9778,10.9839,10.9901,10.9934,11.0023,11.0058,11.0046,11.0004,10.9906,10.9804,11.0192,11.2457,11.4231,11.4771,11.724,11.8871,11.9208,11.9177,11.9128,11.8983,11.8858,11.9857,12.3067,12.3457,12.4724,12.7592,12.8148,12.8139,12.82,12.827,12.833,12.8315,12.8315,12.83,6.4593,6.5023,6.5048,6.5527,6.6419,6.8365,7.0259,7.205,7.4165,7.5908,7.7234,7.7604,7.8018,7.8616,7.8745,7.9098,7.9788,7.997,8.0381,8.0817,8.1387,8.1844,8.2165,8.2613,8.2902,8.3321,8.4828,8.5555,8.5698,8.7369,8.8988,9.0396,9.196,9.2664,9.2664,9.2699,9.2699,9.2699,9.2699,9.2699,9.2755,9.3107,9.3308,9.3308,9.3674,9.3916,9.3899,9.3916,9.3881,9.3862,9.3881,9.3898,9.3986,9.537,9.6325,9.6562,9.8164,9.9642,10.059,10.1185,10.2444,10.4173,10.4572,10.5394,10.6888,10.7199,10.7161,10.6941,10.7157,10.7484,10.762,10.7752,10.7842,10.7944,10.8026,10.813,10.8359,10.8648,10.8944,10.9186,10.9416,10.9646,10.9761,10.9844,10.9863,10.9974,11.0024,11.005,11.0005,10.9911,10.9842,11.0568,11.2508,11.4322,11.5187,11.7435,11.8968,11.9192,11.9185,11.9144,11.9063,11.9072,11.9725,12.229,12.3169,12.4132,12.6487,12.7858,12.7659,12.7551,12.7776,12.8087,12.8307,12.8333,12.833,6.4234,6.4541,6.4747,6.5149,6.5895,6.8218,6.9659,7.076,7.371,7.5231,7.5623,7.5893,7.6896,7.8344,7.8649,7.8943,7.9318,7.9846,8.0259,8.0612,8.1303,8.1762,8.1944,8.2413,8.2706,8.3077,8.4724,8.5617,8.6067,8.8531,9.008,9.0502,9.196,9.2699,9.2699,9.2699,9.2699,9.2699,9.2699,9.2699,9.2755,9.3072,9.3308,9.3328,9.3657,9.3916,9.3916,9.3916,9.3825,9.3764,9.3745,9.3576,9.3214,9.3689,9.4073,9.4114,9.4795,9.5916,9.7516,9.9369,10.0818,10.1718,10.3146,10.4218,10.4707,10.4716,10.463,10.4733,10.6029,10.6989,10.7056,10.7305,10.7471,10.7472,10.7668,10.7819,10.8011,10.8296,10.866,10.8907,10.9135,10.9449,10.9608,10.9744,10.9864,10.9904,10.9943,11.0022,11.0008,10.9886,11.0431,11.1643,11.3388,11.4918,11.6376,11.8121,11.9148,11.9293,11.9222,11.9147,11.9099,11.9008,11.9816,12.1304,12.1829,12.2756,12.418,12.4745,12.5255,12.6305,12.6503,12.6883,12.7873,12.8162,12.8248,6.3863,6.4208,6.4438,6.4767,6.5287,6.6857,6.8309,6.9804,7.1848,7.2713,7.2916,7.4644,7.6037,7.722,7.8136,7.8745,7.9131,7.9596,8.0004,8.0337,8.0992,8.1437,8.1768,8.2214,8.2546,8.283,8.4511,8.5752,8.6711,8.9002,9.0588,9.1326,9.2236,9.2699,9.2699,9.2699,9.2699,9.2699,9.2699,9.2699,9.2699,9.3107,9.3308,9.3308,9.3693,9.3916,9.3916,9.3916,9.3749,9.3518,9.3366,9.3131,9.2675,9.2041,9.1714,9.1758,9.1378,9.1631,9.2821,9.4858,9.697,9.9111,10.0348,10.0886,10.066,10.1494,10.2092,10.2297,10.4196,10.5483,10.5483,10.644,10.7026,10.7012,10.7214,10.7395,10.7521,10.7842,10.8241,10.8557,10.8869,10.9173,10.9438,10.9621,10.974,10.9821,10.987,10.9944,10.998,10.9911,11.0433,11.2091,11.3677,11.5254,11.684,11.8407,11.9249,11.9374,11.9263,11.9222,11.9147,11.9099,11.9686,12.0991,12.1322,12.1943,12.3474,12.3678,12.3985,12.4876,12.4979,12.5665,12.6883,12.7377,12.7361,6.3546,6.3894,6.4099,6.4412,6.4798,6.52,6.6706,6.8822,6.9251,6.9658,7.0179,7.3287,7.4959,7.5533,7.722,7.8241,7.8714,7.9264,7.9698,8.0015,8.0634,8.1099,8.1534,8.1952,8.2274,8.2685,8.4291,8.5771,8.7249,8.9056,9.0665,9.1863,9.245,9.2658,9.2734,9.2699,9.2699,9.2699,9.2699,9.2699,9.2699,9.3107,9.3308,9.3328,9.3693,9.3916,9.3881,9.3667,9.3391,9.2973,9.2546,9.2082,9.159,9.0171,8.9431,8.947,8.832,8.7838,8.8298,8.9666,9.2202,9.5646,9.6698,9.6632,9.5856,9.7876,9.9358,9.9854,10.1846,10.3256,10.3428,10.4776,10.5638,10.5741,10.6181,10.6485,10.6541,10.7134,10.774,10.8103,10.8529,10.8898,10.9166,10.9395,10.9613,10.975,10.9819,10.9871,10.9948,10.99,11.0556,11.209,11.3672,11.529,11.6929,11.8543,11.9401,11.9374,11.9374,11.9338,11.923,11.9147,11.9597,12.087,12.0957,12.1533,12.26,12.3146,12.3108,12.3362,12.3475,12.4039,12.5656,12.5589,12.5646,6.322,6.349,6.3543,6.4047,6.4716,6.4849,6.5601,6.6835,6.6901,0.0,0.0,7.0629,7.194,7.3837,7.55,7.642,7.6826,7.8634,7.9538,7.963,8.0481,8.0915,8.1035,8.1534,8.1912,8.2363,8.3917,8.4933,8.5656,8.8423,9.0065,9.051,9.1744,9.2479,9.2699,9.2699,9.2699,9.2699,9.2699,9.2699,9.272,9.3107,9.3308,9.3308,9.3693,9.3916,9.3881,9.2632,9.177,9.1375,9.0015,8.8863,8.8043,8.7641,8.7355,8.7151,8.6874,8.6862,8.7167,8.7553,8.8305,8.9292,9.2575,9.3577,9.132,9.3517,9.5629,9.7138,9.9186,10.0555,10.0878,10.1486,10.179,10.1952,10.3278,10.4252,10.4447,10.5927,10.7002,10.7607,10.7969,10.852,10.8815,10.9122,10.9401,10.9608,10.9778,10.9837,10.9844,10.9862,11.0404,11.1948,11.3482,11.5316,11.6932,11.8515,11.9541,11.9407,11.9374,11.9374,11.93,11.923,11.9261,11.9718,11.9589,11.9769,11.9949,12.0234,12.0431,12.1628,12.1891,12.2419,12.3804,12.3335,12.336,6.2952,6.3193,6.333,6.3592,0.0,6.4567,6.4652,6.4519,6.4525,6.5888,6.8179,6.9411,7.0604,7.1704,7.3668,7.5049,7.6066,7.7279,7.8397,7.9492,7.997,8.0349,8.0678,8.1056,8.1416,8.1768,8.2651,8.3617,8.4721,8.636,8.8099,8.9911,9.0749,9.1665,9.2699,9.2699,9.2699,9.2699,9.2699,9.2699,9.272,9.3107,9.3308,9.3308,9.3693,0.0,0.0,0.0,0.0,0.0,0.0,0.0,0.0,8.4967,0.0,8.1686,8.0839,8.0425,8.0535,8.1344,8.2619,8.4327,8.722,8.797,8.577,8.9238,9.2082,9.3376,9.6086,9.7947,9.8414,9.947,10.0181,10.0385,10.1242,10.1911,10.214,10.318,10.4149,10.4626,10.5774,10.6748,10.7208,10.8251,10.9108,10.9384,10.9608,10.9744,10.979,10.9812,11.0039,11.0969,11.2488,11.4203,11.5809,11.7448,11.8502,11.8529,11.9046,11.9451,11.9432,11.9387,11.9297,11.926,11.9238,11.9246,11.9184,11.9198,11.9349,12.0095,12.0321,12.07,12.1469,12.1799,12.2321,6.1965,6.2145,6.2443,6.2605,6.271,6.3412,6.3133,6.2172,6.2351,6.3448,6.5369,6.7558,6.8687,6.9191,7.1273,7.3187,7.4799,7.5402,7.6678,7.8413,7.8864,7.9385,7.9932,8.0454,8.0872,8.1107,8.1353,8.2236,8.3604,8.4171,8.5958,8.8768,8.9254,9.039,9.209,0.0,0.0,0.0,9.2559,9.2699,9.272,9.3107,9.3308,9.3308,9.3674,0.0,9.3417,9.1807,9.0678,9.0044,8.774,0.0,0.0,0.0,0.0,0.0,0.0,0.0,0.0,0.0,0.0,0.0,8.0262,8.0434,7.9951,8.4259,8.7801,8.9589,9.2431,9.4574,9.5404,9.6956,9.8002,9.8325,9.8934,9.9325,9.9257,10.0211,10.1026,10.1623,10.3268,10.4585,10.5179,10.6973,10.831,10.8556,10.9189,10.9595,10.9734,10.9769,10.979,10.9897,11.1006,11.2479,11.415,11.5822,11.6881,11.7003,11.8191,11.9093,11.9051,11.9246,11.9486,11.94,11.9361,11.9345,11.9283,11.9253,11.9268,11.9253,11.9253,11.9296,11.9562,12.0655,12.1691,5.9208,5.926,5.9523,5.9747,6.0029,6.01,6.0059,5.9958,6.061,6.1059,6.146,6.2662,6.4081,6.5672,6.7645,6.9468,7.1175,7.3135,7.4174,7.4543,7.6628,7.7659,7.7838,7.9418,8.0303,8.059,8.0829,8.1189,8.1649,8.3376,8.4573,8.5236,8.6729,8.8426,9.0215,8.9097,8.9232,9.0713,9.2031,9.2699,9.2699,9.3107,9.3308,9.3328,9.3693,9.3239,9.1901,9.0258,8.8582,8.6927,8.3623,8.1379,8.0509,7.747,7.4701,0.0,7.0893,0.0,0.0,0.0,0.0,0.0,0.0,0.0,0.0,7.745,8.1552,8.6555,8.7937,8.9312,9.1221,9.1773,9.2252,9.269,9.5032,9.6308,9.5485,9.8032,10.0193,10.0929,10.1742,10.2441,10.3024,10.4833,10.6261,10.6851,10.8076,10.8986,10.9401,10.947,10.957,10.983,11.0016,11.0896,11.2422,11.4097,11.5172,11.5326,11.6495,11.7496,11.7526,11.8525,11.9445,11.9424,11.9343,11.9448,11.9506,11.9462,11.95,11.9494,11.9392,11.9352,11.9467,11.9797,12.0341,5.8452,5.8732,5.8838,5.7712,5.5796,5.5826,5.6808,5.8427,5.8762,5.9518,6.0456,6.1108,6.2022,6.3244,6.455,6.607,6.776,6.9759,7.1339,7.258,7.4465,7.5547,7.5894,7.6808,7.7463,7.7693,7.7951,7.8235,7.8636,8.0316,8.19,8.3301,8.4875,8.5678,8.5691,8.5246,8.6317,8.8971,9.0583,9.1915,9.2882,9.3202,9.3366,9.3518,9.2911,9.2257,9.158,8.8993,8.6751,8.5048,8.2211,7.9276,7.6273,7.3597,7.0127,0.0,0.0,0.0,0.0,0.0,0.0,0.0,0.0,0.0,0.0,0.0,7.5727,8.0019,8.2595,8.495,8.7229,8.7589,8.8231,8.9475,9.0878,9.1524,9.1202,9.2745,9.4458,9.5886,9.7587,9.9155,10.0576,10.2642,10.4497,10.5839,10.5962,10.6348,10.7548,10.7913,10.8426,10.9507,10.9763,11.0113,11.0784,11.2369,11.3487,11.3582,11.4843,11.5913,11.593,11.6495,11.6909,11.6957,11.7638,11.8241,11.8282,11.8888,11.9536,11.9433,11.8917,11.8439,11.8349,11.9045,11.9759,5.6759,5.7106,5.681,5.4996,5.2337,5.2337,5.3644,5.5848,5.5949,5.6798,5.8156,5.8392,5.8874,5.9644,6.0672,6.23,6.4257,6.5845,6.7688,6.9713,7.1358,7.2597,7.3428,7.4079,7.4631,7.525,7.5507,7.5811,7.6232,7.7445,7.9006,8.0782,8.1287,8.1228,8.0608,8.1308,8.3306,8.6727,8.8433,9.0104,9.1849,9.2109,9.2305,9.2566,9.1542,9.0813,9.0349,8.7391,8.4995,8.3312,8.0467,7.6898,7.268,6.956,0.0,0.0,0.0,0.0,0.0,0.0,0.0,0.0,0.0,5.9277,6.3351,0.0,6.9786,0.0,7.7069,8.0441,8.277,8.346,0.0,0.0,8.5949,8.6169,8.606,8.6822,8.8279,9.0627,9.3124,9.5494,9.7582,10.0183,10.2321,10.3441,10.2956,10.3328,10.5433,10.5933,10.6644,10.8018,10.8731,10.9188,10.9297,11.066,11.1733,11.1728,11.3162,11.4251,11.4272,11.4559,11.4838,11.4883,11.5839,11.6564,11.6674,11.7576,11.8202,11.7829,11.731,11.6816,11.6809,11.7698,11.8579,5.2579,5.2515,5.1365,5.0774,5.0697,5.0697,5.086,5.1112,5.1365,5.1669,5.2037,5.2285,5.2654,5.3144,5.5107,0.0,6.0334,6.1317,6.2666,6.4267,6.6656,6.8496,6.9889,7.1537,7.316,7.4659,7.5,7.5216,7.544,7.5949,7.6402,7.6803,7.4239,7.3896,7.5771,7.7463,8.0065,8.3534,8.5233,8.686,8.8429,8.8793,8.9147,8.9455,8.9422,8.8673,8.7143,8.5207,8.3259,8.1263,7.6781,7.3149,7.0789,0.0,0.0,0.0,0.0,0.0,0.0,0.0,0.0,0.0,0.0,0.0,0.0,0.0,0.0,6.6737,7.1529,0.0,7.7237,7.8846,0.0,0.0,0.0,8.0431,7.9268,8.0875,8.3397,8.6886,0.0,0.0,9.3887,9.7289,9.9103,9.7853,9.9343,10.1305,10.3376,10.3967,10.4323,10.4907,10.6246,10.7378,10.7485,10.8822,10.985,10.9893,11.1425,11.2302,11.2416,11.3475,11.4682,11.4443,11.4881,11.4972,11.4988,11.48,11.4749,11.3135,11.3969,11.4947,11.4901,11.515,11.5434,4.9209,4.6834,4.553,4.5582,4.6533,4.6659,4.709,4.7866,4.8131,4.83,4.8376,4.8667,4.8908,4.9147,5.0122,0.0,0.0,0.0,5.782,5.9696,6.2527,6.4393,6.5491,6.7029,6.8291,6.9234,6.937,6.9576,6.994,7.0948,7.0128,6.7621,0.0,6.7702,7.0747,7.2713,7.5869,8.0161,8.2816,8.5003,8.6649,8.7945,8.8811,8.9101,8.8193,8.6947,8.5312,8.3471,8.0714,7.7088,7.3939,7.0097,0.0,0.0,0.0,0.0,0.0,0.0,0.0,0.0,0.0,0.0,0.0,4.8907,5.0895,0.0,0.0,0.0,6.4168,6.8004,7.187,7.3012,0.0,0.0,0.0,0.0,0.0,0.0,0.0,8.1332,8.3957,8.6605,8.9698,9.2456,9.4395,9.5049,9.7004,9.9169,10.122,0.0,10.2512,10.3825,10.4716,10.5306,10.5518,10.6146,10.6647,10.6674,10.7286,10.7768,10.7814,10.8293,10.8761,10.888,10.9606,11.0289,11.0326,10.8542,10.7155,10.7714,10.913,11.0281,11.0325,11.196,11.3323,4.4858,0.0,0.0,0.0,0.0,4.2131,4.2712,4.3592,4.3781,4.3861,4.3961,4.4159,0.0,0.0,0.0,0.0,0.0,0.0,5.2735,5.5572,5.7944,5.9849,6.1224,6.2438,6.3418,6.4235,6.4341,6.4521,6.478,6.3687,6.1515,5.8544,0.0,0.0,0.0,0.0,7.2367,7.6903,8.0636,8.3155,8.447,8.6319,8.7462,8.7836,8.62,8.4797,8.3625,8.087,7.7525,7.3627,7.0339,0.0,0.0,0.0,0.0,0.0,0.0,0.0,0.0,0.0,0.0,0.0,0.0,0.0,0.0,0.0,0.0,0.0,0.0,0.0,6.5218,6.7216,6.8585,0.0,0.0,0.0,0.0,0.0,0.0,0.0,0.0,0.0,8.3676,8.6586,8.9272,0.0,0.0,9.6303,9.8439,9.893,9.9813,10.1851,10.2727,0.0,10.342,10.3944,10.4389,10.4463,10.4173,10.378,10.3349,10.3236,10.3231,10.3284,10.4264,10.4348,10.2611,10.0738,10.0345,10.1613,10.3586,10.4986,10.5246,10.7366,10.9398,0.0,0.0,0.0,0.0,3.7518,0.0,0.0,0.0,3.7611,3.7785,0.0,3.8141,0.0,0.0,0.0,0.0,4.3687,4.4611,0.0,0.0,5.2763,5.4721,5.7388,5.8067,5.9183,6.0724,6.098,6.1082,6.0803,5.3959,0.0,0.0,0.0,0.0,0.0,0.0,7.0009,7.386,7.8498,8.1154,8.1687,8.3294,8.4303,8.4564,8.3034,8.2078,8.1538,7.7077,7.3524,7.1427,6.5483,0.0,0.0,0.0,0.0,0.0,0.0,0.0,0.0,0.0,0.0,0.0,0.0,0.0,0.0,0.0,0.0,0.0,0.0,0.0,0.0,6.1581,0.0,0.0,0.0,0.0,0.0,0.0,0.0,0.0,0.0,7.6734,7.5384,7.9736,8.3866,8.6112,0.0,0.0,0.0,0.0,9.5993,9.8063,9.9837,10.1026,10.1314,10.2692,10.3813,10.4045,0.0,0.0,9.9918,9.9564,9.9422,9.9659,9.9561,9.7641,9.1152,9.2267,9.4253,9.4764,9.7167,9.9435,9.9966,10.1047,10.2486,0.0,0.0,0.0,0.0,0.0,0.0,0.0,0.0,0.0,3.2349,3.2523,3.257,0.0,0.0,0.0,0.0,0.0,0.0,0.0,0.0,4.7313,4.9345,5.1673,5.2841,5.3873,5.4665,5.48,5.2866,0.0,0.0,0.0,0.0,0.0,0.0,0.0,0.0,6.5271,7.1875,7.5766,7.8921,8.1369,8.3117,8.409,8.4333,8.2957,8.0541,7.7194,7.4193,7.0355,0.0,0.0,0.0,0.0,0.0,0.0,0.0,0.0,0.0,0.0,0.0,0.0,0.0,0.0,0.0,0.0,0.0,0.0,0.0,0.0,0.0,0.0,0.0,5.8207,0.0,0.0,0.0,0.0,0.0,0.0,0.0,0.0,0.0,7.0099,7.4758,7.9589,8.359,8.7302,9.0378,9.2421,0.0,0.0,0.0,0.0,0.0,0.0,0.0,9.7618,9.8686,9.7622,9.6124,9.4488,9.3246,9.2523,9.2577,0.0,0.0,8.4872,8.4745,8.5983,8.7371,8.8511,8.9717,9.0974,9.2639,9.4504,0.0,0.0,0.0,0.0,0.0,0.0,0.0,0.0,0.0,2.8015,2.8101,0.0,0.0,0.0,0.0,0.0,0.0,0.0,0.0,0.0,0.0,0.0,4.6187,4.7424,0.0,0.0,0.0,0.0,0.0,0.0,0.0,0.0,0.0,0.0,0.0,0.0,6.2214,6.9369,7.3286,7.7043,8.0625,8.2338,8.3344,8.3618,8.2755,7.9858,7.4896,0.0,0.0,0.0,0.0,0.0,0.0,0.0,0.0,0.0,0.0,0.0,0.0,0.0,0.0,0.0,0.0,0.0,0.0,0.0,0.0,0.0,0.0,0.0,0.0,0.0,5.3547,0.0,0.0,0.0,0.0,0.0,0.0,0.0,0.0,0.0,0.0,6.9721,7.4704,7.9158,8.3388,8.6951,8.9514,9.1483,9.3048,0.0,0.0,0.0,0.0,0.0,0.0,0.0,0.0,0.0,0.0,0.0,0.0,0.0,0.0,8.0836,7.7228,7.7099,7.7974,7.9353,0.0,0.0,0.0,0.0,0.0,0.0,0.0,0.0,0.0,0.0,0.0,0.0,0.0,0.0,0.0,2.4778,0.0,0.0,2.5121,0.0,0.0,0.0,0.0,0.0,0.0,0.0,0.0,0.0,0.0,0.0,0.0,0.0,0.0,0.0,0.0,0.0,0.0,0.0,0.0,0.0,0.0,6.0944,6.6497,7.1225,7.546,7.9163,8.0794,8.1762,8.2146,8.2091,7.9763,7.4877,0.0,0.0,0.0,0.0,0.0,0.0,0.0,0.0,0.0,0.0,0.0,0.0,0.0,0.0,0.0,0.0,0.0,0.0,0.0,0.0,0.0,0.0,0.0,0.0,0.0,0.0,5.2127,5.4464,5.5272,0.0,0.0,0.0,0.0,0.0,0.0,0.0,0.0,0.0,7.2849,7.7606,8.2163,8.5964,8.782,8.9646,9.1798,9.2107,9.2304,9.2934,9.2787,9.2304,0.0,0.0,0.0,0.0,0.0,0.0,0.0,0.0,0.0,0.0,0.0,0.0,0.0,0.0,0.0,0.0,0.0,0.0,0.0,0.0,0.0,0.0,0.0,0.0,0.0,0.0,0.0,0.0,0.0,0.0,0.0,0.0,0.0,0.0,0.0,0.0,0.0,0.0,0.0,0.0,0.0,0.0,0.0,0.0,0.0,0.0,0.0,0.0,0.0,0.0,0.0,0.0,0.0,0.0,5.8836,6.6266,7.0058,7.3897,7.7639,7.9217,8.0199,8.0524,7.8472,7.6057,0.0,0.0,0.0,0.0,0.0,0.0,0.0,0.0,0.0,0.0,0.0,0.0,0.0,0.0,0.0,0.0,0.0,0.0,0.0,0.0,0.0,0.0,0.0,0.0,0.0,0.0,0.0,0.0,5.0388,5.216,5.2217,0.0,0.0,0.0,0.0,0.0,0.0,0.0,0.0,0.0,0.0,7.8897,8.3667,8.5951,8.7956,8.9925,9.0399,9.0977,9.2287,8.9729,8.7835,8.8492,0.0,0.0,0.0,0.0,0.0,0.0,0.0,0.0,0.0,0.0,0.0,0.0,0.0,0.0,0.0,0.0,0.0,0.0,0.0,0.0,0.0,0.0,0.0,0.0,0.0,0.0,0.0,0.0,0.0,0.0,0.0,0.0,0.0,0.0,0.0,0.0,0.0,0.0,0.0,0.0,0.0,0.0,0.0,0.0,0.0,0.0,0.0,0.0,0.0,0.0,0.0,0.0,0.0,5.7369,6.4446,6.8437,7.228,7.5925,7.7622,7.8601,7.8971,7.6525,7.3811,0.0,0.0,0.0,0.0,0.0,0.0,0.0,0.0,0.0,0.0,0.0,0.0,0.0,0.0,0.0,0.0,0.0,0.0,0.0,0.0,0.0,0.0,0.0,0.0,0.0,0.0,0.0,0.0,4.7242,4.9291,5.0363,0.0,0.0,0.0,0.0,0.0,0.0,0.0,0.0,0.0,0.0,7.5514,8.0134,8.2903,0.0,0.0,8.6696,8.7246,8.8429,8.6175,8.4237,8.3994,8.1414,0.0,0.0,0.0,0.0,0.0,0.0,0.0,0.0,0.0,0.0,0.0,0.0,0.0,0.0,0.0,0.0,0.0,0.0,0.0,0.0,0.0,0.0,0.0,0.0,0.0,0.0,0.0,0.0,0.0,0.0,0.0,0.0,0.0,0.0,0.0,0.0,0.0,0.0,0.0,0.0,0.0,0.0,0.0,0.0,0.0,0.0,0.0,0.0,0.0,0.0,0.0,0.0,5.6311,6.1727,6.6536,7.0789,7.4346,7.5992,7.6983,7.7381,7.5812,7.2693,0.0,0.0,0.0,0.0,0.0,0.0,0.0,0.0,0.0,0.0,0.0,0.0,0.0,0.0,0.0,0.0,0.0,0.0,0.0,0.0,0.0,0.0,0.0,0.0,0.0,0.0,0.0,0.0,0.0,0.0,0.0,0.0,0.0,0.0,0.0,0.0,0.0,0.0,0.0,0.0,0.0,7.1998,7.5854,7.8931,8.1041,0.0,8.1852,8.2007,8.2532,8.2402,8.1253,7.8422,0.0,0.0,0.0,0.0,0.0,0.0,0.0,0.0,0.0,0.0,0.0,0.0,0.0,0.0,0.0,0.0,0.0,0.0,0.0,0.0,0.0,0.0,0.0,0.0,0.0,0.0,0.0,0.0,0.0,0.0,0.0,0.0,0.0,0.0,0.0,0.0,0.0,0.0,0.0,0.0,0.0,0.0,0.0,0.0,0.0,0.0,0.0,0.0,0.0,0.0,0.0,0.0,0.0,0.0,6.1321,6.6317,7.0123,7.2688,7.4385,7.5419,7.5761,7.3136,0.0,0.0,0.0,0.0,0.0,0.0,0.0,0.0,0.0,0.0,0.0,0.0,0.0,0.0,0.0,0.0,0.0,0.0,0.0,0.0,0.0,0.0,0.0,0.0,0.0,0.0,0.0,3.6285,0.0,0.0,0.0,0.0,0.0,0.0,0.0,0.0,0.0,0.0,0.0,0.0,0.0,0.0,6.8951,7.3853,7.5286,7.6857,0.0,0.0,8.0619,8.197,8.0216,7.839,0.0,0.0,0.0,0.0,0.0,0.0,0.0,0.0,0.0,0.0,0.0,0.0,0.0,0.0,0.0,0.0,0.0,0.0,0.0,0.0,0.0,0.0,0.0,0.0,0.0,0.0,0.0,0.0,0.0,0.0,0.0,0.0,0.0,0.0,0.0,0.0,0.0,0.0,0.0,0.0,0.0,0.0,0.0,0.0,0.0,0.0,0.0,0.0,0.0,0.0,0.0,0.0,0.0,0.0,5.3897,5.9248,6.5045,6.9017,7.1107,7.3429,7.4531,7.4206,7.1852,6.8712,0.0,0.0,0.0,0.0,0.0,0.0,0.0,0.0,0.0,0.0,0.0,0.0,0.0,0.0,0.0,0.0,0.0,0.0,0.0,0.0,0.0,0.0,0.0,0.0,0.0,0.0,0.0,0.0,0.0,0.0,0.0,0.0,0.0,0.0,0.0,0.0,0.0,0.0,0.0,0.0,0.0,0.0,7.0292,7.2129,0.0,0.0,0.0,7.6564,7.7607,0.0,0.0,0.0,0.0,0.0,0.0,0.0,0.0,0.0,0.0,0.0,0.0,0.0,0.0,0.0,0.0,0.0,0.0,0.0,0.0,0.0,0.0,0.0,0.0,0.0,0.0,0.0,0.0,0.0,0.0,0.0,0.0,0.0,0.0,0.0,0.0,0.0,0.0,0.0,0.0,0.0,0.0,0.0,0.0,0.0,0.0,0.0,0.0,0.0,0.0,0.0,0.0,0.0,0.0,0.0,0.0,0.0,5.6708,6.3197,6.7556,6.972,7.2796,7.3892,7.2872,7.1402,6.8311,0.0,0.0,0.0,0.0,0.0,0.0,0.0,0.0,0.0,0.0,0.0,0.0,0.0,0.0,0.0,0.0,0.0,0.0,0.0,0.0,0.0,0.0,0.0,0.0,0.0,0.0,0.0,0.0,0.0,0.0,0.0,0.0,0.0,0.0,0.0,0.0,0.0,0.0,0.0,0.0,0.0,6.4106,6.6021,6.8745,7.0689,0.0,0.0,7.1335,7.1471,7.1494,0.0,0.0,0.0,0.0,0.0,0.0,0.0,0.0,0.0,0.0,0.0,0.0,0.0,0.0,0.0,0.0,0.0,0.0,0.0,0.0,0.0,0.0,0.0,0.0,0.0,0.0,0.0,0.0,0.0,0.0,0.0,0.0,0.0,0.0,0.0,0.0,0.0,0.0,0.0,0.0,0.0,0.0,0.0,0.0,0.0,0.0,0.0,0.0,0.0,0.0,0.0,0.0,0.0,0.0,0.0,0.0,5.6109,6.1678,6.6133,6.9395,7.1612,7.27,7.2575,7.1394,6.8481,0.0,0.0,0.0,0.0,0.0,0.0,0.0,0.0,0.0,0.0,0.0,0.0,0.0,0.0,0.0,0.0,0.0,0.0,0.0,0.0,0.0,0.0,0.0,0.0,0.0,0.0,0.0,0.0,0.0,0.0,0.0,0.0,0.0,0.0,0.0,0.0,0.0,0.0,0.0,0.0,0.0,6.0727,6.2571,6.3386,0.0,0.0,0.0,0.0,6.7756,6.7766,0.0,0.0,0.0,0.0,0.0,0.0,0.0,0.0,0.0,0.0,0.0,0.0,0.0,0.0,0.0,0.0,0.0,0.0,0.0,0.0,0.0,0.0,0.0,0.0,0.0,0.0,0.0,0.0,0.0,0.0,0.0,0.0,0.0,0.0,0.0,0.0,0.0,0.0,0.0,0.0,0.0,0.0,0.0,0.0,0.0,0.0,0.0,0.0,0.0,0.0,0.0,0.0,0.0,0.0,0.0,0.0,5.3644,5.9641,6.4156,6.6999,6.9689,7.0817,7.029,6.9838,6.7412,0.0,0.0,0.0,0.0,0.0,0.0,0.0,0.0,0.0,0.0,0.0,0.0,0.0,0.0,0.0,0.0,0.0,0.0,0.0,0.0,0.0,0.0,0.0,0.0,0.0,0.0,0.0,0.0,0.0,0.0,0.0,0.0,0.0,0.0,0.0,0.0,0.0,0.0,0.0,0.0,5.5779,5.828,5.9158,0.0,0.0,0.0,0.0,0.0,0.0,6.4038,6.3337,0.0,0.0,0.0,0.0,0.0,0.0,0.0,0.0,0.0,0.0,0.0,0.0,0.0,0.0,0.0,0.0,0.0,0.0,0.0,0.0,0.0,0.0,0.0,0.0,0.0,0.0,0.0,0.0,0.0,0.0,0.0,0.0,0.0,0.0,0.0,0.0,0.0,0.0,0.0,0.0,0.0,0.0,0.0,0.0,0.0,0.0,0.0,0.0,0.0,0.0,0.0,0.0,0.0,0.0,0.0,5.0662,5.7247,6.1885,6.4448,6.7671,6.8872,6.7873,6.8182,6.5896,6.0744,0.0,0.0,0.0,0.0,0.0,0.0,0.0,0.0,0.0,0.0,0.0,0.0,0.0,0.0,0.0,0.0,0.0,0.0,0.0,0.0,0.0,0.0,0.0,0.0,0.0,0.0,0.0,0.0,0.0,0.0,0.0,0.0,0.0,0.0,0.0,0.0,0.0,0.0,0.0,5.3582,5.5865,0.0,0.0,0.0,0.0,0.0,0.0,0.0,0.0,5.9058,0.0,0.0,0.0,0.0,0.0,0.0,0.0,0.0,0.0,0.0,0.0,0.0,0.0,0.0,0.0,0.0,0.0,0.0,0.0,0.0,0.0,0.0,0.0,0.0,0.0,0.0,0.0,0.0,0.0,0.0,0.0,0.0,0.0,0.0,0.0,0.0,0.0,0.0,0.0,0.0,0.0,0.0,0.0,0.0,0.0,0.0,0.0,0.0,0.0,0.0,0.0,0.0,0.0,0.0,0.0,0.0,5.4459,5.9564,6.4034,6.6453,6.7701,6.7677,6.8043,6.4896,5.774,0.0,0.0,0.0,0.0,0.0,0.0,0.0,0.0,0.0,0.0,0.0,0.0,0.0,0.0,0.0,0.0,0.0,0.0,0.0,0.0,0.0,0.0,0.0,0.0,0.0,0.0,0.0,0.0,0.0,0.0,0.0,0.0,0.0,0.0,0.0,0.0,0.0,0.0,4.6012,4.9923,0.0,0.0,0.0,0.0,0.0,0.0,0.0,0.0,5.396,0.0,0.0,0.0,0.0,0.0,0.0,0.0,0.0,0.0,0.0,0.0,0.0,0.0,0.0,0.0,0.0,0.0,0.0,0.0,0.0,0.0,0.0,0.0,0.0,0.0,0.0,0.0,0.0,0.0,0.0,0.0,0.0,0.0,0.0,0.0,0.0,0.0,0.0,0.0,0.0,0.0,0.0,0.0,0.0,0.0,0.0,0.0,0.0,0.0,0.0,0.0,0.0,0.0,0.0,0.0,0.0,0.0,0.0,5.6967,6.1211,6.3465,6.4741,6.4981,6.3696,6.1006,0.0,0.0,0.0,0.0,0.0,0.0,0.0,0.0,0.0,0.0,0.0,0.0,0.0,0.0,0.0,0.0,0.0,0.0,0.0,0.0,0.0,0.0,0.0,0.0,0.0,0.0,0.0,0.0,0.0,0.0,0.0,0.0,0.0,0.0,0.0,0.0,0.0,0.0,0.0,0.0,0.0,0.0,0.0,0.0,0.0,0.0,0.0,0.0,0.0,0.0,0.0,0.0,0.0,0.0,0.0,0.0,0.0,0.0,0.0,0.0,0.0,0.0,0.0,0.0,0.0,0.0,0.0,0.0,0.0,0.0,0.0,0.0,0.0,0.0,0.0,0.0,0.0,0.0,0.0,0.0,0.0,0.0,0.0,0.0,0.0,0.0,0.0,0.0,0.0,0.0,0.0,0.0,0.0,0.0,0.0,0.0,0.0,0.0,0.0,0.0,0.0,0.0,0.0,0.0,0.0,0.0,0.0,0.0,5.3958,5.7649,6.0219,6.1698,6.2136,5.8933,5.6332,0.0,0.0,0.0,0.0,0.0,0.0,0.0,0.0,0.0,0.0,0.0,0.0,0.0,0.0,0.0,0.0,0.0,0.0,0.0,0.0,0.0,0.0,0.0,0.0,0.0,0.0,0.0,0.0,0.0,0.0,0.0,0.0,0.0,0.0,0.0,0.0,0.0,0.0,0.0,0.0,0.0,0.0,0.0,0.0,0.0,0.0,0.0,0.0,4.9483,0.0,0.0,0.0,0.0,0.0,0.0,0.0,0.0,0.0,0.0,0.0,0.0,0.0,0.0,0.0,0.0,0.0,0.0,0.0,0.0,0.0,0.0,0.0,0.0,0.0,0.0,0.0,0.0,0.0,0.0,0.0,0.0,0.0,0.0,0.0,0.0,0.0,0.0,0.0,0.0,0.0,0.0,0.0,0.0,0.0,0.0,0.0,0.0,0.0,0.0,0.0,0.0,0.0,0.0,0.0,0.0,0.0,0.0,0.0,5.0224,5.3936,5.7428,5.9551,6.0032,5.5926,5.1811,0.0,0.0,0.0,0.0,0.0,0.0,0.0,0.0,0.0,0.0,0.0,0.0,0.0,0.0,0.0,0.0,0.0,0.0,0.0,0.0,0.0,0.0,0.0,0.0,0.0,0.0,0.0,0.0,0.0,0.0,0.0,0.0,0.0,0.0,0.0,0.0,0.0,0.0,0.0,0.0,0.0,0.0,0.0,0.0,0.0,0.0,0.0,0.0,0.0,0.0,0.0,0.0,0.0,0.0,0.0,0.0,0.0,0.0,0.0,0.0,0.0,0.0,0.0,0.0,0.0,0.0,0.0,0.0,0.0,0.0,0.0,0.0,0.0,0.0,0.0,0.0,0.0,0.0,0.0,0.0,0.0,0.0,0.0,0.0,0.0,0.0,0.0,0.0,0.0,0.0,0.0,0.0,0.0,0.0,0.0,0.0,0.0,0.0,0.0,0.0,0.0,0.0,0.0,0.0,0.0,0.0,0.0,0.0,4.6977,5.1456,5.3513,5.4174,5.3382,5.0197,4.7778,0.0,0.0,0.0,0.0,0.0,0.0,0.0,0.0,0.0,0.0,0.0,0.0,0.0,0.0,0.0,0.0,0.0,0.0,0.0,0.0,0.0,0.0,0.0,0.0,0.0,0.0,0.0,0.0,0.0,0.0,0.0,0.0,0.0,0.0,0.0,0.0,0.0,0.0,0.0,0.0,0.0,0.0,0.0,0.0,0.0,0.0,0.0,0.0,0.0,0.0,0.0,0.0,0.0,0.0,0.0,0.0,0.0,0.0,0.0,0.0,0.0,0.0,0.0,0.0,0.0,0.0,0.0,0.0,0.0,0.0,0.0,0.0,0.0,0.0,0.0,0.0,0.0,0.0,0.0,0.0,0.0,0.0,0.0,0.0,0.0,0.0,0.0,0.0,0.0,0.0,0.0,0.0,0.0,0.0,0.0,0.0,0.0,0.0,0.0,0.0,0.0,0.0,0.0,0.0,0.0,0.0,0.0,0.0,0.0,4.7816,4.7822,4.7171,4.6092,4.4468,4.363,0.0,0.0,0.0,0.0,0.0,0.0,0.0,0.0,0.0,0.0,0.0,0.0,0.0,0.0,0.0,0.0,0.0,0.0,0.0,0.0,0.0,0.0,0.0,0.0,0.0,0.0,0.0,0.0,0.0,0.0,0.0,0.0,0.0,0.0,0.0,0.0,0.0,0.0,0.0,0.0,0.0,0.0,0.0,0.0,0.0,0.0,0.0,0.0,0.0,0.0,0.0,0.0,0.0,0.0,0.0,0.0,0.0,0.0,0.0,0.0,0.0,0.0,0.0,0.0,0.0,0.0,0.0,0.0,0.0,0.0,0.0,0.0,0.0,0.0,0.0,0.0,0.0,0.0,0.0,0.0,0.0,0.0,0.0,0.0,0.0,0.0,0.0,0.0,0.0,0.0,0.0,0.0,0.0,0.0,0.0,0.0,0.0,0.0,0.0,0.0,0.0,0.0,0.0,0.0,0.0,0.0,0.0,0.0,0.0,4.2561,3.9801,3.8728,3.9488,3.9806,3.8918,0.0,0.0,0.0,0.0,0.0,0.0,0.0,0.0,0.0,0.0,0.0,0.0,0.0,0.0,0.0,0.0,0.0,0.0,0.0,0.0,0.0,0.0,0.0,0.0,0.0,0.0,0.0,0.0,0.0,0.0,0.0,0.0,0.0,0.0,0.0,0.0,0.0,0.0,0.0,0.0,0.0,0.0,0.0,0.0,0.0,0.0,0.0,0.0,0.0,0.0,0.0,0.0,0.0,0.0,0.0,0.0,0.0,0.0,0.0,0.0,0.0,0.0,0.0,0.0,0.0,0.0,0.0,0.0,0.0,0.0,0.0,0.0,0.0,0.0,0.0,0.0,0.0,0.0,0.0,0.0,0.0,0.0,0.0,0.0,0.0,0.0,0.0,0.0,0.0,0.0,0.0,0.0,0.0,0.0,0.0,0.0,0.0,0.0,0.0,0.0,0.0,0.0,0.0,0.0,0.0,0.0,0.0,0.0,0.0,3.5327,3.5448,3.6322,3.7887,3.6787,3.6046,3.5646,0.0,0.0,0.0,0.0,0.0,0.0,0.0,0.0,0.0,0.0,0.0,0.0,0.0,0.0,0.0,0.0,0.0,0.0,0.0,0.0,0.0,0.0,0.0,0.0,0.0,0.0,0.0,0.0,0.0,0.0,0.0,0.0,0.0,0.0,0.0,0.0,0.0,0.0,0.0,0.0,0.0,0.0,0.0,0.0,0.0,0.0,0.0,0.0,0.0,0.0,0.0,0.0,0.0,0.0,0.0,0.0,0.0,0.0,0.0,0.0,0.0,0.0,0.0,0.0,0.0,0.0,0.0,0.0,0.0,0.0,0.0,0.0,0.0,0.0,0.0,0.0,0.0,0.0,0.0,0.0,0.0,0.0,0.0,0.0,0.0,0.0,0.0,0.0,0.0,0.0,0.0,0.0,0.0,0.0,0.0,0.0,0.0,0.0,0.0,0.0,0.0,0.0,0.0,0.0,0.0,0.0,0.0,0.0,2.9313,3.1218,3.2982,3.4509,3.3402,3.2914,0.0,0.0,0.0,0.0,0.0,0.0,0.0,0.0,0.0,0.0,0.0,0.0,0.0,0.0,0.0,0.0,0.0,0.0,0.0,0.0,0.0,0.0,0.0,0.0,0.0,0.0,0.0,0.0,0.0,0.0,0.0,0.0,0.0,0.0,0.0,0.0,0.0,0.0,0.0,0.0,0.0,0.0,0.0,0.0,0.0,0.0,0.0,0.0,0.0,0.0,0.0,0.0,0.0,0.0,0.0,0.0,0.0,0.0,0.0,0.0,0.0,0.0,0.0,0.0,0.0,0.0,0.0,0.0,0.0,0.0,0.0,0.0,0.0,0.0,0.0,0.0,0.0,0.0,0.0,0.0,0.0,0.0,0.0,0.0,0.0,0.0,0.0,0.0,0.0,0.0,0.0,0.0,0.0,0.0,0.0,0.0,0.0,0.0,0.0,0.0,0.0,0.0,0.0,0.0,0.0,0.0,0.0,0.0,2.2829,2.492,2.6672,2.8045,2.8668,2.938,2.9334,0.0,0.0,0.0,0.0,0.0,0.0,0.0,0.0,0.0,0.0,0.0,0.0,0.0,0.0,0.0,0.0,0.0,0.0,0.0,0.0,0.0,0.0,0.0,0.0,0.0,0.0,0.0,0.0,0.0,0.0,0.0,0.0,0.0,0.0,0.0,0.0,0.0,0.0,0.0,0.0,0.0,0.0,0.0,0.0,0.0,0.0,0.0,0.0,0.0,0.0,0.0,0.0,0.0,0.0,0.0,0.0,0.0,0.0,0.0,0.0,0.0,0.0,0.0,0.0,0.0,0.0,0.0,0.0,0.0,0.0,0.0,0.0,0.0,0.0,0.0,0.0,0.0,0.0,0.0,0.0,0.0,0.0,0.0,0.0,0.0,0.0,0.0,0.0,0.0,0.0,0.0,0.0,0.0,0.0,0.0,0.0,0.0,0.0,0.0,0.0,0.0,0.0,0.0,0.0,0.0,0.0,0.0,0.0,0.0,2.2672,0.0,2.6416,0.0,2.7888,2.7924,0.0,0.0,0.0,0.0,0.0,0.0,0.0,0.0,0.0,0.0,0.0,0.0,0.0,0.0,0.0,0.0,0.0,0.0,0.0,0.0,0.0,0.0,0.0,0.0,0.0,0.0,0.0,0.0,0.0,0.0,0.0,0.0,0.0,0.0,0.0,0.0,0.0,0.0,0.0,0.0,0.0,0.0,0.0,0.0,0.0,0.0,0.0,0.0,0.0,0.0,0.0,0.0,0.0,0.0,0.0,0.0,0.0,0.0,0.0,0.0,0.0,0.0,0.0,0.0,0.0,0.0,0.0,0.0,0.0,0.0,0.0,0.0,0.0,0.0,0.0,0.0,0.0,0.0,0.0,0.0,0.0,0.0,0.0,0.0,0.0,0.0,0.0,0.0,0.0,0.0,0.0,0.0,0.0,0.0,0.0,0.0,0.0,0.0,0.0,0.0,0.0,0.0,0.0,0.0,0.0,0.0,0.0,0.0,0.0,2.1568,2.3045,2.4593,2.6061,2.6158,2.6526,0.0,0.0,0.0,0.0,0.0,0.0,0.0,0.0,0.0,0.0,0.0,0.0,0.0,0.0,0.0,0.0,0.0,0.0,0.0,0.0,0.0,0.0,0.0,0.0,0.0,0.0,0.0,0.0,0.0,0.0,0.0,0.0,0.0,0.0,0.0,0.0,0.0,0.0,0.0,0.0,0.0,0.0,0.0,0.0,0.0,0.0,0.0,0.0,0.0,0.0,0.0,0.0,0.0,0.0,0.0,0.0,0.0,0.0,0.0,0.0,0.0,0.0,0.0,0.0,0.0,0.0,0.0,0.0,0.0,0.0,0.0,0.0,0.0,0.0,0.0,0.0,0.0,0.0,0.0,0.0,0.0,0.0,0.0,0.0,0.0,0.0,0.0,0.0,0.0,0.0,0.0,0.0,0.0,0.0,0.0,0.0,0.0,0.0,0.0,0.0,0.0,0.0,0.0,0.0,0.0,0.0,0.0,0.0,0.0,2.1388,2.1756,2.2457,2.3493,2.4251,2.5117,0.0,0.0,0.0,0.0,0.0,0.0,0.0,0.0,0.0,0.0,0.0,0.0,0.0,0.0,0.0,0.0,0.0,0.0,0.0,0.0,0.0,0.0,0.0,0.0,0.0,0.0,0.0,0.0,0.0,0.0,0.0,0.0,0.0,0.0,0.0,0.0,0.0,0.0,0.0,0.0,0.0,0.0,0.0,0.0,0.0,0.0,0.0,0.0,0.0,0.0,0.0,0.0,0.0,0.0,0.0,0.0,0.0,0.0,0.0,0.0,0.0,0.0,0.0,0.0,0.0,0.0,0.0,0.0,0.0,0.0,0.0,0.0,0.0,0.0,0.0,0.0,0.0,0.0,0.0,0.0,0.0,0.0,0.0,0.0,0.0,0.0,0.0,0.0,0.0,0.0,0.0,0.0,0.0,0.0,0.0,0.0,0.0,0.0,0.0,0.0,0.0,0.0,0.0,0.0,0.0,0.0,0.0,0.0,0.0,0.0,2.148,2.1852,2.2554,2.3674,2.4726,2.5711,0.0,0.0,0.0,0.0,0.0,0.0,0.0,0.0,0.0,0.0,0.0,0.0,0.0,0.0,0.0,0.0,0.0,0.0,0.0,0.0,0.0,0.0,0.0,0.0,0.0,0.0,0.0,0.0,0.0,0.0,0.0,0.0,0.0,0.0,0.0,0.0,0.0,0.0,0.0,0.0,0.0,0.0,0.0,0.0,0.0,0.0,0.0,0.0,0.0,0.0,0.0,0.0,0.0,0.0,0.0,0.0,0.0,0.0,0.0,0.0,0.0,0.0,0.0,0.0,0.0,0.0,0.0,0.0,0.0,0.0,0.0,0.0,0.0,0.0,0.0,0.0,0.0,0.0,0.0,0.0,0.0,0.0,0.0,0.0,0.0,0.0,0.0,0.0,0.0,0.0,0.0,0.0,0.0,0.0,0.0,0.0,0.0,0.0,0.0,0.0,0.0,0.0,0.0,0.0,0.0,0.0,0.0,0.0,0.0,0.0,2.1672,2.2135,2.3098,2.4263,0.0,0.0,0.0,0.0,0.0,0.0,0.0,0.0,0.0,0.0,0.0,0.0,0.0,0.0,0.0,0.0,0.0,0.0,0.0,0.0,0.0,0.0,0.0,0.0,0.0,0.0,0.0,0.0,0.0,0.0,0.0,0.0,0.0,0.0,0.0,0.0,0.0,0.0,0.0,0.0,0.0,0.0,0.0,0.0,0.0,0.0,0.0,0.0,0.0,0.0,0.0,0.0,0.0,0.0,0.0,0.0,0.0,0.0,0.0,0.0,0.0,0.0,0.0,0.0,0.0,0.0,0.0,0.0,0.0,0.0,0.0,0.0,0.0,0.0,0.0,0.0,0.0,0.0,0.0,0.0,0.0,0.0,0.0,0.0,0.0,0.0,0.0,0.0,0.0,0.0,0.0,0.0,0.0,0.0,0.0,0.0,0.0,0.0,0.0,0.0,0.0,0.0,0.0,0.0,0.0,0.0,0.0,0.0,0.0,0.0,0.0,2.1756,2.2124,2.2629,0.0,2.539,0.0,0.0,0.0,0.0,0.0,0.0,0.0,0.0,0.0,0.0,0.0,0.0,0.0,0.0,0.0,0.0,0.0,0.0,0.0,0.0,0.0,0.0,0.0,0.0,0.0,0.0,0.0,0.0,0.0,0.0,0.0,0.0,0.0,0.0,0.0,0.0,0.0,0.0,0.0,0.0,0.0,0.0,0.0,0.0,0.0,0.0,0.0,0.0,0.0,0.0,0.0,0.0,0.0,0.0,0.0,0.0,0.0,0.0,0.0,0.0,0.0,0.0,0.0,0.0,0.0,0.0,0.0,0.0,0.0,0.0,0.0,0.0,0.0,0.0,0.0,0.0,0.0,0.0,0.0,0.0,0.0,0.0,0.0,0.0,0.0,0.0,0.0,0.0,0.0,0.0,0.0,0.0,0.0,0.0,0.0,0.0,0.0,0.0,0.0,0.0,0.0,0.0,0.0,0.0,0.0,0.0,0.0,0.0,0.0,0.0,0.0,0.0,2.2348,2.3024,2.4134,0.0,0.0,0.0,0.0,0.0,0.0,0.0,0.0,0.0,0.0,0.0,0.0,0.0,0.0,0.0,0.0,0.0,0.0,0.0,0.0,0.0,0.0,0.0,0.0,0.0,0.0,0.0,0.0,0.0,0.0,0.0,0.0,0.0,0.0,0.0,0.0,0.0,0.0,0.0,0.0,0.0,0.0,0.0,0.0,0.0,0.0,0.0,0.0,0.0,0.0,0.0,0.0,0.0,0.0,0.0,0.0,0.0,0.0,0.0,0.0,0.0,0.0,0.0,0.0,0.0,0.0,0.0,0.0,0.0,0.0,0.0,0.0,0.0,0.0,0.0,0.0,0.0,0.0,0.0,0.0,0.0,0.0,0.0,0.0,0.0,0.0,0.0,0.0,0.0,0.0,0.0,0.0,0.0,0.0,0.0,0.0,0.0,0.0,0.0,0.0,0.0,0.0,0.0,0.0,0.0,0.0,0.0,0.0,0.0,0.0,2.1593,2.1841,2.22,2.2738,2.3534,0.0,0.0,0.0,0.0,0.0,0.0,0.0,0.0,0.0,0.0,0.0,0.0,0.0,0.0,0.0,0.0,0.0,0.0,0.0,0.0,0.0,0.0,0.0,0.0,0.0,0.0,0.0,0.0,0.0,0.0,0.0,0.0,0.0,0.0,0.0,0.0,0.0,0.0,0.0,0.0,0.0,0.0,0.0,0.0,0.0,0.0,0.0,0.0,0.0,0.0,0.0,0.0,0.0,0.0,0.0,0.0,0.0,0.0,0.0,0.0,0.0,0.0,0.0,0.0,0.0,0.0,0.0,0.0,0.0,0.0,0.0,0.0,0.0,0.0,0.0,0.0,0.0,0.0,0.0,0.0,0.0,0.0,0.0,0.0,0.0,0.0,0.0,0.0,0.0,0.0,0.0,0.0,0.0,0.0,0.0,0.0,0.0,0.0,0.0,0.0,0.0,0.0,0.0,0.0,0.0,0.0,0.0,0.0,0.0,0.0,0.0,0.0,0.0,0.0,2.3319,0.0,0.0,0.0,0.0,0.0,0.0,0.0,0.0,0.0,0.0,0.0,0.0,0.0,0.0,0.0,0.0,0.0,0.0,0.0,0.0,0.0,0.0,0.0,0.0,0.0,0.0,0.0,0.0,0.0,0.0,0.0,0.0,0.0,0.0,0.0,0.0,0.0,0.0,0.0,0.0,0.0,0.0,0.0,0.0,0.0,0.0,0.0,0.0,0.0,0.0,0.0,0.0,0.0,0.0,0.0,0.0,0.0,0.0,0.0,0.0,0.0,0.0,0.0,0.0,0.0,0.0,0.0,0.0,0.0,0.0,0.0,0.0,0.0,0.0,0.0,0.0,0.0,0.0,0.0,0.0,0.0,0.0,0.0,0.0,0.0,0.0,0.0,0.0,0.0,0.0,0.0,0.0,0.0,0.0,0.0,0.0,0.0,0.0,0.0,0.0,0.0,0.0,0.0,0.0,0.0,0.0,0.0,0.0,0.0,0.0,0.0,0.0,0.0,0.0,0.0,0.0,0.0,0.0,0.0,0.0,0.0,0.0,0.0,0.0,0.0,0.0,0.0,0.0,0.0,0.0,0.0,0.0,0.0,0.0,0.0,0.0,0.0,0.0,0.0,0.0,0.0,0.0,0.0,0.0,0.0,0.0,0.0,0.0,0.0,0.0,0.0,0.0,0.0,0.0,0.0,0.0,0.0,0.0,0.0,0.0,0.0,0.0,0.0,0.0,0.0,0.0,0.0,0.0,0.0,0.0,0.0,0.0,0.0,0.0,0.0,0.0,0.0,0.0,0.0,0.0,0.0,0.0,0.0,0.0,0.0,0.0,0.0,0.0,0.0,0.0,0.0,0.0,0.0,0.0,0.0,0.0,0.0,0.0,0.0,0.0,0.0,0.0,0.0,0.0,0.0,0.0,0.0,0.0,0.0,0.0,0.0,0.0,0.0,0.0,0.0,0.0,0.0,0.0,0.0,0.0,0.0,0.0,0.0,0.0,0.0,0.0,0.0,0.0,0.0,0.0,0.0,0.0,0.0,0.0,0.0,0.0,0.0,0.0,0.0,0.0,0.0,0.0,0.0,0.0,0.0,0.0,0.0,0.0,0.0,0.0,0.0,0.0,0.0,0.0,0.0,0.0,0.0,0.0,0.0,0.0,0.0,0.0,0.0,0.0,0.0,0.0,0.0,0.0,0.0,0.0,0.0,0.0,0.0,0.0,0.0,0.0,0.0,0.0,0.0,0.0,0.0,0.0,0.0,0.0,0.0,0.0,0.0,0.0,0.0,0.0,0.0,0.0,0.0,0.0,0.0,0.0,0.0,0.0,0.0,0.0,0.0,0.0,0.0,0.0,0.0,0.0,0.0,0.0,0.0,0.0,0.0,0.0,0.0,0.0,0.0,0.0,0.0,0.0,0.0,0.0,0.0,0.0,0.0,0.0,0.0,0.0,0.0,0.0,0.0,0.0,0.0,0.0,0.0,0.0,0.0,0.0,0.0,0.0,0.0,0.0,0.0,0.0,0.0,0.0,0.0,0.0,0.0,0.0,0.0,0.0,0.0,0.0,0.0,0.0,0.0,0.0,0.0,0.0,0.0,0.0,0.0,0.0,0.0,0.0,0.0,0.0,0.0,0.0,0.0,0.0,0.0,0.0,0.0,0.0,0.0,0.0,0.0,0.0,0.0,0.0,0.0,0.0,0.0,0.0,0.0,0.0,0.0,0.0,0.0,0.0,0.0,0.0,0.0,0.0,0.0,0.0,0.0,0.0,0.0,0.0,0.0,0.0,0.0,0.0,0.0,0.0,0.0,0.0,0.0,0.0,0.0,0.0,0.0,0.0,0.0,0.0,0.0,0.0,0.0,0.0,0.0,0.0,0.0,0.0,0.0,0.0,0.0,0.0,0.0,0.0,0.0,0.0,0.0,0.0,0.0,0.0,0.0,0.0,0.0,0.0,0.0,0.0,0.0,0.0,0.0,0.0,0.0,0.0,0.0,0.0,0.0,0.0,0.0,0.0,0.0,0.0,0.0,0.0,0.0,0.0,0.0,0.0,0.0,0.0,0.0,0.0,0.0,0.0,0.0,0.0,0.0,0.0,0.0,0.0,0.0,0.0,0.0,0.0,0.0,0.0,0.0,0.0,0.0,0.0,0.0,0.0,0.0,0.0,0.0,0.0,0.0,0.0,0.0,0.0,0.0,0.0,0.0,0.0,0.0,0.0,0.0,0.0,0.0,0.0,0.0,0.0,0.0,0.0,0.0,0.0,0.0,0.0,0.0,0.0,0.0,0.0,0.0,0.0,0.0,0.0,0.0,0.0,0.0,0.0,0.0,0.0,0.0,0.0,0.0,0.0,0.0,0.0,0.0,0.0,0.0,0.0,0.0,0.0,0.0,0.0,0.0,0.0,0.0,0.0,0.0,0.0,0.0,0.0,0.0,0.0,0.0,0.0,0.0,0.0,0.0,0.0,0.0,0.0,0.0,0.0,0.0,0.0,0.0,0.0,0.0,0.0,0.0,0.0,0.0,0.0,0.0,0.0,0.0,0.0,0.0,0.0,0.0,0.0,0.0,0.0,0.0,0.0,0.0,0.0,0.0,0.0,0.0,0.0,0.0,0.0,0.0,0.0,0.0,0.0,0.0,0.0,0.0,0.0,0.0,0.0,0.0,0.0,0.0,0.0,0.0,0.0,0.0,0.0,0.0,0.0,0.0,0.0,0.0,0.0,0.0,0.0,0.0,0.0,0.0,0.0,0.0,0.0,0.0,0.0,0.0,0.0,0.0,0.0,0.0,0.0,0.0,0.0,0.0,0.0,0.0,0.0,0.0,0.0,0.0,0.0,0.0,0.0,0.0,0.0,0.0,0.0,0.0,0.0,0.0,0.0,0.0,0.0,0.0,0.0,0.0,0.0,0.0,0.0,0.0,0.0,0.0,0.0,0.0,0.0,0.0,0.0,0.0,0.0,0.0,0.0,0.0,0.0,0.0,0.0,0.0,0.0,0.0,0.0,0.0,0.0,0.0,0.0,0.0,0.0,0.0,0.0,0.0,0.0,0.0,0.0,0.0,0.0,0.0,0.0,0.0,0.0,0.0,0.0,0.0,0.0,0.0,0.0,0.0,0.0,0.0,0.0,0.0,0.0,0.0,0.0,0.0,0.0,0.0,0.0,0.0,0.0,0.0,0.0,0.0,0.0,0.0,0.0,0.0,0.0,0.0,0.0,0.0,0.0,0.0,0.0,0.0,0.0,0.0,0.0,0.0,0.0,0.0,0.0,0.0,0.0,0.0,0.0,0.0,0.0,0.0,0.0,0.0,0.0,0.0,0.0,0.0,0.0,0.0,0.0,0.0,0.0,0.0,0.0,0.0,0.0,0.0,0.0,0.0,0.0,0.0,0.0,0.0,0.0,0.0,0.0,0.0,0.0,0.0,0.0,0.0,0.0,0.0,0.0,0.0,0.0,0.0,0.0,0.0,0.0,0.0,0.0,0.0,0.0,0.0,0.0,0.0,0.0,0.0,0.0,0.0,0.0,0.0,0.0,0.0,0.0,0.0,0.0,0.0,0.0,0.0,0.0,0.0,0.0,0.0,0.0,0.0,0.0,0.0,0.0,0.0,0.0,0.0,0.0,0.0,0.0,0.0,0.0,0.0,0.0,0.0,0.0,0.0,0.0,0.0,0.0,0.0,0.0,0.0,0.0,0.0,0.0,0.0,0.0,0.0,0.0,0.0,0.0,0.0,0.0,0.0,0.0,0.0,0.0,0.0,0.0,0.0,0.0,0.0,0.0,0.0,0.0,0.0,0.0,0.0,0.0,0.0,0.0,0.0,0.0,0.0,0.0,0.0,0.0,0.0,0.0,0.0,0.0,0.0,0.0,0.0,0.0,0.0,0.0,0.0,0.0,0.0,0.0,0.0,0.0,0.0,0.0,0.0,0.0,0.0,0.0,0.0,0.0,0.0,0.0,0.0,0.0,0.0,0.0,0.0,0.0,0.0,0.0,0.0,0.0,0.0,0.0,0.0,0.0,0.0,0.0,0.0,0.0,0.0,0.0,0.0,0.0,0.0,0.0,0.0,0.0,0.0,0.0,0.0,0.0,0.0,0.0,0.0,0.0,0.0,0.0,0.0,0.0,0.0,0.0,0.0,0.0,0.0,0.0,0.0,0.0,0.0,0.0,0.0,0.0,0.0,0.0,0.0,0.0,0.0,0.0,0.0,0.0,0.0,0.0,0.0,0.0,0.0,0.0,0.0,0.0,0.0,0.0,0.0,0.0,0.0,0.0,0.0,0.0,0.0,0.0,0.0,0.0,0.0,0.0,0.0,0.0,0.0,0.0,0.0,0.0,0.0,0.0,0.0,0.0,0.0,0.0,0.0,0.0]}]]]